[[{"header":{"parameterUnit":"m.s-1","parameterCategory":1,"la1":31.0,"la2":29.5877,"lo1":-88.7671,"lo2":-86.6584,"dy":0.0162,"dx":0.0185,"nx":115,"ny":88,"refTime":"2023-10-14T00:00:00:Z","depth":0,"parameterNumber":2,"parameterNumberName":"U-component_of_WINDS"},"data":[0.0,0.0,0.0,0.0,0.0,0.0,0.0,0.0,0.0,0.0,0.0,0.0,0.0,0.0,0.0,0.0,0.0,0.0,0.0,0.0,0.0,0.0,0.0,0.0,0.0,0.0,0.0,0.0,0.0,0.0,0.0,0.0,0.0,0.0,0.0,0.0,0.0,0.0,0.0,0.0,0.0,0.0,0.0,0.0,0.0,0.0,0.0,0.0,0.0,0.0,0.0,0.0,0.0,0.0,0.0,0.0,0.0,0.0,0.0,0.0,0.0,0.0,0.0,0.0,0.0,0.0,0.0,0.0,0.0,0.0,0.0,0.0,0.0,0.0,0.0,0.0,0.0,0.0,0.0,0.0,0.0,0.0,0.0,0.0,0.0,0.0,0.0,0.0,0.0,0.0,0.0,0.0,0.0,0.0,0.0,0.0,0.0,0.0,0.0,0.0,0.0,0.0,0.0,0.0,0.0,0.0,0.0,0.0,0.0,0.0,0.0,0.0,0.0,0.0,0.0,0.0,0.0,0.0,0.0,0.0,0.0,0.0,0.0,0.0,0.0,0.0,0.0,0.0,0.0,0.0,0.0,0.0,0.0,0.0,0.0,0.0,0.0,0.0,0.0,0.0,0.0,0.0,0.0,0.0,0.0,0.0,0.0,0.0,0.0,0.0,0.0,0.0,0.0,0.0,0.0,0.0,0.0,0.0,0.0,0.0,0.0,0.0,0.0,0.0,0.0,0.0,0.0,0.0,0.0,0.0,0.0,0.0,0.0,0.0,0.0,0.0,0.0,0.0,0.0,0.0,0.0,0.0,0.0,0.0,0.0,0.0,0.0,0.0,0.0,0.0,0.0,0.0,0.0,0.0,0.0,0.0,0.0,0.0,0.0,0.0,0.0,0.0,0.0,0.0,0.0,0.0,0.0,0.0,0.0,0.0,0.0,0.0,0.0,0.0,0.0,0.0,0.0,0.0,0.0,0.0,0.0,0.0,0.0,0.0,0.0,0.0,0.0,0.0,0.0,0.0,0.0,0.0,0.0,0.0,0.0,0.0,0.0,0.0,0.0,0.0,0.0,0.0,0.0,0.0,0.0,0.0,0.0,0.0,0.0,0.0,0.0,0.0,0.0,0.0,0.0,0.0,0.0,0.0,0.0,0.0,0.0,0.0,0.0,0.0,0.0,0.0,0.0,0.0,0.0,0.0,0.0,0.0,0.0,0.0,0.0,0.0,0.0,0.0,0.0,0.0,0.0,0.0,0.0,0.0,0.0,0.0,0.0,0.0,0.0,0.0,0.0,0.0,0.0,0.0,0.0,0.0,0.0,0.0,0.0,0.0,0.0,0.0,0.0,0.0,0.0,0.0,0.0,0.0,0.0,0.0,0.0,0.0,0.0,0.0,0.0,0.0,0.0,0.0,0.0,0.0,0.0,0.0,0.0,0.0,0.0,0.0,0.0,0.0,0.0,0.0,0.0,0.0,0.0,0.0,0.0,0.0,0.0,0.0,0.0,0.0,0.0,0.0,0.0,0.0,0.0,0.0,0.0,0.0,0.0,0.0,0.0,0.0,0.0,0.0,0.0,0.0,0.0,0.0,0.0,0.0,0.0,0.0,0.0,0.0,0.0,0.0,0.0,0.0,0.0,0.0,0.0,0.0,0.0,0.0,0.0,0.0,0.0,0.0,0.0,0.0,0.0,0.0,0.0,0.0,0.0,0.0,0.0,0.0,0.0,0.0,0.0,0.0,0.0,0.0,0.0,0.0,0.0,0.0,0.0,0.0,0.0,0.0,0.0,0.0,0.0,0.0,0.0,0.0,0.0,0.0,0.0,0.0,0.0,0.0,0.0,0.0,0.0,0.0,0.0,0.0,0.0,0.0,0.0,0.0,0.0,0.0,0.0,0.0,0.0,0.0,0.0,0.0,0.0,0.0,0.0,0.0,0.0,0.0,0.0,0.0,0.0,0.0,0.0,0.0,0.0,0.0,0.0,0.0,0.0,0.0,0.0,0.0,0.0,0.0,0.0,0.0,0.0,0.0,0.0,0.0,0.0,0.0,0.0,0.0,0.0,0.0,0.0,0.0,0.0,0.0,0.0,0.0,0.0,0.0,0.0,0.0,0.0,0.0,0.0,0.0,0.0,0.0,0.0,0.0,0.0,0.0,0.0,0.0,0.0,0.0,0.0,0.0,0.0,0.0,0.0,0.0,0.0,0.0,0.0,0.0,0.0,0.0,0.0,0.0,0.0,0.0,0.0,0.0,0.0,0.0,0.0,0.0,0.0,0.0,0.0,0.0,0.0,0.0,0.0,0.0,0.0,0.0,0.0,0.0,0.0,0.0,0.0,0.0,0.0,0.0,0.0,0.0,0.0,0.0,0.0,0.0,0.0,0.0,0.0,0.0,0.0,0.0,0.0,0.0,0.0,0.0,0.0,0.0,0.0,0.0,0.0,0.0,0.0,0.0,0.0,0.0,0.0,0.0,0.0,0.0,0.0,0.0,0.0,0.0,0.0,0.0,0.0,0.0,0.0,0.0,0.0,0.0,0.0,0.0,0.0,0.0,0.0,0.0,0.0,0.0,0.0,0.0,0.0,0.0,0.0,0.0,0.0,0.0,0.0,0.0,0.0,0.0,0.0,0.0,0.0,0.0,0.0,0.0,0.0,0.0,0.0,0.0,0.0,0.0,0.0,0.0,0.0,0.0,0.0,0.0,0.0,0.0,0.0,0.0,0.0,0.0,0.0,0.0,0.0,0.0,0.0,0.0,0.0,0.0,0.0,0.0,0.0,0.0,0.0,0.0,0.0,0.0,0.0,0.0,0.0,0.0,0.0,0.0,0.0,0.0,0.0,0.0,0.0,0.0,0.0,0.0,0.0,0.0,0.0,0.0,0.0,0.0,0.0,0.0,0.0,0.0,0.0,0.0,0.0,0.0,0.0,0.0,0.0,0.0,0.0,0.0,0.0,0.0,0.0,0.0,0.0,0.0,0.0,0.0,0.0,0.0,0.0,0.0,0.0,0.0,0.0,0.0,0.0,0.0,0.0,0.0,0.0,0.0,0.0,0.0,0.0,0.0,0.0,0.0,0.0,0.0,0.0,0.0,0.0,0.0,0.0,0.0,0.0,0.0,0.0,0.0,0.0,0.0,0.0,0.0,0.0,0.0,0.0,0.0,0.0,0.0,0.0,0.0,0.0,0.0,0.0,0.0,0.0,0.0,0.0,0.0,0.0,0.0,0.0,0.0,0.0,0.0,0.0,0.0,0.0,0.0,0.0,0.0,0.0,0.0,0.0,0.0,0.0,0.0,0.0,0.0,0.0,0.0,0.0,0.0,0.0,0.0,0.0,0.0,0.0,0.0,0.0,0.0,0.0,0.0,0.0,0.0,0.0,0.0,0.0,0.0,0.0,0.0,0.0,0.0,0.0,0.0,0.0,0.0,0.0,0.0,0.0,0.0,0.0,0.0,0.0,0.0,0.0,0.0,0.0,0.0,0.0,0.0,0.0,0.0,0.0,0.0,0.0,0.0,0.0,0.0,0.0,0.0,0.0,0.0,0.0,0.0,0.0,0.0,0.0,0.0,0.0,0.0,0.0,0.0,0.0,0.0,0.0,0.0,0.0,0.0,0.0,0.0,0.0,0.0,0.0,0.0,0.0,0.0,0.0,0.0,0.0,0.0,0.0,0.0,0.0,0.0,0.0,0.0,0.0,0.0,0.0,0.0,0.0,0.0,0.0,0.0,0.0,0.0,0.0,0.0,0.0,0.0,0.0,0.0,0.0,0.0,0.0,0.0,0.0,0.0,0.0,0.0,0.0,0.0,0.0,0.0,0.0,0.0,0.0,0.0,0.0,0.0,0.0,0.0,0.0,0.0,0.0,0.0,0.0,0.0,0.0,0.0,0.0,0.0,0.0,0.0,0.0,0.0,0.0,0.0,0.0,0.0,0.0,0.0,0.0,0.0,0.0,0.0,0.0,0.0,0.0,0.0,0.0,0.0,0.0,0.0,0.0,0.0,0.0,0.0,0.0,0.0,0.0,0.0,0.0,0.0,0.0,0.0,0.0,0.0,0.0,0.0,0.0,0.0,0.0,0.0,0.0,0.0,0.0,0.0,0.0,0.0,0.0,0.0,0.0,0.0,0.0,0.0,0.0,0.0,0.0,0.0,0.0,0.0,0.0,0.0,0.0,0.0,0.0,0.0,0.0,0.0,0.0,0.0,0.0,0.0,0.0,0.0,0.0,0.0,0.0,0.0,0.0,0.0,0.0,0.0,0.0,0.0,0.0,0.0,6.7687,0.0,0.0,0.0,0.0,0.0,0.0,0.0,0.0,0.0,0.0,0.0,0.0,0.0,0.0,0.0,0.0,0.0,0.0,0.0,0.0,0.0,0.0,0.0,0.0,0.0,0.0,0.0,0.0,0.0,0.0,0.0,0.0,0.0,0.0,0.0,0.0,0.0,0.0,0.0,0.0,0.0,0.0,0.0,0.0,0.0,0.0,0.0,0.0,0.0,0.0,0.0,0.0,0.0,0.0,0.0,0.0,0.0,0.0,0.0,0.0,0.0,0.0,0.0,0.0,0.0,0.0,0.0,0.0,0.0,0.0,0.0,0.0,0.0,0.0,0.0,0.0,0.0,0.0,0.0,0.0,0.0,0.0,0.0,0.0,0.0,0.0,0.0,0.0,0.0,0.0,0.0,0.0,0.0,0.0,0.0,0.0,0.0,0.0,0.0,0.0,0.0,0.0,0.0,0.0,0.0,0.0,0.0,0.0,0.0,0.0,6.9592,6.8935,6.8898,6.8733,6.8385,0.0,0.0,0.0,0.0,0.0,0.0,0.0,0.0,0.0,0.0,0.0,0.0,0.0,0.0,0.0,0.0,0.0,0.0,0.0,0.0,0.0,0.0,0.0,0.0,0.0,0.0,0.0,0.0,0.0,0.0,0.0,0.0,0.0,0.0,0.0,0.0,0.0,0.0,0.0,0.0,0.0,0.0,0.0,0.0,0.0,0.0,0.0,0.0,0.0,0.0,0.0,0.0,0.0,0.0,0.0,0.0,0.0,0.0,0.0,0.0,0.0,0.0,0.0,0.0,0.0,0.0,0.0,0.0,0.0,0.0,0.0,0.0,0.0,0.0,0.0,0.0,0.0,0.0,0.0,0.0,0.0,0.0,0.0,0.0,0.0,0.0,0.0,0.0,0.0,0.0,0.0,0.0,0.0,0.0,0.0,0.0,0.0,0.0,0.0,0.0,0.0,0.0,0.0,0.0,0.0,0.0,0.0,0.0,0.0,0.0,0.0,0.0,6.9827,6.9518,6.888,0.0,0.0,0.0,0.0,0.0,0.0,0.0,0.0,0.0,0.0,0.0,0.0,0.0,0.0,0.0,0.0,0.0,0.0,0.0,0.0,0.0,0.0,0.0,0.0,0.0,0.0,0.0,0.0,0.0,0.0,0.0,0.0,0.0,0.0,0.0,0.0,0.0,0.0,0.0,0.0,0.0,0.0,0.0,0.0,0.0,0.0,0.0,0.0,0.0,0.0,0.0,0.0,0.0,0.0,0.0,0.0,0.0,0.0,0.0,0.0,0.0,0.0,0.0,0.0,0.0,0.0,0.0,0.0,0.0,0.0,0.0,0.0,0.0,0.0,0.0,0.0,0.0,0.0,0.0,0.0,0.0,0.0,0.0,0.0,0.0,0.0,0.0,0.0,0.0,0.0,0.0,0.0,0.0,0.0,0.0,0.0,0.0,0.0,0.0,0.0,0.0,0.0,0.0,0.0,0.0,0.0,0.0,0.0,0.0,0.0,6.9176,6.9201,6.9441,0.0,6.8657,0.0,0.0,0.0,0.0,0.0,0.0,0.0,0.0,0.0,0.0,0.0,0.0,0.0,0.0,0.0,0.0,0.0,0.0,0.0,0.0,0.0,0.0,0.0,0.0,0.0,0.0,0.0,0.0,0.0,0.0,0.0,0.0,0.0,0.0,0.0,0.0,0.0,0.0,0.0,0.0,0.0,0.0,0.0,0.0,0.0,0.0,0.0,0.0,0.0,0.0,0.0,0.0,0.0,0.0,0.0,0.0,0.0,0.0,0.0,0.0,0.0,0.0,0.0,0.0,0.0,0.0,0.0,0.0,0.0,0.0,0.0,0.0,0.0,0.0,0.0,0.0,0.0,0.0,0.0,0.0,0.0,0.0,0.0,0.0,0.0,0.0,0.0,0.0,0.0,0.0,0.0,0.0,0.0,0.0,0.0,0.0,0.0,0.0,0.0,0.0,0.0,0.0,0.0,0.0,0.0,0.0,0.0,0.0,0.0,0.0,7.0411,7.0073,7.0205,6.9945,0.0,0.0,0.0,0.0,0.0,0.0,0.0,0.0,0.0,0.0,0.0,0.0,0.0,0.0,0.0,0.0,0.0,0.0,0.0,0.0,0.0,0.0,0.0,0.0,0.0,0.0,0.0,0.0,0.0,0.0,0.0,0.0,0.0,0.0,0.0,0.0,0.0,0.0,0.0,0.0,0.0,0.0,0.0,0.0,0.0,0.0,0.0,0.0,0.0,0.0,0.0,0.0,0.0,0.0,0.0,0.0,0.0,0.0,0.0,0.0,0.0,0.0,0.0,0.0,0.0,0.0,0.0,0.0,0.0,0.0,0.0,0.0,0.0,0.0,0.0,0.0,0.0,0.0,0.0,0.0,0.0,0.0,0.0,0.0,0.0,0.0,0.0,0.0,0.0,0.0,0.0,0.0,0.0,0.0,0.0,0.0,0.0,0.0,0.0,0.0,0.0,0.0,0.0,0.0,0.0,0.0,0.0,0.0,0.0,0.0,7.0371,7.0868,7.0811,7.0796,7.042,6.9712,0.0,0.0,0.0,0.0,0.0,0.0,0.0,0.0,0.0,0.0,0.0,0.0,0.0,0.0,0.0,0.0,0.0,0.0,0.0,0.0,0.0,0.0,0.0,0.0,0.0,0.0,0.0,0.0,0.0,0.0,0.0,0.0,0.0,0.0,0.0,0.0,0.0,0.0,0.0,0.0,0.0,0.0,0.0,0.0,0.0,0.0,0.0,0.0,0.0,0.0,0.0,0.0,0.0,0.0,0.0,0.0,0.0,0.0,0.0,0.0,0.0,0.0,0.0,0.0,0.0,0.0,0.0,0.0,0.0,0.0,0.0,0.0,0.0,0.0,0.0,0.0,0.0,0.0,0.0,0.0,0.0,0.0,0.0,0.0,0.0,0.0,0.0,0.0,0.0,0.0,0.0,0.0,0.0,0.0,0.0,0.0,0.0,0.0,0.0,0.0,0.0,0.0,0.0,0.0,0.0,0.0,0.0,0.0,6.9265,6.9169,6.9729,7.0979,7.0734,7.0397,0.0,0.0,0.0,0.0,0.0,0.0,0.0,0.0,0.0,0.0,0.0,0.0,0.0,0.0,0.0,0.0,0.0,0.0,0.0,0.0,0.0,0.0,0.0,0.0,0.0,0.0,0.0,0.0,0.0,0.0,0.0,0.0,0.0,0.0,0.0,0.0,0.0,0.0,0.0,0.0,0.0,0.0,0.0,0.0,0.0,0.0,0.0,0.0,0.0,0.0,0.0,0.0,0.0,0.0,0.0,0.0,0.0,0.0,0.0,0.0,0.0,0.0,0.0,0.0,0.0,0.0,0.0,0.0,0.0,0.0,0.0,0.0,0.0,0.0,0.0,0.0,0.0,0.0,0.0,0.0,0.0,0.0,0.0,0.0,0.0,0.0,0.0,0.0,0.0,0.0,0.0,0.0,0.0,0.0,0.0,0.0,0.0,0.0,0.0,0.0,0.0,0.0,0.0,0.0,0.0,0.0,0.0,0.0,0.0,6.8844,6.9479,7.0407,7.1498,7.0961,6.9805,0.0,0.0,0.0,0.0,0.0,0.0,0.0,0.0,0.0,0.0,0.0,0.0,0.0,0.0,0.0,0.0,0.0,0.0,0.0,0.0,0.0,0.0,0.0,0.0,0.0,0.0,0.0,0.0,0.0,0.0,0.0,0.0,0.0,0.0,0.0,0.0,0.0,0.0,0.0,0.0,0.0,0.0,0.0,0.0,0.0,0.0,0.0,0.0,0.0,0.0,0.0,0.0,0.0,0.0,0.0,0.0,0.0,0.0,0.0,0.0,0.0,0.0,0.0,0.0,0.0,0.0,0.0,0.0,0.0,0.0,0.0,0.0,0.0,0.0,0.0,0.0,0.0,0.0,0.0,0.0,0.0,0.0,0.0,0.0,0.0,0.0,0.0,0.0,0.0,0.0,0.0,0.0,0.0,0.0,0.0,0.0,0.0,0.0,0.0,0.0,0.0,0.0,0.0,0.0,0.0,0.0,0.0,0.0,0.0,6.8634,0.0,7.1283,7.1668,7.106,6.9623,0.0,0.0,0.0,0.0,0.0,0.0,0.0,0.0,0.0,0.0,0.0,0.0,0.0,0.0,0.0,0.0,0.0,0.0,0.0,0.0,0.0,0.0,0.0,0.0,0.0,0.0,0.0,0.0,0.0,0.0,0.0,0.0,0.0,0.0,0.0,0.0,0.0,0.0,0.0,0.0,0.0,0.0,0.0,0.0,0.0,0.0,0.0,0.0,0.0,0.0,0.0,0.0,0.0,0.0,0.0,0.0,0.0,0.0,0.0,0.0,0.0,0.0,0.0,0.0,0.0,0.0,0.0,0.0,0.0,0.0,0.0,0.0,0.0,0.0,0.0,0.0,0.0,0.0,0.0,0.0,0.0,0.0,0.0,0.0,0.0,0.0,0.0,0.0,0.0,0.0,0.0,0.0,0.0,0.0,0.0,0.0,0.0,0.0,0.0,0.0,0.0,0.0,0.0,0.0,0.0,0.0,0.0,0.0,6.7746,6.892,7.1131,7.2127,7.1567,7.1078,7.0018,0.0,0.0,0.0,0.0,0.0,0.0,0.0,0.0,0.0,0.0,0.0,0.0,0.0,0.0,0.0,0.0,0.0,0.0,0.0,0.0,0.0,0.0,0.0,0.0,0.0,0.0,0.0,0.0,0.0,0.0,0.0,0.0,0.0,0.0,0.0,0.0,0.0,0.0,0.0,0.0,0.0,0.0,0.0,0.0,0.0,0.0,0.0,0.0,0.0,0.0,0.0,0.0,0.0,0.0,0.0,0.0,0.0,0.0,0.0,0.0,0.0,0.0,0.0,0.0,0.0,0.0,0.0,0.0,0.0,0.0,0.0,0.0,0.0,0.0,0.0,0.0,0.0,0.0,0.0,0.0,0.0,0.0,0.0,0.0,0.0,0.0,0.0,0.0,0.0,0.0,0.0,0.0,0.0,0.0,0.0,0.0,0.0,0.0,0.0,0.0,0.0,0.0,0.0,0.0,0.0,0.0,0.0,0.0,0.0,7.0785,7.219,7.2834,7.2517,7.155,6.9639,0.0,0.0,0.0,0.0,0.0,0.0,0.0,0.0,0.0,0.0,0.0,0.0,0.0,0.0,0.0,0.0,0.0,0.0,0.0,0.0,0.0,0.0,0.0,0.0,0.0,0.0,0.0,0.0,0.0,0.0,0.0,0.0,0.0,0.0,0.0,0.0,0.0,0.0,0.0,0.0,0.0,0.0,0.0,0.0,0.0,0.0,0.0,0.0,0.0,0.0,0.0,0.0,0.0,0.0,0.0,0.0,0.0,0.0,0.0,0.0,0.0,0.0,0.0,0.0,0.0,0.0,0.0,0.0,0.0,0.0,0.0,0.0,0.0,0.0,0.0,0.0,0.0,0.0,0.0,0.0,0.0,0.0,0.0,0.0,0.0,0.0,0.0,0.0,0.0,0.0,0.0,0.0,0.0,0.0,0.0,0.0,0.0,0.0,0.0,0.0,0.0,0.0,0.0,0.0,0.0,0.0,0.0,0.0,0.0,7.2631,7.3993,7.4493,7.4139,7.3104,7.0705,6.6952,0.0,0.0,0.0,0.0,0.0,0.0,0.0,0.0,0.0,0.0,0.0,0.0,0.0,0.0,0.0,0.0,0.0,0.0,0.0,0.0,0.0,0.0,0.0,0.0,0.0,0.0,0.0,0.0,0.0,0.0,0.0,0.0,0.0,0.0,0.0,0.0,0.0,0.0,0.0,0.0,0.0,0.0,0.0,0.0,0.0,0.0,0.0,0.0,0.0,0.0,0.0,0.0,0.0,0.0,0.0,0.0,0.0,0.0,0.0,0.0,0.0,0.0,0.0,0.0,0.0,0.0,0.0,0.0,0.0,0.0,0.0,0.0,0.0,0.0,0.0,0.0,0.0,0.0,0.0,0.0,0.0,0.0,0.0,0.0,0.0,0.0,0.0,0.0,0.0,0.0,0.0,0.0,0.0,0.0,0.0,0.0,0.0,0.0,0.0,0.0,0.0,0.0,0.0,0.0,0.0,0.0,0.0,0.0,7.4504,7.6444,7.7045,7.635,7.5469,7.3039,0.0,0.0,0.0,0.0,0.0,0.0,0.0,0.0,0.0,0.0,0.0,0.0,0.0,0.0,0.0,0.0,0.0,0.0,0.0,0.0,0.0,0.0,0.0,0.0,0.0,0.0,0.0,0.0,0.0,0.0,0.0,0.0,0.0,0.0,0.0,0.0,0.0,0.0,0.0,0.0,0.0,0.0,0.0,0.0,0.0,0.0,0.0,0.0,0.0,0.0,0.0,0.0,0.0,0.0,0.0,0.0,0.0,0.0,0.0,0.0,0.0,0.0,0.0,0.0,0.0,0.0,0.0,0.0,0.0,0.0,0.0,0.0,0.0,0.0,0.0,0.0,0.0,0.0,0.0,0.0,0.0,0.0,0.0,0.0,0.0,0.0,0.0,0.0,0.0,0.0,0.0,0.0,0.0,0.0,0.0,0.0,0.0,0.0,0.0,0.0,0.0,0.0,0.0,0.0,0.0,0.0,0.0,0.0,0.0,7.5545,7.9464,8.0634,7.8883,7.7451,7.4689,0.0,0.0,0.0,0.0,0.0,0.0,0.0,0.0,0.0,0.0,0.0,0.0,0.0,0.0,0.0,0.0,0.0,0.0,0.0,0.0,0.0,0.0,0.0,0.0,0.0,0.0,0.0,0.0,0.0,0.0,0.0,0.0,0.0,0.0,0.0,0.0,0.0,0.0,0.0,0.0,0.0,0.0,0.0,0.0,0.0,0.0,0.0,0.0,0.0,0.0,0.0,0.0,0.0,0.0,0.0,0.0,0.0,0.0,0.0,0.0,0.0,0.0,0.0,0.0,0.0,0.0,0.0,0.0,0.0,0.0,0.0,0.0,0.0,0.0,0.0,0.0,0.0,0.0,0.0,0.0,0.0,0.0,0.0,0.0,0.0,0.0,0.0,0.0,0.0,0.0,0.0,0.0,0.0,0.0,0.0,0.0,0.0,0.0,0.0,0.0,0.0,0.0,0.0,0.0,0.0,0.0,0.0,0.0,7.1955,7.6364,8.145,8.3654,8.2847,8.0277,7.6729,0.0,0.0,0.0,0.0,0.0,0.0,0.0,0.0,0.0,0.0,0.0,0.0,0.0,0.0,0.0,0.0,0.0,0.0,0.0,0.0,0.0,0.0,0.0,0.0,0.0,0.0,0.0,0.0,0.0,0.0,0.0,0.0,0.0,0.0,0.0,0.0,0.0,0.0,0.0,0.0,0.0,0.0,0.0,0.0,0.0,0.0,0.0,0.0,0.0,0.0,0.0,0.0,0.0,0.0,0.0,0.0,0.0,0.0,0.0,0.0,0.0,0.0,0.0,0.0,0.0,0.0,0.0,0.0,0.0,0.0,0.0,0.0,0.0,0.0,0.0,0.0,0.0,0.0,0.0,0.0,0.0,0.0,0.0,0.0,0.0,0.0,0.0,0.0,0.0,0.0,0.0,0.0,0.0,0.0,0.0,0.0,0.0,0.0,0.0,0.0,0.0,0.0,0.0,0.0,0.0,0.0,0.0,0.0,7.294,7.6949,8.2461,8.5953,8.6896,8.3368,7.9077,0.0,0.0,0.0,0.0,0.0,0.0,0.0,0.0,0.0,0.0,0.0,0.0,0.0,0.0,0.0,0.0,0.0,0.0,0.0,0.0,0.0,0.0,0.0,0.0,0.0,0.0,0.0,0.0,0.0,0.0,0.0,0.0,0.0,0.0,0.0,0.0,0.0,0.0,0.0,0.0,0.0,0.0,0.0,0.0,0.0,0.0,0.0,0.0,0.0,0.0,0.0,0.0,0.0,0.0,0.0,0.0,0.0,0.0,0.0,0.0,0.0,0.0,0.0,0.0,0.0,0.0,0.0,0.0,0.0,0.0,0.0,0.0,0.0,0.0,0.0,0.0,0.0,0.0,0.0,0.0,0.0,0.0,0.0,0.0,0.0,0.0,0.0,0.0,0.0,0.0,0.0,0.0,0.0,0.0,0.0,0.0,0.0,0.0,0.0,0.0,0.0,0.0,0.0,0.0,0.0,0.0,0.0,0.0,7.3411,7.6795,8.2428,8.6082,8.7543,8.5112,8.1791,0.0,0.0,0.0,0.0,0.0,0.0,0.0,0.0,0.0,0.0,0.0,0.0,0.0,0.0,0.0,0.0,0.0,0.0,0.0,0.0,0.0,0.0,0.0,0.0,0.0,0.0,0.0,0.0,0.0,0.0,0.0,0.0,0.0,0.0,0.0,0.0,0.0,0.0,0.0,0.0,0.0,0.0,0.0,0.0,0.0,0.0,0.0,0.0,6.6914,0.0,0.0,0.0,0.0,0.0,0.0,0.0,0.0,0.0,0.0,0.0,0.0,0.0,0.0,0.0,0.0,0.0,0.0,0.0,0.0,0.0,0.0,0.0,0.0,0.0,0.0,0.0,0.0,0.0,0.0,0.0,0.0,0.0,0.0,0.0,0.0,0.0,0.0,0.0,0.0,0.0,0.0,0.0,0.0,0.0,0.0,0.0,0.0,0.0,0.0,0.0,0.0,0.0,0.0,0.0,0.0,0.0,0.0,0.0,7.4721,7.8999,8.302,8.6181,8.8057,8.7341,8.4474,0.0,0.0,0.0,0.0,0.0,0.0,0.0,0.0,0.0,0.0,0.0,0.0,0.0,0.0,0.0,0.0,0.0,0.0,0.0,0.0,0.0,0.0,0.0,0.0,0.0,0.0,0.0,0.0,0.0,0.0,0.0,0.0,0.0,0.0,0.0,0.0,0.0,0.0,0.0,0.0,0.0,0.0,0.0,0.0,0.0,0.0,0.0,0.0,0.0,0.0,0.0,0.0,0.0,0.0,0.0,0.0,0.0,0.0,0.0,0.0,0.0,0.0,0.0,0.0,0.0,0.0,0.0,0.0,0.0,0.0,0.0,0.0,0.0,0.0,0.0,0.0,0.0,0.0,0.0,0.0,0.0,0.0,0.0,0.0,0.0,0.0,0.0,0.0,0.0,0.0,0.0,0.0,0.0,0.0,0.0,0.0,0.0,0.0,0.0,0.0,0.0,0.0,0.0,0.0,0.0,0.0,0.0,7.2343,7.6232,8.1505,8.397,8.6347,8.8779,8.9018,8.6493,8.0776,0.0,0.0,0.0,0.0,0.0,0.0,0.0,0.0,0.0,0.0,0.0,0.0,0.0,0.0,0.0,0.0,0.0,0.0,0.0,0.0,0.0,0.0,0.0,0.0,0.0,0.0,0.0,0.0,0.0,0.0,0.0,0.0,0.0,0.0,0.0,0.0,0.0,0.0,6.0385,6.3125,0.0,0.0,0.0,0.0,0.0,0.0,0.0,0.0,6.7049,0.0,0.0,0.0,0.0,0.0,0.0,0.0,0.0,0.0,0.0,0.0,0.0,0.0,0.0,0.0,0.0,0.0,0.0,0.0,0.0,0.0,0.0,0.0,0.0,0.0,0.0,0.0,0.0,0.0,0.0,0.0,0.0,0.0,0.0,0.0,0.0,0.0,0.0,0.0,0.0,0.0,0.0,0.0,0.0,0.0,0.0,0.0,0.0,0.0,0.0,0.0,0.0,0.0,0.0,0.0,0.0,7.156,7.4369,7.7672,8.1378,8.4657,8.7148,8.8787,8.8433,8.5988,8.123,0.0,0.0,0.0,0.0,0.0,0.0,0.0,0.0,0.0,0.0,0.0,0.0,0.0,0.0,0.0,0.0,0.0,0.0,0.0,0.0,0.0,0.0,0.0,0.0,0.0,0.0,0.0,0.0,0.0,0.0,0.0,0.0,0.0,0.0,0.0,0.0,0.0,0.0,0.0,6.4986,6.6711,0.0,0.0,0.0,0.0,0.0,0.0,0.0,0.0,6.7996,0.0,0.0,0.0,0.0,0.0,0.0,0.0,0.0,0.0,0.0,0.0,0.0,0.0,0.0,0.0,0.0,0.0,0.0,0.0,0.0,0.0,0.0,0.0,0.0,0.0,0.0,0.0,0.0,0.0,0.0,0.0,0.0,0.0,0.0,0.0,0.0,0.0,0.0,0.0,0.0,0.0,0.0,0.0,0.0,0.0,0.0,0.0,0.0,0.0,0.0,0.0,0.0,0.0,0.0,0.0,7.3325,7.6298,7.9741,8.3852,8.5657,8.7125,8.8209,8.7742,8.5145,0.0,0.0,0.0,0.0,0.0,0.0,0.0,0.0,0.0,0.0,0.0,0.0,0.0,0.0,0.0,0.0,0.0,0.0,0.0,0.0,0.0,0.0,0.0,0.0,0.0,0.0,0.0,0.0,0.0,0.0,0.0,0.0,0.0,0.0,0.0,0.0,0.0,0.0,0.0,0.0,6.6677,6.8977,7.0094,0.0,0.0,0.0,0.0,0.0,0.0,6.8504,6.8538,0.0,0.0,0.0,0.0,0.0,0.0,0.0,0.0,0.0,0.0,0.0,0.0,0.0,0.0,0.0,0.0,0.0,0.0,0.0,0.0,0.0,0.0,0.0,0.0,0.0,0.0,0.0,0.0,0.0,0.0,0.0,0.0,0.0,0.0,0.0,0.0,0.0,0.0,0.0,0.0,0.0,0.0,0.0,0.0,0.0,0.0,0.0,0.0,0.0,0.0,0.0,0.0,0.0,0.0,0.0,7.4445,7.7538,8.1454,8.6014,8.667,8.7141,8.7684,8.6646,8.3605,0.0,0.0,0.0,0.0,0.0,0.0,0.0,0.0,0.0,0.0,0.0,0.0,0.0,0.0,0.0,0.0,0.0,0.0,0.0,0.0,0.0,0.0,0.0,0.0,0.0,0.0,0.0,0.0,0.0,0.0,0.0,0.0,0.0,0.0,0.0,0.0,0.0,0.0,0.0,0.0,0.0,7.1075,7.28,7.2428,0.0,0.0,0.0,0.0,6.8605,6.9755,0.0,0.0,0.0,0.0,0.0,0.0,0.0,0.0,0.0,0.0,0.0,0.0,0.0,0.0,0.0,0.0,0.0,0.0,0.0,0.0,0.0,0.0,0.0,0.0,0.0,0.0,0.0,0.0,0.0,0.0,0.0,0.0,0.0,0.0,0.0,0.0,0.0,0.0,0.0,0.0,0.0,0.0,0.0,0.0,0.0,0.0,0.0,0.0,0.0,0.0,0.0,0.0,0.0,0.0,0.0,0.0,7.378,7.7694,8.1696,8.572,8.7296,8.8065,8.8102,8.4479,8.0728,0.0,0.0,0.0,0.0,0.0,0.0,0.0,0.0,0.0,0.0,0.0,0.0,0.0,0.0,0.0,0.0,0.0,0.0,0.0,0.0,0.0,0.0,0.0,0.0,0.0,0.0,0.0,0.0,0.0,0.0,0.0,0.0,0.0,0.0,0.0,0.0,0.0,0.0,0.0,0.0,0.0,7.2191,7.4931,7.4695,7.3713,0.0,0.0,7.2394,7.1109,7.3781,0.0,0.0,0.0,0.0,0.0,0.0,0.0,0.0,0.0,0.0,0.0,0.0,0.0,0.0,0.0,0.0,0.0,0.0,0.0,0.0,0.0,0.0,0.0,0.0,0.0,0.0,0.0,0.0,0.0,0.0,0.0,0.0,0.0,0.0,0.0,0.0,0.0,0.0,0.0,0.0,0.0,0.0,0.0,0.0,0.0,0.0,0.0,0.0,0.0,0.0,0.0,0.0,0.0,0.0,0.0,6.9779,7.3707,7.8589,8.2627,8.5673,8.6481,8.7068,8.7509,8.3551,8.0011,0.0,0.0,0.0,0.0,0.0,0.0,0.0,0.0,0.0,0.0,0.0,0.0,0.0,0.0,0.0,0.0,0.0,0.0,0.0,0.0,0.0,0.0,0.0,0.0,0.0,0.0,0.0,0.0,0.0,0.0,0.0,0.0,0.0,0.0,0.0,0.0,0.0,0.0,0.0,0.0,0.0,0.0,7.6048,7.6826,0.0,0.0,0.0,7.4762,7.2834,0.0,0.0,0.0,0.0,0.0,0.0,0.0,0.0,0.0,0.0,0.0,0.0,0.0,0.0,0.0,0.0,0.0,0.0,0.0,0.0,0.0,0.0,0.0,0.0,0.0,0.0,0.0,0.0,0.0,0.0,0.0,0.0,0.0,0.0,0.0,0.0,0.0,0.0,0.0,0.0,0.0,0.0,0.0,0.0,0.0,0.0,0.0,0.0,0.0,0.0,0.0,0.0,0.0,0.0,0.0,0.0,0.0,7.3413,7.8809,8.2847,8.538,8.5894,8.6371,8.6921,8.3104,0.0,0.0,0.0,0.0,0.0,0.0,0.0,0.0,0.0,0.0,0.0,0.0,0.0,0.0,0.0,0.0,0.0,0.0,0.0,0.0,0.0,0.0,0.0,0.0,0.0,0.0,0.0,5.4059,0.0,0.0,0.0,0.0,0.0,0.0,0.0,0.0,0.0,0.0,0.0,0.0,0.0,0.0,7.4458,7.7096,7.872,7.9329,0.0,0.0,7.6927,7.4695,7.5439,7.5134,0.0,0.0,0.0,0.0,0.0,0.0,0.0,0.0,0.0,0.0,0.0,0.0,0.0,0.0,0.0,0.0,0.0,0.0,0.0,0.0,0.0,0.0,0.0,0.0,0.0,0.0,0.0,0.0,0.0,0.0,0.0,0.0,0.0,0.0,0.0,0.0,0.0,0.0,0.0,0.0,0.0,0.0,0.0,0.0,0.0,0.0,0.0,0.0,0.0,0.0,0.0,0.0,0.0,0.0,0.0,7.2569,7.7451,8.1525,8.4572,8.6151,8.6958,8.6958,8.3141,7.9443,0.0,0.0,0.0,0.0,0.0,0.0,0.0,0.0,0.0,0.0,0.0,0.0,0.0,0.0,0.0,0.0,0.0,0.0,0.0,0.0,0.0,0.0,0.0,0.0,0.0,0.0,0.0,0.0,0.0,0.0,0.0,0.0,0.0,0.0,0.0,0.0,0.0,0.0,0.0,0.0,0.0,7.483,7.845,8.0209,8.1325,0.0,0.0,7.9228,7.6995,7.8991,7.8686,7.236,0.0,0.0,0.0,0.0,0.0,0.0,0.0,0.0,0.0,0.0,0.0,0.0,0.0,0.0,0.0,0.0,0.0,0.0,0.0,0.0,0.0,0.0,0.0,0.0,0.0,0.0,0.0,0.0,0.0,0.0,0.0,0.0,0.0,0.0,0.0,0.0,0.0,0.0,0.0,0.0,0.0,0.0,0.0,0.0,0.0,0.0,0.0,0.0,0.0,0.0,0.0,0.0,0.0,6.8164,7.2459,7.7818,8.1856,8.4499,8.5673,8.6518,8.6995,8.3581,8.0461,0.0,0.0,0.0,0.0,0.0,0.0,0.0,0.0,0.0,0.0,0.0,0.0,0.0,0.0,0.0,0.0,0.0,0.0,0.0,0.0,0.0,0.0,0.0,0.0,0.0,0.0,0.0,0.0,5.6528,5.6867,5.6427,0.0,0.0,0.0,0.0,0.0,0.0,0.0,0.0,0.0,0.0,7.5371,7.8653,8.0378,0.0,0.0,8.0175,7.9092,7.7773,7.7705,7.669,7.3206,7.1142,0.0,0.0,0.0,0.0,0.0,0.0,0.0,0.0,0.0,0.0,0.0,0.0,0.0,0.0,0.0,0.0,0.0,0.0,0.0,0.0,0.0,0.0,0.0,0.0,0.0,0.0,0.0,0.0,0.0,0.0,0.0,0.0,0.0,0.0,0.0,0.0,0.0,0.0,0.0,0.0,0.0,0.0,0.0,0.0,0.0,0.0,0.0,0.0,0.0,0.0,0.0,0.0,6.8495,7.2459,7.7635,8.1709,8.4535,8.538,8.6187,8.6885,8.4352,8.1672,0.0,0.0,0.0,0.0,0.0,0.0,0.0,0.0,0.0,0.0,0.0,0.0,0.0,0.0,0.0,0.0,0.0,0.0,0.0,0.0,0.0,0.0,0.0,0.0,0.0,0.0,0.0,0.0,5.7273,5.7611,5.6867,0.0,0.0,0.0,0.0,0.0,0.0,0.0,0.0,0.0,0.0,7.5709,7.8686,8.0006,8.0615,8.0547,7.9532,7.8585,7.8077,7.6893,7.5473,7.3747,0.0,0.0,0.0,0.0,0.0,0.0,0.0,0.0,0.0,0.0,0.0,0.0,0.0,0.0,0.0,0.0,0.0,0.0,0.0,0.0,0.0,0.0,0.0,0.0,0.0,0.0,0.0,0.0,0.0,0.0,6.0529,0.0,0.0,0.0,0.0,0.0,0.0,0.0,0.0,0.0,0.0,0.0,0.0,0.0,0.0,0.0,0.0,0.0,0.0,0.0,0.0,0.0,0.0,6.8495,7.2496,7.6607,8.0571,8.4425,8.538,8.6187,8.6921,8.5416,8.303,7.98,0.0,0.0,0.0,0.0,0.0,0.0,0.0,0.0,0.0,0.0,0.0,0.0,0.0,0.0,0.0,0.0,0.0,0.0,0.0,0.0,0.0,0.0,0.0,0.0,0.0,0.0,5.7915,5.7881,5.7611,0.0,0.0,0.0,0.0,0.0,0.0,0.0,0.0,0.0,0.0,7.2293,7.5709,7.8653,7.9126,7.9701,8.0987,7.9397,7.801,7.801,7.7367,7.6082,0.0,0.0,0.0,0.0,0.0,0.0,0.0,0.0,0.0,0.0,0.0,0.0,0.0,0.0,0.0,0.0,0.0,0.0,0.0,0.0,0.0,0.0,0.0,0.0,0.0,0.0,0.0,7.0697,6.9596,0.0,0.0,0.0,0.0,0.0,0.0,0.0,0.0,0.0,0.0,0.0,6.641,6.6399,0.0,0.0,0.0,0.0,0.0,0.0,0.0,0.0,0.0,0.0,0.0,0.0,6.8495,7.2459,7.6533,8.0021,8.292,8.4829,8.593,8.6187,8.5673,8.3398,7.9103,0.0,0.0,0.0,0.0,0.0,0.0,0.0,0.0,0.0,0.0,0.0,0.0,0.0,0.0,0.0,0.0,0.0,0.0,0.0,0.0,0.0,0.0,0.0,0.0,0.0,5.9641,0.0,0.0,0.0,0.0,0.0,0.0,0.0,0.0,0.0,0.0,0.0,6.6711,7.1413,7.3916,7.6082,7.8111,7.8788,7.9295,0.0,0.0,0.0,0.0,0.0,0.0,0.0,0.0,0.0,0.0,0.0,0.0,0.0,0.0,7.351,7.006,6.9011,6.8335,6.7083,0.0,0.0,0.0,0.0,0.0,0.0,0.0,0.0,0.0,0.0,0.0,0.0,0.0,0.0,0.0,0.0,7.0881,0.0,0.0,0.0,0.0,0.0,0.0,0.0,0.0,6.9529,6.9823,6.8887,6.8293,6.7487,0.0,6.4804,6.3442,0.0,0.0,0.0,0.0,0.0,0.0,0.0,0.0,6.9045,7.2841,7.668,7.991,8.2517,8.4168,8.5233,8.5747,8.5527,8.3508,7.958,7.5996,7.2504,0.0,0.0,0.0,0.0,0.0,0.0,0.0,0.0,0.0,0.0,0.0,0.0,0.0,0.0,0.0,0.0,0.0,0.0,0.0,0.0,0.0,0.0,0.0,6.008,0.0,0.0,0.0,0.0,0.0,0.0,0.0,0.0,0.0,6.5392,6.7151,6.9857,7.3747,7.5303,7.6657,7.8179,0.0,0.0,0.0,0.0,0.0,0.0,0.0,7.8348,7.8077,7.8483,7.8991,7.9464,8.0107,8.0682,8.0987,0.0,0.0,7.4153,7.3037,7.2394,7.0906,7.1413,7.2022,7.1785,7.2326,7.2563,0.0,0.0,0.0,0.0,0.0,0.0,0.0,0.0,7.7524,7.668,0.0,7.3487,0.0,0.0,0.0,0.0,0.0,6.7907,0.0,0.0,7.2391,7.2541,7.0837,7.0008,6.9129,6.8234,6.6255,6.5867,6.6837,6.32,0.0,0.0,0.0,0.0,0.0,0.0,7.0172,7.347,7.6913,8.0167,8.3141,8.3398,8.4205,8.571,8.5086,8.3618,8.1232,7.8809,7.5922,7.2688,6.9836,0.0,0.0,0.0,0.0,0.0,0.0,0.0,0.0,0.0,0.0,0.0,0.0,0.0,0.0,0.0,0.0,0.0,0.0,0.0,0.0,5.9742,0.0,0.0,0.0,0.0,0.0,0.0,0.0,0.0,0.0,0.0,6.732,7.0804,7.4052,7.5574,0.0,0.0,0.0,0.0,7.7266,7.801,7.872,7.8991,7.8314,7.9938,8.1054,8.0378,0.0,0.0,8.2543,8.1968,8.2205,8.4268,8.3998,8.2205,7.7976,7.6555,7.5506,7.4086,7.4897,7.5506,7.5033,7.5371,7.5439,8.115,0.0,0.0,0.0,0.0,7.9396,8.0608,8.1672,8.1672,8.1085,7.9984,7.7818,0.0,0.0,0.0,0.0,0.0,0.0,7.1815,7.2536,7.4266,7.4046,7.2231,7.2545,7.1832,7.0385,6.8777,6.852,6.9481,6.7444,6.5675,6.4327,0.0,0.0,0.0,0.0,7.1126,7.3579,7.7395,8.0167,8.1672,8.281,8.4168,8.5747,8.6151,8.571,8.4462,8.2076,7.9837,7.7683,7.347,0.0,0.0,0.0,0.0,0.0,0.0,0.0,0.0,0.0,0.0,0.0,0.0,0.0,0.0,0.0,0.0,0.0,0.0,0.0,6.1231,6.1603,6.1941,0.0,0.0,0.0,0.0,0.0,0.0,0.0,0.0,0.0,7.3781,7.368,7.4458,0.0,0.0,7.7841,7.8247,7.8855,7.9329,7.9532,8.0648,0.0,0.0,8.1697,8.2035,8.1799,8.3016,8.4336,8.5452,8.5452,8.552,8.6163,8.5621,8.4505,8.2847,8.1359,8.0006,7.872,7.8653,7.8855,7.8686,7.8788,7.8619,8.5598,8.3548,8.2391,8.1856,8.1782,8.2553,8.3654,8.4866,8.5196,8.4866,8.4022,8.2223,7.9653,7.646,7.3707,0.0,0.0,0.0,7.4358,7.4415,7.5226,7.4593,7.2832,7.2811,7.2327,7.1278,7.0856,7.105,7.1967,7.1515,7.0481,6.8939,0.0,0.0,6.7185,7.008,7.2604,7.4849,7.8398,8.0828,8.1929,8.3214,8.4205,8.4829,8.593,8.5976,8.4678,8.4003,8.2568,8.0156,7.6956,7.3276,0.0,0.0,0.0,0.0,0.0,0.0,0.0,0.0,0.0,0.0,0.0,5.8829,0.0,0.0,0.0,0.0,5.9742,6.1028,6.2685,6.3362,0.0,0.0,0.0,0.0,0.0,0.0,0.0,7.2529,7.4525,7.6454,7.8348,7.7198,7.6927,7.9025,7.9058,7.8957,7.9261,0.0,8.0615,8.0648,8.19,8.2746,8.2475,8.3186,8.3761,8.3761,8.4742,8.5655,8.6264,8.6467,8.667,8.7076,8.6501,8.5723,8.5587,8.4336,8.2712,8.1021,8.0851,8.0919,8.0344,8.0412,8.0344,8.8596,8.7241,8.4897,8.4321,8.5049,8.5783,8.6554,8.7325,8.8023,8.7839,8.7068,8.6187,8.4022,8.0828,7.7855,0.0,7.7488,7.7524,7.6874,7.5865,7.5683,7.4651,7.2838,7.1947,7.1447,7.1379,7.2432,7.3344,7.3926,7.4894,7.5046,7.4153,7.0539,6.8889,6.9442,7.2122,7.4653,7.6985,7.9871,8.2039,8.3361,8.4132,8.4132,8.3361,8.4792,8.471,8.2899,8.4423,8.3803,8.0514,7.9662,7.6783,7.132,0.0,0.0,0.0,0.0,0.0,0.0,0.0,0.0,0.0,0.0,0.0,0.0,0.0,0.0,0.0,6.1637,0.0,6.3869,6.5222,0.0,0.0,0.0,6.891,7.0364,7.2394,7.4559,7.6826,0.0,0.0,8.1257,8.0716,8.0513,8.1359,8.0716,8.0479,8.119,8.1224,8.1325,8.146,8.2611,8.3253,8.2881,8.4234,8.5418,8.5554,8.6366,8.6501,8.6163,8.5858,8.6399,8.7685,8.6771,8.596,8.6704,8.5554,8.4031,8.19,8.1866,8.1832,8.0682,8.0716,8.0682,8.7484,8.6732,8.7285,8.7812,8.8316,8.85,8.9014,8.9711,8.9307,8.8683,8.7839,8.6407,8.4022,8.0975,8.0204,7.9617,7.9213,7.9176,7.8182,7.6427,7.6376,7.53,7.3356,7.3118,7.2665,7.2248,7.3189,7.352,7.3364,7.4941,7.5191,7.4212,7.3857,7.2992,7.1862,7.5996,7.8543,7.9451,8.2865,8.4242,8.3434,8.3581,8.3324,8.2517,8.3434,8.3103,8.1273,8.1599,8.0802,7.8645,7.7883,7.5721,7.173,6.9328,0.0,0.0,0.0,0.0,0.0,0.0,0.0,0.0,0.0,5.9844,5.9844,0.0,6.1603,0.0,6.2888,6.5087,6.7523,6.8571,0.0,0.0,7.1616,7.2529,7.3443,7.4525,7.6048,7.8314,7.8889,8.0073,8.2644,8.1359,8.0885,8.2644,8.1359,8.0445,8.1156,8.1291,8.1697,8.2712,8.3253,8.3659,8.4031,8.4505,8.5114,8.5689,8.596,8.6366,8.7279,8.6535,8.6264,8.7583,8.6805,8.596,8.6027,8.5723,8.4911,8.3321,8.2238,8.146,8.1088,8.075,8.0378,8.7696,8.7061,8.8083,8.8942,8.9709,8.9862,9.0408,9.1069,9.0298,8.9711,8.916,8.7582,8.5673,8.3691,8.292,8.237,8.1929,8.1562,7.9856,7.722,7.7575,7.6182,7.3569,7.3477,7.3274,7.2959,7.4426,7.4967,7.4811,7.6653,7.7248,7.6695,7.6854,7.6631,7.5926,7.8013,7.955,8.0505,8.3426,8.4275,8.2957,8.2847,8.2231,8.1029,8.1593,8.1087,7.9454,7.9963,7.937,7.7611,7.7504,7.5906,7.2295,7.031,6.7338,0.0,0.0,0.0,0.0,0.0,0.0,0.0,0.0,0.0,0.0,0.0,6.4275,0.0,6.6677,6.8673,7.1312,7.1921,7.2597,7.3747,7.4525,7.5303,7.6048,7.7333,7.8788,8.0378,8.1156,8.2171,8.3727,8.2644,8.1968,8.2915,8.1663,8.0953,8.1663,8.2035,8.2475,8.2949,8.3558,8.4133,8.4573,8.4606,8.4776,8.5182,8.5554,8.5993,8.6399,8.5824,8.5554,8.623,8.5554,8.4911,8.5182,8.4979,8.4437,8.3625,8.2306,8.1528,8.1697,8.0953,8.0276,8.8051,8.7392,8.7854,8.8721,8.9677,9.0364,9.1107,9.173,9.0849,9.0408,9.0225,8.872,8.7655,8.6921,8.5453,8.4756,8.4682,8.3911,8.1741,7.8591,7.8895,7.7363,7.416,7.4009,7.3908,7.3946,7.5999,7.6937,7.6701,7.8795,7.97,7.9544,7.8985,7.9175,7.988,7.8989,7.9678,8.1748,8.3558,8.3738,8.2553,8.2186,8.124,7.9617,7.9688,7.8999,7.7504,7.8526,7.8204,7.6391,7.7178,7.6128,7.2649,7.118,6.8772,0.0,6.3205,0.0,0.0,0.0,0.0,0.0,0.0,0.0,0.0,6.4986,6.7455,7.0364,7.121,7.2496,7.4728,7.4999,7.5337,7.6082,7.6927,7.7671,7.828,8.0073,8.1528,8.2205,8.3389,8.4234,8.437,8.3828,8.3084,8.2644,8.1832,8.1528,8.2238,8.2746,8.2881,8.2543,8.3625,8.4268,8.4234,8.437,8.4471,8.4539,8.5215,8.552,8.5012,8.4877,8.4776,8.4674,8.437,8.4031,8.4336,8.393,8.3625,8.3355,8.2205,8.1494,8.1866,8.1122,8.0479,8.6831,8.6224,8.7289,8.7492,8.7281,8.9928,9.138,9.1693,9.0262,8.9271,8.861,8.7655,8.7178,8.6921,8.6004,8.5563,8.5527,8.4719,8.3548,8.195,7.9993,7.8622,7.7623,7.6658,7.6071,7.5862,7.8223,7.8562,7.6983,7.8873,7.934,7.8487,7.8182,7.86,7.9614,0.0,0.0,0.0,8.6866,8.5687,8.4168,8.2223,8.069,7.9507,7.8632,0.0,7.52,7.5407,7.467,7.2775,7.396,0.0,0.0,0.0,0.0,0.0,0.0,0.0,0.0,0.0,0.0,0.0,6.8368,6.7929,6.6237,6.803,7.0331,7.2597,7.3003,7.3984,7.6251,7.6995,7.7638,7.8416,7.9634,8.0276,7.9904,8.0682,8.1359,8.1494,8.1765,8.2408,8.349,8.3084,8.2813,8.3016,8.2103,8.1663,8.2272,8.2002,8.2103,8.305,8.3625,8.349,8.2915,8.3422,8.393,8.3862,8.4911,8.5587,8.5486,8.5418,8.5249,8.4708,8.5012,8.464,8.3253,8.3659,8.3964,8.2847,8.1934,8.1325,8.146,8.0818,8.0242,8.7008,0.0,8.6161,8.6265,0.0,8.7712,8.9221,9.0875,8.9825,8.8757,8.7582,8.7178,8.7031,8.6958,8.6151,8.5783,8.5783,8.538,8.4384,8.2971,8.2045,8.0682,7.9069,7.8534,7.8213,7.8013,7.8974,7.9423,7.9431,8.0071,8.0223,7.9901,7.928,7.9311,8.0086,8.0733,8.2901,8.6469,8.5842,8.4859,8.3471,8.1819,8.036,7.8958,0.0,0.0,0.0,0.0,0.0,0.0,0.0,0.0,0.0,0.0,0.0,7.0988,6.9203,6.8235,6.8642,6.8808,6.9383,7.0161,7.1887,7.1954,6.9755,7.0973,7.2766,7.4931,7.5506,7.6487,7.8314,7.8855,7.9228,7.9634,8.031,8.0445,7.9904,8.0648,8.1122,8.0953,8.1731,8.2577,8.2881,8.3016,8.2746,8.2441,8.1799,8.1325,8.1325,8.1325,8.1934,8.3693,8.3693,8.3524,8.3592,8.4133,8.4268,8.3862,8.4133,8.4573,8.464,8.4031,8.3524,8.349,8.3592,8.3287,8.3219,8.3592,8.3828,8.3118,8.2644,8.2238,8.19,8.0987,8.031,8.7837,8.6974,8.5621,8.5545,8.6398,8.5975,8.7452,9.0015,0.0,0.0,0.0,8.7146,8.6896,8.6355,8.6269,8.6045,8.576,8.5935,8.5148,8.37,8.4058,8.287,8.0544,8.0279,8.014,8.0089,7.9917,8.0447,8.1635,8.1636,8.1574,8.1415,8.0705,8.0384,8.0697,8.2266,8.3102,8.3191,8.3745,8.3301,8.1959,8.1351,8.0177,7.8336,7.8049,7.716,7.5549,7.5204,7.4718,7.4206,7.4207,7.449,7.5082,7.3912,7.3481,7.3855,7.2079,7.0973,7.1007,7.165,7.2225,7.2462,7.4864,7.5405,7.3341,7.3849,7.51,7.713,7.7841,7.872,8.0073,8.0209,8.0209,8.0209,8.031,8.0107,7.9532,8.0445,8.1021,8.0547,8.1832,8.2881,8.2306,8.2949,8.3084,8.2035,8.1866,8.1325,8.0716,8.1122,8.2137,8.3625,8.3795,8.3896,8.4336,8.4945,8.4979,8.3761,8.3524,8.3456,8.3152,8.2306,8.1765,8.2205,8.1765,8.2069,8.2881,8.3152,8.3287,8.3287,8.3287,8.3118,8.2509,8.146,8.0851,8.8977,8.7786,8.6941,8.6677,8.6967,8.7847,8.8873,8.997,8.9605,8.8363,8.667,8.7595,8.6534,8.4242,8.672,8.6975,8.5475,8.6388,8.6705,0.0,8.4899,8.3975,8.3559,8.2525,8.1815,8.1614,8.2737,8.254,8.1483,8.3111,8.2961,8.0982,8.0954,8.084,8.0501,8.2102,8.2637,8.206,8.3422,8.3043,8.0912,8.0947,8.0177,7.8446,7.8595,7.7665,7.5584,7.6222,7.5793,7.4037,7.4916,7.5263,7.4755,7.5127,7.5093,7.4492,7.4153,7.3984,7.3984,7.4695,7.5676,7.6961,7.8044,7.7976,7.6454,7.6927,7.7773,7.872,7.8923,7.9295,8.0073,8.0242,8.0242,8.0242,8.075,8.0818,8.0073,8.0716,8.0953,8.0276,8.0987,8.1629,8.1663,8.2611,8.3287,8.3152,8.2644,8.2543,8.1426,8.1765,8.2306,8.2813,8.3761,8.4133,8.4031,8.4302,8.4437,8.3659,8.349,8.3321,8.2813,8.2441,8.2069,8.1596,8.19,8.2103,8.1934,8.2137,8.2611,8.2746,8.278,8.2678,8.2543,8.2205,8.2103,9.0814,9.004,8.7811,8.7144,8.7524,8.7951,8.8042,8.8063,8.8088,8.7761,8.7155,8.6924,8.6143,8.4946,8.5795,8.6174,8.5928,8.5987,8.6428,8.6889,8.6135,8.5372,8.4737,8.4234,8.3875,8.3726,8.351,8.3448,8.3557,8.3289,8.2539,8.1541,8.0998,8.0569,8.0242,8.1047,8.1102,8.0384,8.2204,8.2535,8.1199,8.1308,8.1105,8.0442,8.0605,7.9897,7.8027,7.8412,7.8033,7.6713,7.7295,7.757,7.7638,7.7604,7.7232,7.6487,7.6454,7.6251,7.5879,7.6927,7.8213,7.9634,8.0073,8.0209,7.9938,7.9464,7.9329,7.9701,8.004,8.0581,8.1291,8.1021,8.0784,8.0784,8.075,8.0412,7.9837,8.0242,8.0412,7.987,8.0615,8.1291,8.1291,8.1866,8.2306,8.2272,8.2002,8.1426,8.0818,8.1325,8.2103,8.2881,8.3592,8.3998,8.4099,8.4742,8.4708,8.3727,8.349,8.3355,8.2983,8.2746,8.2306,8.2002,8.2205,8.2441,8.2374,8.2746,8.2949,8.305,8.3389,8.3456,8.3152,8.3016,8.2881,9.2303,9.1706,8.8742,8.755,8.7761,8.7571,8.7154,8.672,8.6497,8.6806,8.7143,8.6415,8.571,8.5084,8.5076,8.5536,8.5921,8.5664,8.6062,8.6962,8.7031,8.65,8.5695,8.555,8.5441,8.5296,8.4098,8.4245,8.517,8.352,8.2528,8.24,8.1262,8.0682,8.0716,8.0682,8.0344,7.9734,8.1113,8.1683,8.1363,8.1773,8.2069,8.2194,8.2553,8.1959,8.0445,8.0671,8.0421,7.946,7.9667,7.9972,8.0175,7.9837,7.9126,7.8179,7.8145,7.7976,7.7536,7.845,7.9735,8.1156,8.1426,8.1765,8.2238,8.1697,8.1021,8.0851,8.119,8.1765,8.2171,8.19,8.1528,8.1494,8.1054,8.0513,7.9837,8.0141,8.0175,7.9667,8.0378,8.1021,8.1054,8.119,8.1426,8.1528,8.0919,8.0479,8.0513,8.0851,8.1562,8.2611,8.3253,8.3693,8.4336,8.4776,8.464,8.3592,8.349,8.3355,8.3186,8.2813,8.2577,8.2441,8.2374,8.2678,8.3287,8.3456,8.3524,8.3693,8.4133,8.4336,8.3896,8.3355,8.2983,9.2488,9.1274,8.9624,8.8125,8.7042,8.6914,8.7157,8.7154,8.5652,8.548,8.642,8.6727,8.5321,8.336,8.5473,8.5976,8.4996,8.5885,8.6495,8.6892,8.7031,8.6925,8.6605,8.6053,8.572,8.5724,8.5541,8.5243,8.4908,8.479,8.4207,8.3091,8.2442,8.2103,8.2137,8.2137,8.1765,8.1088,8.0613,8.0303,8.0364,8.1896,8.2613,8.226,8.3618,8.3338,8.1249,8.2475,8.2237,8.0442,8.1325,8.1494,8.0445,8.075,8.0141,7.8179,7.8619,7.8957,7.8923,7.9025,7.9769,8.1122,8.19,8.234,8.2509,8.3524,8.3592,8.2577,8.2272,8.2408,8.2408,8.2374,8.2306,8.2306,8.2171,8.19,8.1224,8.1122,8.0919,8.0175,8.0378,8.0344,8.0581,8.0987,8.1494,8.1866,8.1359,8.0919,8.0919,8.0615,8.0615,8.1528,8.2543,8.3389,8.3659,8.3625,8.3795,8.3558,8.3524,8.3355,8.305,8.3118,8.3219,8.2712,8.2611,8.2915,8.3321,8.3524,8.3761,8.42,8.4471,8.4573,8.437,8.3456,8.2408,9.4301,9.3503,9.0833,8.8632,8.6974,8.6433,8.6079,8.5718,8.4954,8.489,8.5309,8.5543,8.4659,8.3189,8.4449,8.4682,8.4389,8.4351,8.4869,8.5534,8.5218,8.4967,8.5009,8.5405,8.57,8.621,8.6422,8.6371,8.5691,8.4011,8.2204,8.0789,8.0478,8.0682,8.1054,8.1122,8.0953,8.0648,8.0344,8.0521,8.1135,8.1469,8.2165,8.3157,8.3293,8.3216,8.2665,8.2612,8.199,8.0986,8.1426,8.146,8.0885,8.1122,8.0276,7.8247,7.828,7.8653,7.9092,7.9498,8.0378,8.1866,8.2238,8.2746,8.3659,8.4302,8.4336,8.3862,8.3727,8.3727,8.3659,8.3321,8.305,8.3016,8.2678,8.2306,8.2002,8.1934,8.1799,8.1528,8.1122,8.1021,8.1359,8.1359,8.1257,8.119,8.0818,8.0716,8.0615,8.0378,8.0344,8.0682,8.1562,8.2509,8.3186,8.349,8.3659,8.3998,8.4167,8.3896,8.3287,8.3659,8.393,8.3186,8.3321,8.3625,8.4099,8.4167,8.4302,8.4606,8.4539,8.4403,8.3524,8.2847,8.2002,9.4799,9.4172,9.1217,8.8734,8.6873,8.6095,8.5351,8.4674,8.4606,8.4606,8.4606,8.4606,8.42,8.3592,8.3693,8.4012,8.4281,8.3789,8.4158,8.4828,8.4258,8.3939,8.3989,8.4692,8.5657,8.6439,8.6901,8.6867,8.6172,8.353,8.1135,7.9964,7.9701,7.9972,8.0445,8.0479,8.0378,8.0209,8.0209,8.0641,8.1215,8.0863,8.1678,8.3593,8.2974,8.2708,8.335,8.244,8.1826,8.163,8.1596,8.1494,8.1291,8.1291,8.0378,7.8585,7.8314,7.8551,7.9092,7.9803,8.075,8.1934,8.2272,8.2949,8.4031,8.4505,8.4742,8.4877,8.4776,8.4573,8.4539,8.4133,8.3828,8.3761,8.3321,8.2983,8.2746,8.2712,8.2611,8.2408,8.1866,8.1765,8.2171,8.1934,8.1426,8.0784,8.0581,8.0378,8.0242,8.0209,8.0209,8.0209,8.0682,8.146,8.2644,8.3016,8.3456,8.3896,8.4099,8.42,8.3558,8.3964,8.4336,8.3558,8.4099,8.437,8.4437,8.4539,8.4539,8.4505,8.4196,8.3611,8.2744,8.2258,8.1387,9.3248,9.2266,9.0053,8.8294,8.6873,8.6095,8.5317,8.4606,8.4606,8.4606,8.4606,8.4606,8.42,8.3625,8.42,8.4797,8.5013,8.4938,8.5063,8.5463,8.4776,8.4597,8.4683,8.4683,8.5347,8.6405,8.7148,8.6684,8.506,8.3904,8.2705,8.1326,8.1021,8.1088,8.1122,8.1021,8.0818,8.0175,8.0073,8.0242,8.0242,8.0174,8.1207,8.3082,8.2807,8.2524,8.2848,8.2256,8.1998,8.2272,8.2205,8.1968,8.1359,8.1257,8.0513,7.9228,7.9025,7.9058,7.9228,7.9837,8.0648,8.1393,8.2171,8.278,8.3693,8.437,8.4979,8.5621,8.5148,8.4776,8.4776,8.4606,8.4471,8.4471,8.4505,8.4099,8.3524,8.3456,8.3118,8.2678,8.2441,8.2374,8.2408,8.2408,8.1968,8.146,8.1224,8.1054,8.0581,8.0344,8.0344,8.031,8.0412,8.0581,8.1325,8.2035,8.2441,8.2949,8.3693,8.4065,8.3659,8.3389,8.3625,8.3727,8.3592,8.3795,8.437,8.4539,8.4437,8.4027,8.2971,8.2281,8.1557,8.1437,8.0493,9.2556,9.0899,8.9613,8.826,8.6873,8.6095,8.5351,8.464,8.4606,8.4606,8.4606,8.4606,8.4471,8.4234,8.4505,8.4412,8.4182,8.4148,8.4147,8.4269,8.3581,8.3237,8.3334,8.3936,8.4796,8.5797,8.6664,8.6488,8.5181,8.3843,8.2864,8.1936,8.1021,8.0581,8.0513,8.0141,7.9735,7.9498,7.9058,7.8991,7.9464,7.9025,7.9415,8.0656,8.0415,8.0707,8.1563,8.0638,8.0403,8.0953,8.0987,8.0885,8.0581,8.0141,7.9701,7.9194,7.9126,7.9329,7.9803,8.0479,8.1426,8.2577,8.2949,8.3422,8.4167,8.4911,8.5486,8.5723,8.6061,8.6061,8.5858,8.5215,8.4606,8.4606,8.4606,8.4505,8.4302,8.42,8.4099,8.3828,8.3422,8.2949,8.2611,8.2441,8.2306,8.2069,8.2002,8.1866,8.1697,8.1629,8.1359,8.1088,8.1291,8.1528,8.119,8.146,8.1866,8.2509,8.305,8.2847,8.2543,8.3016,8.3321,8.2983,8.2847,8.3355,8.3998,8.3896,8.3862,8.3216,8.2195,8.1075,8.02,7.9749,7.8572,9.1609,9.0188,8.914,8.8158,8.7211,8.6196,8.5486,8.5012,8.4979,8.4843,8.4708,8.4877,8.4877,8.464,8.4606,8.437,8.3896,8.3862,8.3862,8.3795,8.3084,8.278,8.285,8.3565,8.4432,8.5325,8.6179,8.6179,8.5194,8.3781,8.2864,8.2376,8.1122,8.0547,8.0445,7.9803,7.9464,7.9363,7.8957,7.8991,7.9363,7.8957,7.8788,7.9058,7.9126,7.9556,8.0527,7.9654,7.9566,8.0344,8.0344,8.031,8.0479,8.0073,7.9701,7.9532,7.9701,7.9904,8.0276,8.1088,8.2069,8.305,8.3625,8.4099,8.464,8.5554,8.6163,8.6501,8.667,8.6974,8.6907,8.5892,8.5012,8.4945,8.4776,8.464,8.4606,8.4606,8.4606,8.4505,8.4167,8.3659,8.3253,8.3186,8.305,8.2813,8.2746,8.2712,8.2475,8.2171,8.19,8.1393,8.1325,8.1224,8.0953,8.0885,8.1257,8.1866,8.2509,8.2171,8.1832,8.2408,8.2678,8.2272,8.2475,8.3084,8.3321,8.3186,8.2847,8.2304,8.109,7.9815,7.8873,7.7769,7.6528,9.029,8.9951,8.8632,8.8057,8.7719,8.6535,8.5858,8.5723,8.5689,8.5283,8.4776,8.5317,8.5182,8.4742,8.4606,8.4606,8.4539,8.4505,8.4505,8.4437,8.3828,8.349,8.349,8.3595,8.425,8.5214,8.5701,8.5645,8.5174,8.3839,8.2977,8.2445,8.1832,8.1325,8.1257,8.0479,8.0107,7.9972,7.9803,7.9938,8.0175,7.9904,7.9532,7.9194,7.9126,7.9431,8.0174,7.9464,7.9769,8.0953,8.0615,8.0581,8.119,8.1224,8.0953,8.0513,8.0885,8.0919,8.0648,8.1765,8.2611,8.3186,8.3964,8.4776,8.5114,8.6129,8.7144,8.755,8.7414,8.7279,8.7685,8.667,8.5723,8.5689,8.508,8.464,8.4606,8.4606,8.4606,8.4606,8.4505,8.4606,8.4573,8.437,8.4099,8.3659,8.349,8.3287,8.2712,8.2171,8.1528,8.119,8.1088,8.0885,8.0547,8.0276,8.0682,8.1156,8.1799,8.1968,8.1224,8.1359,8.1832,8.1663,8.2205,8.2746,8.2374,8.2238,8.2069,8.1491,8.0027,7.8592,7.7593,7.639,7.498,9.0357,8.941,8.897,8.8429,8.7989,8.7482,8.6771,8.5824,8.579,8.5351,8.4776,8.4877,8.4843,8.4674,8.4606,8.4606,8.4606,8.4606,8.4606,8.4573,8.437,8.4268,8.4268,8.4268,8.4446,8.4796,8.4967,8.4933,8.4728,8.4284,8.4008,8.3761,8.3152,8.2272,8.1359,8.0581,8.0006,7.9431,7.8923,7.8923,7.9329,7.8991,7.8822,7.9092,7.9126,7.9464,8.0107,7.9498,7.9837,8.1224,8.1054,8.1291,8.19,8.2069,8.1934,8.1765,8.19,8.2543,8.3219,8.3625,8.437,8.5249,8.596,8.6163,8.6264,8.7076,8.7753,8.8057,8.8192,8.8531,8.8463,8.7414,8.6399,8.5824,8.508,8.4606,8.4606,8.4606,8.4606,8.4606,8.4606,8.4606,8.4606,8.4606,8.4505,8.4302,8.4234,8.3964,8.3321,8.2881,8.2306,8.1528,8.1122,8.0648,8.0344,8.0242,8.0479,8.0818,8.1291,8.1528,8.0818,8.075,8.1122,8.1596,8.2103,8.2137,8.1731,8.1359,8.1257,8.0196,7.8692,7.7413,7.6368,7.5037,7.3571,9.0594,8.9545,8.9512,8.9072,8.8361,8.8125,8.7482,8.6602,8.6298,8.5757,8.5148,8.508,8.4877,8.4674,8.4606,8.4606,8.4606,8.4606,8.4606,8.4606,8.4606,8.4742,8.5012,8.5046,8.4843,8.4573,8.4336,8.437,8.4606,8.437,8.4336,8.4437,8.3862,8.3084,8.2103,8.1393,8.075,8.031,7.9938,7.987,8.0141,7.987,7.9735,7.9904,7.9904,8.0006,8.0209,7.9972,8.0479,8.1562,8.2171,8.2644,8.2813,8.2813,8.2949,8.3152,8.3084,8.3456,8.4809,8.4979,8.5554,8.667,8.7144,8.7313,8.7448,8.7955,8.8361,8.8497,8.8767,8.9106,8.8869,8.7753,8.6771,8.6264,8.5249,8.4674,8.4606,8.4606,8.4606,8.4606,8.4606,8.4606,8.4606,8.4606,8.4606,8.4606,8.4606,8.4573,8.3998,8.3659,8.278,8.1968,8.1426,8.0919,8.031,8.0242,8.0344,8.0581,8.0851,8.0784,8.0378,8.0885,8.1325,8.19,8.2441,8.2441,8.2069,8.1156,8.0648,7.9036,7.8145,7.6573,7.5528,7.3787,7.2327,9.0966,9.0256,9.0222,8.9715,8.9004,8.8395,8.8023,8.782,8.7279,8.6535,8.596,8.5824,8.5486,8.4945,8.5012,8.5012,8.4776,8.4776,8.4809,8.4776,8.4742,8.4945,8.5587,8.5621,8.5351,8.4776,8.4167,8.4133,8.4573,8.4099,8.3896,8.4471,8.3998,8.3524,8.3186,8.2746,8.2306,8.2069,8.2171,8.2137,8.2205,8.2205,8.1934,8.1291,8.1257,8.0987,8.0513,8.0919,8.1629,8.2509,8.3659,8.4031,8.3693,8.3592,8.3998,8.4573,8.4031,8.464,8.5587,8.6027,8.6366,8.7177,8.7854,8.8057,8.8158,8.87,8.9072,8.897,8.9038,8.8959,8.8577,8.7642,8.6797,8.6316,8.5243,8.4708,8.4708,8.4674,8.4674,8.4742,8.4708,8.4606,8.4606,8.4606,8.4606,8.4606,8.4606,8.4539,8.4234,8.3727,8.3186,8.2475,8.1697,8.119,8.0615,8.0242,8.0378,8.0784,8.0987,8.0919,8.0851,8.1426,8.1697,8.2238,8.2509,8.2509,8.2238,8.1359,8.1054,8.0744,7.914,7.667,7.4999,7.375,7.2229,9.188,9.0256,9.0222,8.9782,8.9106,8.8869,8.8497,8.8023,8.782,8.7313,8.6738,8.6602,8.6501,8.6298,8.6264,8.6298,8.6095,8.5689,8.5486,8.5384,8.4843,8.508,8.5655,8.579,8.5689,8.5418,8.5182,8.4979,8.464,8.4437,8.4437,8.4606,8.4403,8.3998,8.3524,8.3321,8.2915,8.2475,8.2441,8.2475,8.2475,8.2475,8.234,8.2171,8.2103,8.1731,8.1156,8.1697,8.2441,8.3186,8.4099,8.4573,8.4336,8.4776,8.5182,8.5418,8.5824,8.6332,8.711,8.7347,8.7719,8.8463,8.897,8.9376,8.8869,8.9478,8.9579,8.9275,8.9072,8.8519,8.7561,8.6981,8.5917,8.3932,8.3975,8.4629,8.504,8.4979,8.4809,8.5283,8.4945,8.4674,8.4606,8.4606,8.4606,8.4606,8.4573,8.4471,8.4167,8.3896,8.3422,8.2577,8.1832,8.1426,8.0953,8.0479,8.0479,8.1021,8.1359,8.1629,8.1866,8.2475,8.2543,8.2644,8.2509,8.2475,8.2238,8.1663,8.1832,8.19,7.9826,7.741,7.6529,7.5337,7.3325,9.3098,9.1575,9.1271,9.0696,8.9985,8.9681,8.9309,8.8903,8.8564,8.8057,8.7482,8.7347,8.7211,8.6907,8.6907,8.6907,8.6805,8.6129,8.579,8.5621,8.4979,8.4911,8.5418,8.6061,8.6399,8.5824,8.6129,8.579,8.5249,8.5114,8.4945,8.4674,8.4606,8.4403,8.4065,8.3964,8.3795,8.3422,8.3321,8.3321,8.3355,8.3355,8.3118,8.2983,8.2847,8.2611,8.234,8.2644,8.3084,8.3558,8.4167,8.4606,8.4674,8.5351,8.5892,8.623,8.6704,8.7313,8.8158,8.8192,8.8361,8.8937,8.9545,8.9478,8.9207,8.9512,8.9478,8.9173,8.8317,8.7477,8.7094,8.6172,8.4257,8.2308,8.2395,8.3328,8.4233,8.4413,8.4736,8.5046,8.4945,8.4606,8.4606,8.4606,8.4606,8.4606,8.4606,8.4403,8.4167,8.3964,8.3375,8.2388,8.1615,8.1039,8.0464,7.989,8.0371,8.0979,8.2205,8.2408,8.2746,8.3321,8.3186,8.2983,8.2644,8.2441,8.2374,8.2238,8.2103,8.1476,7.98,7.8642,7.762,7.6463,7.4554,9.4417,9.3503,9.2827,9.2049,9.1203,9.0594,9.029,9.0154,8.9512,8.8869,8.8361,8.8158,8.782,8.7144,8.7414,8.7211,8.7177,8.6602,8.6129,8.5892,8.5486,8.5317,8.5418,8.6771,8.6974,8.6399,8.6771,8.6501,8.5993,8.5824,8.5418,8.4945,8.4742,8.4708,8.4708,8.4742,8.4776,8.4843,8.4674,8.4606,8.4539,8.4437,8.4099,8.3693,8.3389,8.349,8.3456,8.3524,8.3558,8.3795,8.4403,8.4776,8.4911,8.552,8.6298,8.6941,8.7279,8.7888,8.87,8.8497,8.8395,8.9004,8.9207,8.914,8.9173,8.9309,8.9376,8.9106,8.7045,8.7109,8.7183,8.5183,8.2737,8.1324,8.1046,8.106,8.1916,8.341,8.4494,8.4708,8.4708,8.4606,8.4606,8.4606,8.4606,8.4606,8.4606,8.4539,8.4403,8.4336,8.3281,8.1935,8.1172,8.0593,7.9878,7.9197,8.0027,8.0956,8.2701,8.3524,8.3558,8.3828,8.3693,8.3456,8.3084,8.3016,8.3152,8.2915,8.2509,8.2287,8.1426,7.997,7.8699,7.7245,7.5556,9.533,9.3571,9.3402,9.2522,9.1406,9.1135,9.1068,9.1,9.029,8.9918,8.9613,8.914,8.8801,8.8598,8.8564,8.8632,8.8395,8.7719,8.7245,8.6738,8.7177,8.6873,8.6569,8.711,8.7279,8.7347,8.7617,8.7347,8.6738,8.6095,8.5723,8.5486,8.4911,8.4945,8.5486,8.5486,8.5858,8.6196,8.5858,8.552,8.5384,8.4945,8.4606,8.4302,8.3828,8.3862,8.4133,8.3795,8.4099,8.4979,8.5452,8.5621,8.5824,8.6738,8.7448,8.7786,8.8294,8.8734,8.897,8.8937,8.8869,8.9072,8.9545,8.9715,8.9173,8.9647,8.9613,8.9241,8.8644,8.78,8.6888,8.3525,8.1602,8.0967,8.0232,7.9526,7.9669,8.1815,8.374,8.485,8.4838,8.4606,8.4606,8.4606,8.4606,8.4606,8.4606,8.4606,8.4606,8.4606,8.3473,8.1963,8.1058,8.0344,7.8892,7.8467,7.9375,8.0668,8.2522,8.3761,8.3828,8.4031,8.3761,8.3592,8.3456,8.3422,8.3152,8.3118,8.2611,8.2858,8.292,8.1665,8.021,7.8526,7.6577,9.6007,9.462,9.4248,9.3436,9.2421,9.1981,9.1812,9.1744,9.144,9.1034,9.0797,9.0594,9.029,8.9647,8.9579,8.9444,8.897,8.8328,8.7583,8.711,8.7313,8.7414,8.7516,8.7448,8.7685,8.8023,8.8361,8.7922,8.7042,8.6501,8.6163,8.5723,8.5012,8.5317,8.6061,8.5993,8.6163,8.667,8.6569,8.6298,8.6196,8.5587,8.4911,8.4674,8.4234,8.4268,8.4505,8.4674,8.5012,8.5757,8.6433,8.6839,8.6873,8.755,8.8091,8.8531,8.8801,8.9072,8.9072,8.9106,8.9072,8.9106,8.9782,8.9647,8.9478,8.9782,9.0019,8.9432,8.819,8.658,8.4161,8.2142,8.0238,7.9656,7.9189,7.8794,7.9437,8.0994,8.2505,8.3607,8.3621,8.396,8.4143,8.4143,8.45,8.4392,8.45,8.45,8.4606,8.45,8.3674,8.2465,8.1256,7.9968,7.8151,7.7764,7.8644,8.0101,8.1912,8.2773,8.3118,8.3389,8.3659,8.3355,8.2983,8.278,8.2577,8.2611,8.2847,8.3211,8.3188,8.2622,8.1508,7.9364,7.7244,9.6616,9.5905,9.5296,9.4586,9.3842,9.3131,9.2827,9.2793,9.2489,9.1947,9.1541,9.1981,9.0966,9.0357,8.9951,8.9647,8.9241,8.8564,8.7989,8.7888,8.7651,8.7854,8.8057,8.8158,8.8192,8.826,8.87,8.826,8.7414,8.6907,8.6433,8.579,8.5215,8.5587,8.6433,8.6501,8.667,8.7347,8.7211,8.7076,8.6941,8.6332,8.5621,8.5012,8.4606,8.4674,8.4945,8.5317,8.5858,8.6163,8.7313,8.8057,8.8463,8.8395,8.8463,8.9106,8.9207,8.9241,8.9106,8.9106,8.9106,8.9106,8.9613,8.9681,8.9376,8.9545,8.9782,8.9205,8.796,8.5319,8.1152,8.082,8.0037,7.8977,7.8347,7.8569,7.9558,8.0161,8.0835,8.1812,8.2247,8.256,8.293,8.3054,8.3674,8.4143,8.4285,8.4392,8.45,8.4494,8.3841,8.2293,8.0967,7.917,7.719,7.746,7.8173,7.9397,8.1223,8.1531,8.1979,8.2033,8.2156,8.2503,8.2306,8.2171,8.2103,8.2137,8.2577,8.3253,8.3245,8.2677,8.1558,8.0033,7.8107,9.7394,9.6683,9.6582,9.6074,9.533,9.462,9.4214,9.4112,9.2895,9.2387,9.2116,9.1102,9.0628,9.0154,8.9512,8.9545,8.9715,8.914,8.9004,8.914,8.8835,8.87,8.8734,8.8767,8.8801,8.8903,8.9038,8.8564,8.7786,8.7211,8.667,8.596,8.5689,8.6163,8.6805,8.7347,8.7719,8.8158,8.8091,8.7955,8.7685,8.711,8.6298,8.5554,8.5012,8.4979,8.5384,8.5723,8.6332,8.7482,8.7854,8.8937,8.9884,8.9918,8.9647,8.9512,8.9613,8.9545,8.9309,8.9106,8.9106,8.9106,8.9342,8.9376,8.9207,8.9241,8.9478,8.923,8.8834,8.7412,8.5514,8.3259,8.2182,8.0953,7.9315,7.8543,7.8489,7.8703,7.9254,8.0648,8.0827,8.1053,8.1511,8.1836,8.1968,8.2572,8.3054,8.3531,8.4035,8.4413,8.4497,8.2605,8.0438,7.83,7.6187,7.709,7.7982,7.8892,8.0001,7.9969,8.0175,8.0275,8.0508,8.1034,8.1555,8.1659,8.1626,8.1799,8.2069,8.2611,8.2712,8.2675,8.1484,8.0299,7.8665,9.7563,9.6886,9.6886,9.6244,9.5263,9.489,9.4485,9.3977,9.2928,9.2421,9.2116,9.1305,9.0763,9.0662,9.0459,9.029,8.9985,8.9444,8.9342,8.9478,8.9241,8.9106,8.9106,8.9106,8.9106,8.9072,8.9038,8.87,8.8057,8.7685,8.7008,8.6569,8.6366,8.6569,8.6974,8.7583,8.8158,8.8531,8.8835,8.8903,8.8531,8.782,8.6974,8.596,8.5452,8.5249,8.5148,8.5655,8.6264,8.7211,8.7786,8.8767,8.9782,9.056,9.0763,9.0594,9.0121,8.9748,8.9545,8.9376,8.9106,8.914,8.9376,8.9647,8.9647,8.9681,8.9478,8.923,8.8814,8.7819,8.5166,8.3898,8.1922,8.037,7.9363,7.8963,7.8759,7.8519,7.9098,7.9738,7.9557,7.989,8.0566,8.0674,8.0505,8.0885,8.1621,8.2458,8.331,8.4109,8.4655,8.2751,8.0256,7.7493,7.5649,7.6039,7.7123,7.8238,7.8696,7.8649,7.8384,7.8395,7.8985,7.9836,8.0242,8.0834,8.1423,8.1629,8.1832,8.1968,8.2238,8.2236,8.1552,8.0408,7.8835,9.7664,9.7123,9.7123,9.6345,9.5229,9.4992,9.4417,9.3571,9.2962,9.259,9.2353,9.1812,9.1508,9.144,9.1102,9.0696,9.0154,8.941,8.9241,8.9376,8.9173,8.9106,8.9106,8.9106,8.9106,8.9106,8.9072,8.87,8.8125,8.7922,8.755,8.711,8.6974,8.711,8.7347,8.7989,8.8125,8.8598,8.9241,8.9579,8.9072,8.8328,8.7414,8.6129,8.5858,8.5452,8.5182,8.5486,8.6163,8.6941,8.7617,8.8361,8.914,9.0188,9.1237,9.1711,9.0425,9.0087,9.0019,8.9512,8.9173,8.9444,8.9715,8.9884,8.9985,8.9884,9.0019,8.9589,8.9483,8.8504,8.6037,8.3567,8.1752,8.0406,7.9754,7.9208,7.9597,7.9567,7.9208,7.9213,7.8521,7.8565,7.9245,7.897,7.8592,7.9318,8.0027,8.1356,8.2296,8.3944,8.411,8.2538,8.0243,7.7014,7.5184,7.4501,7.5719,7.7073,7.7221,7.7182,7.6846,7.6423,7.7265,7.8046,7.9328,7.9931,8.074,8.146,8.1426,8.1562,8.19,8.1589,8.0622,8.0135,7.9101,9.7969,9.7867,9.7867,9.7394,9.6514,9.5838,9.4823,9.3639,9.3402,9.303,9.2421,9.2286,9.215,9.188,9.0831,9.0357,9.0019,8.9478,8.9342,8.9647,8.9309,8.9106,8.9106,8.9106,8.9106,8.9106,8.9106,8.8666,8.826,8.8125,8.7617,8.7177,8.755,8.7753,8.7482,8.8328,8.8937,8.897,8.914,8.9207,8.9004,8.8361,8.755,8.6738,8.6129,8.5655,8.5384,8.5554,8.6027,8.6771,8.755,8.8294,8.897,8.9173,9.0121,9.0932,9.1169,9.1034,9.0865,8.9951,8.941,8.9681,8.9613,8.9309,8.9579,9.0154,9.0594,9.1068,9.0823,8.9699,8.7529,8.5855,8.4321,8.2389,8.0689,8.0273,8.0285,7.9746,7.9477,7.9267,7.88,7.8026,7.7789,7.7183,7.6773,7.7508,7.8498,7.9841,8.1401,8.2922,8.3449,8.1883,8.0431,7.7457,7.483,7.4145,7.4526,7.5929,7.5963,7.5869,7.5554,7.5335,7.5146,7.6151,7.7528,7.9387,8.0668,8.1196,8.1016,8.1155,8.1387,8.0588,7.9396,7.9111,7.8814,9.7631,9.7969,9.7563,9.6954,9.621,9.5499,9.4586,9.3639,9.3098,9.2725,9.2353,9.1947,9.1778,9.1541,9.0628,9.0222,9.0053,8.941,8.9241,8.9512,8.9241,8.9106,8.9106,8.9106,8.9106,8.9106,8.9072,8.9004,8.8632,8.8463,8.8091,8.7279,8.7888,8.7786,8.7448,8.8395,8.8632,8.8666,8.8835,8.9072,8.8903,8.8361,8.7448,8.6366,8.596,8.5621,8.5249,8.5148,8.552,8.6163,8.6636,8.7313,8.826,8.8903,8.9613,9.0493,9.0662,9.0831,9.1068,9.0222,9.0053,8.9918,8.9647,8.9342,8.9782,9.0696,9.1034,9.0662,9.0662,8.9801,8.8217,8.6529,8.4635,8.2879,8.177,8.1001,8.0604,7.9686,7.9327,7.9178,7.9028,7.828,7.7382,7.6385,7.6181,7.6804,7.7385,7.8312,7.9995,8.189,8.1815,8.1149,7.9835,7.8121,7.5507,7.3809,7.387,7.4745,7.4768,7.475,7.4618,7.4456,7.4497,7.4905,7.6146,7.8194,8.0394,8.0851,8.0593,8.0755,8.0871,7.9703,7.8532,7.769,7.7146,9.7394,9.7664,9.692,9.6176,9.5499,9.4924,9.4146,9.3233,9.2692,9.2319,9.2015,9.1541,9.1237,9.0932,9.0459,9.0087,8.9884,8.9342,8.914,8.9106,8.9106,8.9106,8.9106,8.9106,8.9106,8.9106,8.9106,8.9038,8.9038,8.897,8.8463,8.7516,8.8497,8.8226,8.7583,8.8125,8.8869,8.8531,8.8632,8.8835,8.8937,8.8598,8.7482,8.6602,8.596,8.5621,8.4776,8.4674,8.5046,8.5351,8.6095,8.6873,8.7685,8.8598,8.9241,8.9918,9.0121,9.0493,9.0696,9.0425,9.0357,9.0256,9.0154,9.0121,9.0831,9.188,9.2184,9.1068,9.1034,8.9884,8.8143,8.7435,8.6195,8.4564,8.2889,8.1954,8.1153,8.0513,7.9896,7.9746,7.9507,7.8878,7.7801,7.6275,7.5905,7.6193,7.6486,7.6915,7.8753,8.0913,8.0923,8.0459,7.9795,7.8404,7.609,7.4256,7.4061,7.3881,7.4031,7.4121,7.4391,7.4466,7.454,7.5003,7.5348,7.6525,7.8416,7.9321,8.018,7.9885,7.9589,7.8844,7.788,7.6815,7.6035,9.7529,9.6886,9.6176,9.5466,9.4789,9.4721,9.3842,9.2624,9.2455,9.2015,9.1508,9.1271,9.0865,9.0425,9.0188,8.9782,8.9241,8.9106,8.9173,8.9173,8.9106,8.914,8.914,8.9106,8.9106,8.9106,8.9106,8.9106,8.9106,8.9072,8.9004,8.9004,8.897,8.8937,8.87,8.8666,8.9038,8.8734,8.8632,8.8564,8.8835,8.8734,8.8125,8.7076,8.667,8.6163,8.4742,8.464,8.4674,8.4911,8.5892,8.6636,8.7279,8.826,8.897,8.9376,8.9782,9.0087,9.0154,9.0324,9.056,9.0899,9.1102,9.1034,9.144,9.1981,9.2184,9.1778,9.1271,9.0939,8.9852,8.9061,8.7176,8.5501,8.3735,8.2789,8.2048,8.1506,8.1001,8.0524,7.9986,7.9387,7.8759,7.7352,7.6604,7.6864,7.6343,7.6635,7.8405,8.0301,8.0361,8.0161,7.9576,7.8308,7.6486,7.5407,7.4749,7.448,7.448,7.4599,7.4826,7.4736,7.4692,7.4827,7.5092,7.5824,7.6258,7.7088,7.7786,7.8363,7.8235,7.7493,7.6518,7.5306,7.493,9.648,9.6108,9.4924,9.4552,9.4654,9.3706,9.2962,9.2387,9.1947,9.1609,9.1237,9.0831,9.0493,9.0154,8.9715,8.9681,8.9748,8.9782,8.9748,8.9782,8.9782,8.9512,8.9309,8.9106,8.9106,8.9106,8.9106,8.9106,8.9106,8.9106,8.9106,8.9072,8.9106,8.8734,8.8666,8.8869,8.9038,8.9038,8.8767,8.87,8.8294,8.8395,8.7922,8.7042,8.6332,8.6027,8.5351,8.4843,8.4708,8.4911,8.5757,8.6332,8.6873,8.7888,8.8564,8.897,8.941,8.9579,8.9782,8.9918,9.0154,9.0053,9.0628,9.1338,9.1474,9.1169,9.1068,9.0899,9.0649,9.0149,8.8276,8.7348,8.6372,8.524,8.4206,8.33,8.2702,8.2102,8.1421,8.0674,8.0315,7.9866,7.9267,7.8609,7.8011,7.7532,7.6864,7.665,7.8225,7.9437,7.9583,7.9583,7.9089,7.8488,7.6644,7.5826,7.5258,7.5078,7.4929,7.4869,7.4869,7.4869,7.4856,7.4839,7.4929,7.5459,7.5601,7.5265,7.5985,7.759,7.7277,7.6118,7.4997,7.3937,7.3839,9.6007,9.5669,9.4451,9.4079,9.418,9.2962,9.2421,9.2252,9.1372,9.0797,9.0628,9.0087,8.985,8.9748,8.9715,8.9681,9.0154,9.0357,9.0324,9.0256,9.0087,8.9748,8.9309,8.9106,8.9106,8.9106,8.9106,8.9106,8.9106,8.9106,8.9106,8.9106,8.9072,8.8767,8.8632,8.8564,8.8869,8.9038,8.8801,8.8767,8.8294,8.8361,8.8057,8.738,8.6873,8.6467,8.6027,8.552,8.508,8.5182,8.5587,8.6027,8.6636,8.7279,8.7989,8.8564,8.897,8.914,8.9512,8.9985,9.0391,9.0696,9.1474,9.1609,9.1102,9.0797,9.1169,9.021,8.9441,8.8029,8.6492,8.6095,8.568,8.4623,8.3443,8.2573,8.2571,8.2067,8.1329,8.0734,8.0405,7.9986,7.9656,7.9028,7.846,7.8071,7.7801,7.7334,7.7439,7.8399,7.8903,7.878,7.8369,7.7789,7.7034,7.6205,7.5467,7.5407,7.5198,7.4929,7.4869,7.4869,7.4929,7.4958,7.5078,7.5288,7.5322,7.5291,7.613,7.7455,7.6567,7.5356,7.4739,7.3971,7.3297,9.6379,9.5736,9.4924,9.4248,9.3605,9.2759,9.2387,9.2116,9.0831,8.9884,8.941,8.9207,8.9207,8.9342,8.9748,9.0154,9.0493,9.0966,9.0966,9.0493,9.0391,8.985,8.9342,8.9106,8.9106,8.9106,8.9106,8.9106,8.9106,8.9106,8.9106,8.9106,8.9072,8.9038,8.897,8.8361,8.8429,8.8869,8.8429,8.87,8.897,8.9072,8.8666,8.8294,8.7719,8.7279,8.6839,8.6163,8.579,8.5824,8.5993,8.6264,8.6399,8.7042,8.7685,8.8226,8.8801,8.9342,9.0053,9.0797,9.1237,9.1575,9.2083,9.2489,9.2319,9.2049,9.1406,9.0176,8.8931,8.7554,8.6258,8.5166,8.4636,8.3511,8.2403,8.2231,8.2139,8.234,8.1719,8.1272,8.0524,7.9896,7.9686,7.9357,7.8789,7.8519,7.8579,7.8243,7.7685,7.7705,7.8316,7.7923,7.759,7.7132,7.6564,7.6096,7.5736,7.5647,7.5407,7.5048,7.4869,7.4869,7.4929,7.5048,7.5318,7.5617,7.5557,7.5515,7.6213,7.6702,7.5802,7.4797,7.4376,7.3851,7.3253,9.6007,9.5669,9.4485,9.3808,9.3503,9.2759,9.215,9.144,9.0188,8.9342,8.914,8.9106,8.9106,8.9309,8.985,9.0459,9.1,9.1677,9.1643,9.1,9.0899,9.0087,8.9478,8.9106,8.9106,8.9106,8.9106,8.9106,8.9106,8.9106,8.9106,8.9106,8.9106,8.9106,8.9038,8.8767,8.8903,8.914,8.9275,8.9613,8.9816,8.9782,8.9647,8.9309,8.8531,8.7922,8.7617,8.6907,8.6569,8.6569,8.6738,8.7008,8.7144,8.7753,8.8294,8.8632,8.9072,8.914,8.9748,9.0391,9.1068,9.1541,9.2116,9.2522,9.1812,9.1203,9.0662,9.0142,8.9062,8.7422,8.529,8.4631,8.3666,8.1709,8.0804,8.1468,8.1867,8.226,8.22,8.1931,8.1392,8.1362,8.1212,8.0105,7.9357,7.9088,7.9148,7.84,7.7674,7.7584,7.7845,7.7244,7.6824,7.6445,7.6066,7.5736,7.5557,7.5467,7.5258,7.4958,7.4869,7.5048,7.5288,7.5587,7.5766,7.5946,7.6036,7.6066,7.5796,7.5695,7.4988,7.448,7.4121,7.3672,7.3103,9.5804,9.5635,9.418,9.3571,9.347,9.2759,9.1981,9.1203,9.029,8.985,8.9816,8.9647,8.9512,8.9647,8.9985,9.0594,9.1338,9.2049,9.2319,9.1643,9.1372,9.056,8.9782,8.9173,8.9106,8.9106,8.9106,8.9106,8.9106,8.9106,8.9106,8.9106,8.9106,8.9106,8.9072,8.9038,8.9038,8.9241,8.9579,9.0053,9.0154,9.0154,9.0188,8.9782,8.9173,8.8361,8.8158,8.7786,8.7313,8.7414,8.755,8.7854,8.8091,8.8192,8.8666,8.8869,8.9647,8.9884,9.0662,9.1068,9.1575,9.1406,9.2015,9.1981,9.144,9.1034,9.0391,8.9804,8.9205,8.717,8.498,8.4219,8.2441,8.0464,8.0042,8.0671,8.1391,8.1751,8.211,8.1931,8.202,8.226,8.217,8.1153,7.9956,7.9836,7.9686,7.8699,7.7741,7.7562,7.7263,7.6574,7.6155,7.5946,7.5677,7.5377,7.5258,7.5258,7.5198,7.5138,7.5407,7.5647,7.5886,7.6155,7.6514,7.6754,7.6784,7.6694,7.6125,7.5527,7.4929,7.442,7.3971,7.3702,7.3432,9.5736,9.5533,9.418,9.3571,9.3436,9.2827,9.2083,9.1372,9.1271,9.1203,9.1203,9.0425,9.0256,9.0256,9.0324,9.0797,9.1406,9.215,9.2184,9.1981,9.1372,9.0628,8.9951,8.9376,8.914,8.9106,8.9173,8.9275,8.914,8.9106,8.9106,8.9173,8.9173,8.9309,8.9376,8.9241,8.9173,8.9275,9.0188,9.0425,9.0324,9.0459,9.0425,9.0121,8.9512,8.9072,8.8767,8.8361,8.8192,8.7989,8.7685,8.782,8.7753,8.7448,8.8091,8.9038,9.0459,9.1102,9.1711,9.1981,9.2184,9.1913,9.2015,9.188,9.1744,9.1474,9.0865,8.9879,8.9096,8.6886,8.5016,8.3245,8.161,8.0395,7.9377,7.9922,8.0554,8.1063,8.1422,8.1572,8.1781,8.1811,8.1422,8.0644,8.0105,7.9866,7.9447,7.8489,7.7622,7.7143,7.6724,7.5856,7.5557,7.5527,7.5347,7.5347,7.5617,7.5796,7.5707,7.5677,7.5976,7.6215,7.6365,7.6664,7.7322,7.7652,7.7891,7.7203,7.6096,7.5527,7.5258,7.454,7.4121,7.445,7.433,9.5026,9.4924,9.3977,9.3571,9.3537,9.3334,9.2793,9.2083,9.1575,9.1305,9.1271,9.1102,9.1,9.1,9.1541,9.1812,9.2049,9.2218,9.1947,9.1575,9.1,9.0154,8.9579,8.9241,8.9106,8.9275,8.9444,8.9478,8.9173,8.9106,8.9444,8.9782,8.9275,8.9613,8.9782,8.9579,8.9309,8.9478,9.0628,9.0763,9.0763,9.1,9.0831,9.0391,8.9816,8.9444,8.9038,8.8801,8.8801,8.9241,8.9275,8.9579,9.0188,8.9681,8.9681,8.9782,9.0391,9.0797,9.1474,9.1609,9.1812,9.1981,9.1575,9.2015,9.2184,9.2116,9.1406,9.0284,8.948,8.7905,8.5929,8.4058,8.2244,8.1033,8.0062,7.9537,8.0285,8.0764,8.1123,8.1542,8.1721,8.1631,8.1153,8.0405,7.9926,7.9716,7.9238,7.837,7.7652,7.7233,7.6514,7.5677,7.5617,7.5796,7.5766,7.5766,7.6096,7.6335,7.6275,7.6275,7.6544,7.6754,7.6814,7.7263,7.8011,7.8639,7.9178,7.816,7.6874,7.6335,7.5976,7.5078,7.445,7.4779,7.4988,9.4721,9.4586,9.3909,9.3571,9.3571,9.3571,9.33,9.2827,9.2387,9.2218,9.215,9.188,9.1744,9.1711,9.1846,9.188,9.188,9.1846,9.1677,9.1305,9.0493,9.0121,8.9613,8.9207,8.9106,8.9309,8.941,8.941,8.9173,8.9106,8.9376,8.9579,8.9207,8.9647,8.9918,8.9715,8.9444,8.9748,9.0324,9.0899,9.1169,9.1237,9.0865,9.0628,9.0019,8.9309,8.9106,8.8937,8.9106,8.9647,8.9748,9.0087,9.0628,9.0357,9.0154,9.0154,9.0256,9.0696,9.1169,9.1,9.1372,9.1575,9.1203,9.1508,9.1643,9.1575,9.1135,9.0514,9.0095,8.9264,8.726,8.5332,8.3761,8.2044,8.0841,7.9622,8.0016,8.0524,8.1033,8.1512,8.1661,8.1631,8.1123,8.0315,7.9926,8.0045,7.9776,7.8998,7.825,7.7682,7.6844,7.5916,7.6066,7.6305,7.6275,7.6365,7.6604,7.6904,7.6963,7.7023,7.7173,7.7562,7.7891,7.828,7.8759,7.9417,8.0045,7.8998,7.7861,7.7263,7.6485,7.5587,7.5048,7.5138,7.5288,9.462,9.4552,9.3876,9.3571,9.3571,9.3571,9.3571,9.3571,9.3436,9.3537,9.3334,9.2793,9.2522,9.2455,9.2218,9.1947,9.1846,9.1711,9.1474,9.1203,9.029,8.985,8.9647,8.9444,8.914,8.9106,8.9241,8.9545,8.9275,8.9173,8.914,8.914,8.9106,8.9444,8.9884,8.9782,8.9579,8.9647,8.9951,9.029,9.0696,9.0662,9.0459,9.056,8.9613,8.8564,8.8801,8.87,8.8429,8.8937,8.9342,8.9715,9.0019,9.0256,9.0222,9.0222,9.0222,9.0797,9.1102,9.1034,9.1203,9.1406,9.1372,9.1643,9.1812,9.1677,9.1338,9.0628,9.0108,8.9677,8.811,8.6201,8.4475,8.2937,8.1494,8.0101,7.9507,8.0075,8.0614,8.0943,8.0883,8.0913,8.0973,8.0165,7.9477,8.0016,7.9926,7.9178,7.8699,7.8041,7.7382,7.6425,7.6664,7.6963,7.7203,7.7263,7.7263,7.7412,7.7682,7.7741,7.7891,7.843,7.9088,7.9387,7.9716,8.0255,8.0554,7.9567,7.8609,7.7682,7.6904,7.6036,7.5736,7.5856,7.5677,9.3842,9.3842,9.3639,9.3571,9.3571,9.3571,9.3571,9.3571,9.3571,9.3571,9.3537,9.3368,9.3267,9.3131,9.2962,9.2793,9.2658,9.1812,9.1406,9.0831,9.0053,8.9613,8.941,8.9241,8.9106,8.9309,8.9545,8.9681,8.9613,8.941,8.9342,8.9748,8.9478,8.941,9.0188,8.9985,8.9478,8.9613,8.9545,8.9579,8.9748,9.0493,9.0797,9.0222,8.9173,8.9106,8.9173,8.8937,8.9241,8.9782,8.9918,9.0053,9.0188,9.0188,9.0188,9.0222,9.0188,9.0831,9.1305,9.1305,9.1474,9.1913,9.215,9.2353,9.2353,9.2049,9.1508,9.0696,9.0108,8.9711,8.8897,8.7128,8.542,8.3733,8.2025,8.0706,7.9292,7.9686,8.0225,8.0285,8.0195,8.0285,8.0464,8.0045,7.9387,7.9148,7.9148,7.8819,7.8579,7.813,7.81,7.7442,7.7412,7.7682,7.7951,7.81,7.8071,7.846,7.8878,7.8819,7.8639,7.9297,7.9986,8.0315,8.0674,8.1153,8.1153,8.0345,7.9357,7.8489,7.7711,7.7023,7.6963,7.7083,7.6574,9.3571,9.3571,9.3571,9.3571,9.3571,9.3571,9.3571,9.3571,9.3571,9.3571,9.3571,9.3571,9.3571,9.3571,9.3571,9.3334,9.3064,9.2252,9.1372,9.0628,9.0121,8.9545,8.9241,8.9106,8.9106,8.9241,8.9106,8.9173,8.9478,8.9072,8.8869,8.9512,8.9275,8.9478,9.0256,8.9512,8.9275,8.9613,8.9207,8.9072,8.9038,8.9715,9.029,8.9681,8.9342,8.9241,8.914,8.8869,8.9038,8.9478,8.9613,8.9613,8.9647,8.9647,8.9681,8.9782,9.0053,9.056,9.1135,9.1508,9.1541,9.1778,9.2015,9.188,9.0865,9.0628,9.1575,9.0932,9.0865,9.05,9.0085,8.8622,8.7347,8.5851,8.3314,8.1323,8.032,8.0045,8.0674,8.1123,8.0943,8.0734,8.0614,7.9776,7.9238,7.9238,7.9088,7.8699,7.843,7.831,7.828,7.825,7.813,7.822,7.843,7.8639,7.8819,7.9327,7.9866,7.9806,7.9686,8.0315,8.0853,8.1063,8.1392,8.1871,8.1661,8.0913,8.0494,7.9836,7.8998,7.816,7.819,7.816,7.7562,9.3571,9.3571,9.3571,9.3571,9.3571,9.3571,9.3571,9.3571,9.3571,9.3571,9.3571,9.3571,9.3571,9.3571,9.3537,9.3098,9.2692,9.2387,9.1541,9.0932,9.0357,8.985,8.9444,8.9173,8.9004,8.8734,8.8463,8.8497,8.8632,8.8328,8.8429,8.8869,8.9106,8.9207,8.9106,8.9072,8.914,8.9004,8.8801,8.8869,8.8903,8.897,8.9342,8.9275,8.8903,8.8463,8.8632,8.87,8.8632,8.8835,8.9207,8.9072,8.9106,8.9106,8.9038,8.9173,8.9579,9.0019,9.0425,9.0865,9.0797,9.0797,9.1068,9.0831,8.9918,9.0188,9.1135,9.1271,9.1203,9.0818,9.0404,8.9952,8.8656,8.6987,8.4237,8.1694,8.0932,8.0105,8.0674,8.1302,8.1093,8.0823,8.0285,7.9447,7.9238,7.9267,7.9118,7.8729,7.846,7.846,7.843,7.8519,7.8519,7.8669,7.8908,7.9178,7.9417,7.9716,8.0165,8.0405,8.0674,8.1003,8.1332,8.1631,8.202,8.232,8.211,8.1482,8.1153,8.0764,7.9866,7.8968,7.9238,7.9058,7.846,9.3571,9.3571,9.3571,9.3571,9.3571,9.3571,9.3571,9.3571,9.3571,9.3571,9.3571,9.3571,9.3571,9.3571,9.3571,9.3368,9.3165,9.2793,9.2489,9.2015,9.0797,9.0256,8.9782,8.9207,8.8734,8.8395,8.8057,8.7786,8.7989,8.7989,8.8057,8.826,8.9579,8.9613,8.9106,8.9038,8.8903,8.8666,8.8395,8.8361,8.8294,8.8395,8.8666,8.8632,8.8497,8.8598,8.8801,8.8937,8.897,8.9038,8.9038,8.8767,8.8666,8.8734,8.8767,8.8734,8.914,8.9748,9.0188,9.056,9.056,9.0831,9.1102,9.1034,9.0493,9.0493,9.1,9.0831,9.0594,9.0019,8.9623,8.9724,8.8846,8.6643,8.4088,8.1752,8.0244,7.9647,7.9627,7.9836,7.9776,7.9656,7.9537,7.8968,7.8729,7.8759,7.8789,7.843,7.831,7.843,7.8549,7.8669,7.8789,7.9208,7.9477,7.9746,8.0016,8.0225,8.0494,8.0853,8.1153,8.1392,8.1691,8.202,8.223,8.2469,8.217,8.1841,8.1452,8.0973,8.0255,7.9746,8.0016,7.9866,7.9148]},{"header":{"parameterUnit":"m.s-1","parameterCategory":1,"la1":31.0,"la2":29.5877,"lo1":-88.7671,"lo2":-86.6584,"dy":0.0162,"dx":0.0185,"nx":115,"ny":88,"refTime":"2023-10-14T00:00:00:Z","depth":0,"parameterNumber":3,"parameterNumberName":"V-component_of_WINDS"},"data":[0.0,0.0,0.0,0.0,0.0,0.0,0.0,0.0,0.0,0.0,0.0,0.0,0.0,0.0,0.0,0.0,0.0,0.0,0.0,0.0,0.0,0.0,0.0,0.0,0.0,0.0,0.0,0.0,0.0,0.0,0.0,0.0,0.0,0.0,0.0,0.0,0.0,0.0,0.0,0.0,0.0,0.0,0.0,0.0,0.0,0.0,0.0,0.0,0.0,0.0,0.0,0.0,0.0,0.0,0.0,0.0,0.0,0.0,0.0,0.0,0.0,0.0,0.0,0.0,0.0,0.0,0.0,0.0,0.0,0.0,0.0,0.0,0.0,0.0,0.0,0.0,0.0,0.0,0.0,0.0,0.0,0.0,0.0,0.0,0.0,0.0,0.0,0.0,0.0,0.0,0.0,0.0,0.0,0.0,0.0,0.0,0.0,0.0,0.0,0.0,0.0,0.0,0.0,0.0,0.0,0.0,0.0,0.0,0.0,0.0,0.0,0.0,0.0,0.0,0.0,0.0,0.0,0.0,0.0,0.0,0.0,0.0,0.0,0.0,0.0,0.0,0.0,0.0,0.0,0.0,0.0,0.0,0.0,0.0,0.0,0.0,0.0,0.0,0.0,0.0,0.0,0.0,0.0,0.0,0.0,0.0,0.0,0.0,0.0,0.0,0.0,0.0,0.0,0.0,0.0,0.0,0.0,0.0,0.0,0.0,0.0,0.0,0.0,0.0,0.0,0.0,0.0,0.0,0.0,0.0,0.0,0.0,0.0,0.0,0.0,0.0,0.0,0.0,0.0,0.0,0.0,0.0,0.0,0.0,0.0,0.0,0.0,0.0,0.0,0.0,0.0,0.0,0.0,0.0,0.0,0.0,0.0,0.0,0.0,0.0,0.0,0.0,0.0,0.0,0.0,0.0,0.0,0.0,0.0,0.0,0.0,0.0,0.0,0.0,0.0,0.0,0.0,0.0,0.0,0.0,0.0,0.0,0.0,0.0,0.0,0.0,0.0,0.0,0.0,0.0,0.0,0.0,0.0,0.0,0.0,0.0,0.0,0.0,0.0,0.0,0.0,0.0,0.0,0.0,0.0,0.0,0.0,0.0,0.0,0.0,0.0,0.0,0.0,0.0,0.0,0.0,0.0,0.0,0.0,0.0,0.0,0.0,0.0,0.0,0.0,0.0,0.0,0.0,0.0,0.0,0.0,0.0,0.0,0.0,0.0,0.0,0.0,0.0,0.0,0.0,0.0,0.0,0.0,0.0,0.0,0.0,0.0,0.0,0.0,0.0,0.0,0.0,0.0,0.0,0.0,0.0,0.0,0.0,0.0,0.0,0.0,0.0,0.0,0.0,0.0,0.0,0.0,0.0,0.0,0.0,0.0,0.0,0.0,0.0,0.0,0.0,0.0,0.0,0.0,0.0,0.0,0.0,0.0,0.0,0.0,0.0,0.0,0.0,0.0,0.0,0.0,0.0,0.0,0.0,0.0,0.0,0.0,0.0,0.0,0.0,0.0,0.0,0.0,0.0,0.0,0.0,0.0,0.0,0.0,0.0,0.0,0.0,0.0,0.0,0.0,0.0,0.0,0.0,0.0,0.0,0.0,0.0,0.0,0.0,0.0,0.0,0.0,0.0,0.0,0.0,0.0,0.0,0.0,0.0,0.0,0.0,0.0,0.0,0.0,0.0,0.0,0.0,0.0,0.0,0.0,0.0,0.0,0.0,0.0,0.0,0.0,0.0,0.0,0.0,0.0,0.0,0.0,0.0,0.0,0.0,0.0,0.0,0.0,0.0,0.0,0.0,0.0,0.0,0.0,0.0,0.0,0.0,0.0,0.0,0.0,0.0,0.0,0.0,0.0,0.0,0.0,0.0,0.0,0.0,0.0,0.0,0.0,0.0,0.0,0.0,0.0,0.0,0.0,0.0,0.0,0.0,0.0,0.0,0.0,0.0,0.0,0.0,0.0,0.0,0.0,0.0,0.0,0.0,0.0,0.0,0.0,0.0,0.0,0.0,0.0,0.0,0.0,0.0,0.0,0.0,0.0,0.0,0.0,0.0,0.0,0.0,0.0,0.0,0.0,0.0,0.0,0.0,0.0,0.0,0.0,0.0,0.0,0.0,0.0,0.0,0.0,0.0,0.0,0.0,0.0,0.0,0.0,0.0,0.0,0.0,0.0,0.0,0.0,0.0,0.0,0.0,0.0,0.0,0.0,0.0,0.0,0.0,0.0,0.0,0.0,0.0,0.0,0.0,0.0,0.0,0.0,0.0,0.0,0.0,0.0,0.0,0.0,0.0,0.0,0.0,0.0,0.0,0.0,0.0,0.0,0.0,0.0,0.0,0.0,0.0,0.0,0.0,0.0,0.0,0.0,0.0,0.0,0.0,0.0,0.0,0.0,0.0,0.0,0.0,0.0,0.0,0.0,0.0,0.0,0.0,0.0,0.0,0.0,0.0,0.0,0.0,0.0,0.0,0.0,0.0,0.0,0.0,0.0,0.0,0.0,0.0,0.0,0.0,0.0,0.0,0.0,0.0,0.0,0.0,0.0,0.0,0.0,0.0,0.0,0.0,0.0,0.0,0.0,0.0,0.0,0.0,0.0,0.0,0.0,0.0,0.0,0.0,0.0,0.0,0.0,0.0,0.0,0.0,0.0,0.0,0.0,0.0,0.0,0.0,0.0,0.0,0.0,0.0,0.0,0.0,0.0,0.0,0.0,0.0,0.0,0.0,0.0,0.0,0.0,0.0,0.0,0.0,0.0,0.0,0.0,0.0,0.0,0.0,0.0,0.0,0.0,0.0,0.0,0.0,0.0,0.0,0.0,0.0,0.0,0.0,0.0,0.0,0.0,0.0,0.0,0.0,0.0,0.0,0.0,0.0,0.0,0.0,0.0,0.0,0.0,0.0,0.0,0.0,0.0,0.0,0.0,0.0,0.0,0.0,0.0,0.0,0.0,0.0,0.0,0.0,0.0,0.0,0.0,0.0,0.0,0.0,0.0,0.0,0.0,0.0,0.0,0.0,0.0,0.0,0.0,0.0,0.0,0.0,0.0,0.0,0.0,0.0,0.0,0.0,0.0,0.0,0.0,0.0,0.0,0.0,0.0,0.0,0.0,0.0,0.0,0.0,0.0,0.0,0.0,0.0,0.0,0.0,0.0,0.0,0.0,0.0,0.0,0.0,0.0,0.0,0.0,0.0,0.0,0.0,0.0,0.0,0.0,0.0,0.0,0.0,0.0,0.0,0.0,0.0,0.0,0.0,0.0,0.0,0.0,0.0,0.0,0.0,0.0,0.0,0.0,0.0,0.0,0.0,0.0,0.0,0.0,0.0,0.0,0.0,0.0,0.0,0.0,0.0,0.0,0.0,0.0,0.0,0.0,0.0,0.0,0.0,0.0,0.0,0.0,0.0,0.0,0.0,0.0,0.0,0.0,0.0,0.0,0.0,0.0,0.0,0.0,0.0,0.0,0.0,0.0,0.0,0.0,0.0,0.0,0.0,0.0,0.0,0.0,0.0,0.0,0.0,0.0,0.0,0.0,0.0,0.0,0.0,0.0,0.0,0.0,0.0,0.0,0.0,0.0,0.0,0.0,0.0,0.0,0.0,0.0,0.0,0.0,0.0,0.0,0.0,0.0,0.0,0.0,0.0,0.0,0.0,0.0,0.0,0.0,0.0,0.0,0.0,0.0,0.0,0.0,0.0,0.0,0.0,0.0,0.0,0.0,0.0,0.0,0.0,0.0,0.0,0.0,0.0,0.0,0.0,0.0,0.0,0.0,0.0,0.0,0.0,0.0,0.0,0.0,0.0,0.0,0.0,0.0,0.0,0.0,0.0,0.0,0.0,0.0,0.0,0.0,0.0,0.0,0.0,0.0,0.0,0.0,0.0,0.0,0.0,0.0,0.0,0.0,0.0,0.0,0.0,0.0,0.0,0.0,0.0,0.0,0.0,0.0,0.0,0.0,0.0,0.0,0.0,0.0,0.0,0.0,0.0,0.0,0.0,0.0,0.0,0.0,0.0,0.0,0.0,0.0,0.0,0.0,0.0,0.0,0.0,0.0,0.0,0.0,0.0,0.0,0.0,0.0,0.0,0.0,0.0,0.0,0.0,0.0,0.0,0.0,0.0,0.0,0.0,0.0,0.0,0.0,0.0,0.0,0.0,0.0,0.0,0.0,0.0,0.0,0.0,0.0,0.0,0.0,0.0,0.0,0.0,0.0,0.0,0.0,0.0,0.0,0.0,0.0,0.0,0.0,0.0,0.0,0.0,0.0,0.0,-2.4636,0.0,0.0,0.0,0.0,0.0,0.0,0.0,0.0,0.0,0.0,0.0,0.0,0.0,0.0,0.0,0.0,0.0,0.0,0.0,0.0,0.0,0.0,0.0,0.0,0.0,0.0,0.0,0.0,0.0,0.0,0.0,0.0,0.0,0.0,0.0,0.0,0.0,0.0,0.0,0.0,0.0,0.0,0.0,0.0,0.0,0.0,0.0,0.0,0.0,0.0,0.0,0.0,0.0,0.0,0.0,0.0,0.0,0.0,0.0,0.0,0.0,0.0,0.0,0.0,0.0,0.0,0.0,0.0,0.0,0.0,0.0,0.0,0.0,0.0,0.0,0.0,0.0,0.0,0.0,0.0,0.0,0.0,0.0,0.0,0.0,0.0,0.0,0.0,0.0,0.0,0.0,0.0,0.0,0.0,0.0,0.0,0.0,0.0,0.0,0.0,0.0,0.0,0.0,0.0,0.0,0.0,0.0,0.0,0.0,0.0,-2.6019,-2.5431,-2.5418,-2.5187,-2.489,0.0,0.0,0.0,0.0,0.0,0.0,0.0,0.0,0.0,0.0,0.0,0.0,0.0,0.0,0.0,0.0,0.0,0.0,0.0,0.0,0.0,0.0,0.0,0.0,0.0,0.0,0.0,0.0,0.0,0.0,0.0,0.0,0.0,0.0,0.0,0.0,0.0,0.0,0.0,0.0,0.0,0.0,0.0,0.0,0.0,0.0,0.0,0.0,0.0,0.0,0.0,0.0,0.0,0.0,0.0,0.0,0.0,0.0,0.0,0.0,0.0,0.0,0.0,0.0,0.0,0.0,0.0,0.0,0.0,0.0,0.0,0.0,0.0,0.0,0.0,0.0,0.0,0.0,0.0,0.0,0.0,0.0,0.0,0.0,0.0,0.0,0.0,0.0,0.0,0.0,0.0,0.0,0.0,0.0,0.0,0.0,0.0,0.0,0.0,0.0,0.0,0.0,0.0,0.0,0.0,0.0,0.0,0.0,0.0,0.0,0.0,0.0,-2.6281,-2.5992,-2.5241,0.0,0.0,0.0,0.0,0.0,0.0,0.0,0.0,0.0,0.0,0.0,0.0,0.0,0.0,0.0,0.0,0.0,0.0,0.0,0.0,0.0,0.0,0.0,0.0,0.0,0.0,0.0,0.0,0.0,0.0,0.0,0.0,0.0,0.0,0.0,0.0,0.0,0.0,0.0,0.0,0.0,0.0,0.0,0.0,0.0,0.0,0.0,0.0,0.0,0.0,0.0,0.0,0.0,0.0,0.0,0.0,0.0,0.0,0.0,0.0,0.0,0.0,0.0,0.0,0.0,0.0,0.0,0.0,0.0,0.0,0.0,0.0,0.0,0.0,0.0,0.0,0.0,0.0,0.0,0.0,0.0,0.0,0.0,0.0,0.0,0.0,0.0,0.0,0.0,0.0,0.0,0.0,0.0,0.0,0.0,0.0,0.0,0.0,0.0,0.0,0.0,0.0,0.0,0.0,0.0,0.0,0.0,0.0,0.0,0.0,-2.7949,-2.7784,-2.7179,0.0,-2.5841,0.0,0.0,0.0,0.0,0.0,0.0,0.0,0.0,0.0,0.0,0.0,0.0,0.0,0.0,0.0,0.0,0.0,0.0,0.0,0.0,0.0,0.0,0.0,0.0,0.0,0.0,0.0,0.0,0.0,0.0,0.0,0.0,0.0,0.0,0.0,0.0,0.0,0.0,0.0,0.0,0.0,0.0,0.0,0.0,0.0,0.0,0.0,0.0,0.0,0.0,0.0,0.0,0.0,0.0,0.0,0.0,0.0,0.0,0.0,0.0,0.0,0.0,0.0,0.0,0.0,0.0,0.0,0.0,0.0,0.0,0.0,0.0,0.0,0.0,0.0,0.0,0.0,0.0,0.0,0.0,0.0,0.0,0.0,0.0,0.0,0.0,0.0,0.0,0.0,0.0,0.0,0.0,0.0,0.0,0.0,0.0,0.0,0.0,0.0,0.0,0.0,0.0,0.0,0.0,0.0,0.0,0.0,0.0,0.0,0.0,-3.0069,-2.9564,-2.8009,-2.685,0.0,0.0,0.0,0.0,0.0,0.0,0.0,0.0,0.0,0.0,0.0,0.0,0.0,0.0,0.0,0.0,0.0,0.0,0.0,0.0,0.0,0.0,0.0,0.0,0.0,0.0,0.0,0.0,0.0,0.0,0.0,0.0,0.0,0.0,0.0,0.0,0.0,0.0,0.0,0.0,0.0,0.0,0.0,0.0,0.0,0.0,0.0,0.0,0.0,0.0,0.0,0.0,0.0,0.0,0.0,0.0,0.0,0.0,0.0,0.0,0.0,0.0,0.0,0.0,0.0,0.0,0.0,0.0,0.0,0.0,0.0,0.0,0.0,0.0,0.0,0.0,0.0,0.0,0.0,0.0,0.0,0.0,0.0,0.0,0.0,0.0,0.0,0.0,0.0,0.0,0.0,0.0,0.0,0.0,0.0,0.0,0.0,0.0,0.0,0.0,0.0,0.0,0.0,0.0,0.0,0.0,0.0,0.0,0.0,0.0,-3.1331,-3.1367,-3.0423,-2.8424,-2.7032,-2.6586,0.0,0.0,0.0,0.0,0.0,0.0,0.0,0.0,0.0,0.0,0.0,0.0,0.0,0.0,0.0,0.0,0.0,0.0,0.0,0.0,0.0,0.0,0.0,0.0,0.0,0.0,0.0,0.0,0.0,0.0,0.0,0.0,0.0,0.0,0.0,0.0,0.0,0.0,0.0,0.0,0.0,0.0,0.0,0.0,0.0,0.0,0.0,0.0,0.0,0.0,0.0,0.0,0.0,0.0,0.0,0.0,0.0,0.0,0.0,0.0,0.0,0.0,0.0,0.0,0.0,0.0,0.0,0.0,0.0,0.0,0.0,0.0,0.0,0.0,0.0,0.0,0.0,0.0,0.0,0.0,0.0,0.0,0.0,0.0,0.0,0.0,0.0,0.0,0.0,0.0,0.0,0.0,0.0,0.0,0.0,0.0,0.0,0.0,0.0,0.0,0.0,0.0,0.0,0.0,0.0,0.0,0.0,0.0,-3.0839,-3.134,-3.1045,-3.0129,-2.8578,-2.7199,0.0,0.0,0.0,0.0,0.0,0.0,0.0,0.0,0.0,0.0,0.0,0.0,0.0,0.0,0.0,0.0,0.0,0.0,0.0,0.0,0.0,0.0,0.0,0.0,0.0,0.0,0.0,0.0,0.0,0.0,0.0,0.0,0.0,0.0,0.0,0.0,0.0,0.0,0.0,0.0,0.0,0.0,0.0,0.0,0.0,0.0,0.0,0.0,0.0,0.0,0.0,0.0,0.0,0.0,0.0,0.0,0.0,0.0,0.0,0.0,0.0,0.0,0.0,0.0,0.0,0.0,0.0,0.0,0.0,0.0,0.0,0.0,0.0,0.0,0.0,0.0,0.0,0.0,0.0,0.0,0.0,0.0,0.0,0.0,0.0,0.0,0.0,0.0,0.0,0.0,0.0,0.0,0.0,0.0,0.0,0.0,0.0,0.0,0.0,0.0,0.0,0.0,0.0,0.0,0.0,0.0,0.0,0.0,0.0,-2.9756,-3.0934,-3.1347,-3.0903,-2.885,-2.7321,0.0,0.0,0.0,0.0,0.0,0.0,0.0,0.0,0.0,0.0,0.0,0.0,0.0,0.0,0.0,0.0,0.0,0.0,0.0,0.0,0.0,0.0,0.0,0.0,0.0,0.0,0.0,0.0,0.0,0.0,0.0,0.0,0.0,0.0,0.0,0.0,0.0,0.0,0.0,0.0,0.0,0.0,0.0,0.0,0.0,0.0,0.0,0.0,0.0,0.0,0.0,0.0,0.0,0.0,0.0,0.0,0.0,0.0,0.0,0.0,0.0,0.0,0.0,0.0,0.0,0.0,0.0,0.0,0.0,0.0,0.0,0.0,0.0,0.0,0.0,0.0,0.0,0.0,0.0,0.0,0.0,0.0,0.0,0.0,0.0,0.0,0.0,0.0,0.0,0.0,0.0,0.0,0.0,0.0,0.0,0.0,0.0,0.0,0.0,0.0,0.0,0.0,0.0,0.0,0.0,0.0,0.0,0.0,0.0,-2.8957,0.0,-3.081,-3.0606,-2.871,-2.725,0.0,0.0,0.0,0.0,0.0,0.0,0.0,0.0,0.0,0.0,0.0,0.0,0.0,0.0,0.0,0.0,0.0,0.0,0.0,0.0,0.0,0.0,0.0,0.0,0.0,0.0,0.0,0.0,0.0,0.0,0.0,0.0,0.0,0.0,0.0,0.0,0.0,0.0,0.0,0.0,0.0,0.0,0.0,0.0,0.0,0.0,0.0,0.0,0.0,0.0,0.0,0.0,0.0,0.0,0.0,0.0,0.0,0.0,0.0,0.0,0.0,0.0,0.0,0.0,0.0,0.0,0.0,0.0,0.0,0.0,0.0,0.0,0.0,0.0,0.0,0.0,0.0,0.0,0.0,0.0,0.0,0.0,0.0,0.0,0.0,0.0,0.0,0.0,0.0,0.0,0.0,0.0,0.0,0.0,0.0,0.0,0.0,0.0,0.0,0.0,0.0,0.0,0.0,0.0,0.0,0.0,0.0,0.0,-2.6686,-2.8372,-2.9464,-2.9508,-2.8915,-2.7819,-2.6878,0.0,0.0,0.0,0.0,0.0,0.0,0.0,0.0,0.0,0.0,0.0,0.0,0.0,0.0,0.0,0.0,0.0,0.0,0.0,0.0,0.0,0.0,0.0,0.0,0.0,0.0,0.0,0.0,0.0,0.0,0.0,0.0,0.0,0.0,0.0,0.0,0.0,0.0,0.0,0.0,0.0,0.0,0.0,0.0,0.0,0.0,0.0,0.0,0.0,0.0,0.0,0.0,0.0,0.0,0.0,0.0,0.0,0.0,0.0,0.0,0.0,0.0,0.0,0.0,0.0,0.0,0.0,0.0,0.0,0.0,0.0,0.0,0.0,0.0,0.0,0.0,0.0,0.0,0.0,0.0,0.0,0.0,0.0,0.0,0.0,0.0,0.0,0.0,0.0,0.0,0.0,0.0,0.0,0.0,0.0,0.0,0.0,0.0,0.0,0.0,0.0,0.0,0.0,0.0,0.0,0.0,0.0,0.0,0.0,-2.824,-2.8619,-2.869,-2.8748,-2.7465,-2.6558,0.0,0.0,0.0,0.0,0.0,0.0,0.0,0.0,0.0,0.0,0.0,0.0,0.0,0.0,0.0,0.0,0.0,0.0,0.0,0.0,0.0,0.0,0.0,0.0,0.0,0.0,0.0,0.0,0.0,0.0,0.0,0.0,0.0,0.0,0.0,0.0,0.0,0.0,0.0,0.0,0.0,0.0,0.0,0.0,0.0,0.0,0.0,0.0,0.0,0.0,0.0,0.0,0.0,0.0,0.0,0.0,0.0,0.0,0.0,0.0,0.0,0.0,0.0,0.0,0.0,0.0,0.0,0.0,0.0,0.0,0.0,0.0,0.0,0.0,0.0,0.0,0.0,0.0,0.0,0.0,0.0,0.0,0.0,0.0,0.0,0.0,0.0,0.0,0.0,0.0,0.0,0.0,0.0,0.0,0.0,0.0,0.0,0.0,0.0,0.0,0.0,0.0,0.0,0.0,0.0,0.0,0.0,0.0,0.0,-2.8245,-2.8403,-2.8409,-2.8459,-2.7333,-2.6611,-2.6036,0.0,0.0,0.0,0.0,0.0,0.0,0.0,0.0,0.0,0.0,0.0,0.0,0.0,0.0,0.0,0.0,0.0,0.0,0.0,0.0,0.0,0.0,0.0,0.0,0.0,0.0,0.0,0.0,0.0,0.0,0.0,0.0,0.0,0.0,0.0,0.0,0.0,0.0,0.0,0.0,0.0,0.0,0.0,0.0,0.0,0.0,0.0,0.0,0.0,0.0,0.0,0.0,0.0,0.0,0.0,0.0,0.0,0.0,0.0,0.0,0.0,0.0,0.0,0.0,0.0,0.0,0.0,0.0,0.0,0.0,0.0,0.0,0.0,0.0,0.0,0.0,0.0,0.0,0.0,0.0,0.0,0.0,0.0,0.0,0.0,0.0,0.0,0.0,0.0,0.0,0.0,0.0,0.0,0.0,0.0,0.0,0.0,0.0,0.0,0.0,0.0,0.0,0.0,0.0,0.0,0.0,0.0,0.0,-2.8599,-2.8772,-2.8615,-2.7789,-2.7468,-2.6946,0.0,0.0,0.0,0.0,0.0,0.0,0.0,0.0,0.0,0.0,0.0,0.0,0.0,0.0,0.0,0.0,0.0,0.0,0.0,0.0,0.0,0.0,0.0,0.0,0.0,0.0,0.0,0.0,0.0,0.0,0.0,0.0,0.0,0.0,0.0,0.0,0.0,0.0,0.0,0.0,0.0,0.0,0.0,0.0,0.0,0.0,0.0,0.0,0.0,0.0,0.0,0.0,0.0,0.0,0.0,0.0,0.0,0.0,0.0,0.0,0.0,0.0,0.0,0.0,0.0,0.0,0.0,0.0,0.0,0.0,0.0,0.0,0.0,0.0,0.0,0.0,0.0,0.0,0.0,0.0,0.0,0.0,0.0,0.0,0.0,0.0,0.0,0.0,0.0,0.0,0.0,0.0,0.0,0.0,0.0,0.0,0.0,0.0,0.0,0.0,0.0,0.0,0.0,0.0,0.0,0.0,0.0,0.0,0.0,-3.0331,-3.0503,-2.9947,-2.8711,-2.819,-2.7554,0.0,0.0,0.0,0.0,0.0,0.0,0.0,0.0,0.0,0.0,0.0,0.0,0.0,0.0,0.0,0.0,0.0,0.0,0.0,0.0,0.0,0.0,0.0,0.0,0.0,0.0,0.0,0.0,0.0,0.0,0.0,0.0,0.0,0.0,0.0,0.0,0.0,0.0,0.0,0.0,0.0,0.0,0.0,0.0,0.0,0.0,0.0,0.0,0.0,0.0,0.0,0.0,0.0,0.0,0.0,0.0,0.0,0.0,0.0,0.0,0.0,0.0,0.0,0.0,0.0,0.0,0.0,0.0,0.0,0.0,0.0,0.0,0.0,0.0,0.0,0.0,0.0,0.0,0.0,0.0,0.0,0.0,0.0,0.0,0.0,0.0,0.0,0.0,0.0,0.0,0.0,0.0,0.0,0.0,0.0,0.0,0.0,0.0,0.0,0.0,0.0,0.0,0.0,0.0,0.0,0.0,0.0,0.0,-3.0729,-3.1631,-3.229,-3.1903,-3.0154,-2.9219,-2.8117,0.0,0.0,0.0,0.0,0.0,0.0,0.0,0.0,0.0,0.0,0.0,0.0,0.0,0.0,0.0,0.0,0.0,0.0,0.0,0.0,0.0,0.0,0.0,0.0,0.0,0.0,0.0,0.0,0.0,0.0,0.0,0.0,0.0,0.0,0.0,0.0,0.0,0.0,0.0,0.0,0.0,0.0,0.0,0.0,0.0,0.0,0.0,0.0,0.0,0.0,0.0,0.0,0.0,0.0,0.0,0.0,0.0,0.0,0.0,0.0,0.0,0.0,0.0,0.0,0.0,0.0,0.0,0.0,0.0,0.0,0.0,0.0,0.0,0.0,0.0,0.0,0.0,0.0,0.0,0.0,0.0,0.0,0.0,0.0,0.0,0.0,0.0,0.0,0.0,0.0,0.0,0.0,0.0,0.0,0.0,0.0,0.0,0.0,0.0,0.0,0.0,0.0,0.0,0.0,0.0,0.0,0.0,0.0,-3.3049,-3.2861,-3.4367,-3.4075,-3.2273,-3.055,-2.8977,0.0,0.0,0.0,0.0,0.0,0.0,0.0,0.0,0.0,0.0,0.0,0.0,0.0,0.0,0.0,0.0,0.0,0.0,0.0,0.0,0.0,0.0,0.0,0.0,0.0,0.0,0.0,0.0,0.0,0.0,0.0,0.0,0.0,0.0,0.0,0.0,0.0,0.0,0.0,0.0,0.0,0.0,0.0,0.0,0.0,0.0,0.0,0.0,0.0,0.0,0.0,0.0,0.0,0.0,0.0,0.0,0.0,0.0,0.0,0.0,0.0,0.0,0.0,0.0,0.0,0.0,0.0,0.0,0.0,0.0,0.0,0.0,0.0,0.0,0.0,0.0,0.0,0.0,0.0,0.0,0.0,0.0,0.0,0.0,0.0,0.0,0.0,0.0,0.0,0.0,0.0,0.0,0.0,0.0,0.0,0.0,0.0,0.0,0.0,0.0,0.0,0.0,0.0,0.0,0.0,0.0,0.0,0.0,-3.4819,-3.7248,-3.5841,-3.5217,-3.5148,-3.2246,-2.9972,0.0,0.0,0.0,0.0,0.0,0.0,0.0,0.0,0.0,0.0,0.0,0.0,0.0,0.0,0.0,0.0,0.0,0.0,0.0,0.0,0.0,0.0,0.0,0.0,0.0,0.0,0.0,0.0,0.0,0.0,0.0,0.0,0.0,0.0,0.0,0.0,0.0,0.0,0.0,0.0,0.0,0.0,0.0,0.0,0.0,0.0,0.0,0.0,-3.8633,0.0,0.0,0.0,0.0,0.0,0.0,0.0,0.0,0.0,0.0,0.0,0.0,0.0,0.0,0.0,0.0,0.0,0.0,0.0,0.0,0.0,0.0,0.0,0.0,0.0,0.0,0.0,0.0,0.0,0.0,0.0,0.0,0.0,0.0,0.0,0.0,0.0,0.0,0.0,0.0,0.0,0.0,0.0,0.0,0.0,0.0,0.0,0.0,0.0,0.0,0.0,0.0,0.0,0.0,0.0,0.0,0.0,0.0,0.0,-3.6242,-3.7893,-3.7398,-3.6804,-3.6474,-3.3308,-3.1164,0.0,0.0,0.0,0.0,0.0,0.0,0.0,0.0,0.0,0.0,0.0,0.0,0.0,0.0,0.0,0.0,0.0,0.0,0.0,0.0,0.0,0.0,0.0,0.0,0.0,0.0,0.0,0.0,0.0,0.0,0.0,0.0,0.0,0.0,0.0,0.0,0.0,0.0,0.0,0.0,0.0,0.0,0.0,0.0,0.0,0.0,0.0,0.0,0.0,0.0,0.0,0.0,0.0,0.0,0.0,0.0,0.0,0.0,0.0,0.0,0.0,0.0,0.0,0.0,0.0,0.0,0.0,0.0,0.0,0.0,0.0,0.0,0.0,0.0,0.0,0.0,0.0,0.0,0.0,0.0,0.0,0.0,0.0,0.0,0.0,0.0,0.0,0.0,0.0,0.0,0.0,0.0,0.0,0.0,0.0,0.0,0.0,0.0,0.0,0.0,0.0,0.0,0.0,0.0,0.0,0.0,0.0,-3.47,-3.6975,-3.7144,-3.8046,-3.7993,-3.6773,-3.4171,-3.2123,-3.1007,0.0,0.0,0.0,0.0,0.0,0.0,0.0,0.0,0.0,0.0,0.0,0.0,0.0,0.0,0.0,0.0,0.0,0.0,0.0,0.0,0.0,0.0,0.0,0.0,0.0,0.0,0.0,0.0,0.0,0.0,0.0,0.0,0.0,0.0,0.0,0.0,0.0,0.0,-3.4863,-3.6445,0.0,0.0,0.0,0.0,0.0,0.0,0.0,0.0,-3.8711,0.0,0.0,0.0,0.0,0.0,0.0,0.0,0.0,0.0,0.0,0.0,0.0,0.0,0.0,0.0,0.0,0.0,0.0,0.0,0.0,0.0,0.0,0.0,0.0,0.0,0.0,0.0,0.0,0.0,0.0,0.0,0.0,0.0,0.0,0.0,0.0,0.0,0.0,0.0,0.0,0.0,0.0,0.0,0.0,0.0,0.0,0.0,0.0,0.0,0.0,0.0,0.0,0.0,0.0,0.0,0.0,-3.056,-3.2917,-3.5193,-3.7516,-3.6591,-3.6321,-3.655,-3.4168,-3.2578,-3.1997,0.0,0.0,0.0,0.0,0.0,0.0,0.0,0.0,0.0,0.0,0.0,0.0,0.0,0.0,0.0,0.0,0.0,0.0,0.0,0.0,0.0,0.0,0.0,0.0,0.0,0.0,0.0,0.0,0.0,0.0,0.0,0.0,0.0,0.0,0.0,0.0,0.0,0.0,0.0,-3.7519,-3.8516,0.0,0.0,0.0,0.0,0.0,0.0,0.0,0.0,-3.9258,0.0,0.0,0.0,0.0,0.0,0.0,0.0,0.0,0.0,0.0,0.0,0.0,0.0,0.0,0.0,0.0,0.0,0.0,0.0,0.0,0.0,0.0,0.0,0.0,0.0,0.0,0.0,0.0,0.0,0.0,0.0,0.0,0.0,0.0,0.0,0.0,0.0,0.0,0.0,0.0,0.0,0.0,0.0,0.0,0.0,0.0,0.0,0.0,0.0,0.0,0.0,0.0,0.0,0.0,0.0,-2.9254,-3.1994,-3.4672,-3.6678,-3.6139,-3.5866,-3.6312,-3.3681,-3.2046,0.0,0.0,0.0,0.0,0.0,0.0,0.0,0.0,0.0,0.0,0.0,0.0,0.0,0.0,0.0,0.0,0.0,0.0,0.0,0.0,0.0,0.0,0.0,0.0,0.0,0.0,0.0,0.0,0.0,0.0,0.0,0.0,0.0,0.0,0.0,0.0,0.0,0.0,0.0,0.0,-3.8496,-3.9824,-4.0469,0.0,0.0,0.0,0.0,0.0,0.0,-3.9551,-3.957,0.0,0.0,0.0,0.0,0.0,0.0,0.0,0.0,0.0,0.0,0.0,0.0,0.0,0.0,0.0,0.0,0.0,0.0,0.0,0.0,0.0,0.0,0.0,0.0,0.0,0.0,0.0,0.0,0.0,0.0,0.0,0.0,0.0,0.0,0.0,0.0,0.0,0.0,0.0,0.0,0.0,0.0,0.0,0.0,0.0,0.0,0.0,0.0,0.0,0.0,0.0,0.0,0.0,0.0,0.0,-2.7649,-3.1131,-3.3531,-3.497,-3.5017,-3.5207,-3.5427,-3.2827,-3.1259,0.0,0.0,0.0,0.0,0.0,0.0,0.0,0.0,0.0,0.0,0.0,0.0,0.0,0.0,0.0,0.0,0.0,0.0,0.0,0.0,0.0,0.0,0.0,0.0,0.0,0.0,0.0,0.0,0.0,0.0,0.0,0.0,0.0,0.0,0.0,0.0,0.0,0.0,0.0,0.0,0.0,-4.1035,-4.2031,-4.1816,0.0,0.0,0.0,0.0,-3.9609,-4.0273,0.0,0.0,0.0,0.0,0.0,0.0,0.0,0.0,0.0,0.0,0.0,0.0,0.0,0.0,0.0,0.0,0.0,0.0,0.0,0.0,0.0,0.0,0.0,0.0,0.0,0.0,0.0,0.0,0.0,0.0,0.0,0.0,0.0,0.0,0.0,0.0,0.0,0.0,0.0,0.0,0.0,0.0,0.0,0.0,0.0,0.0,0.0,0.0,0.0,0.0,0.0,0.0,0.0,0.0,0.0,0.0,-2.6854,-2.8663,-3.0342,-3.1624,-3.2205,-3.2489,-3.2502,-3.1375,-3.0585,0.0,0.0,0.0,0.0,0.0,0.0,0.0,0.0,0.0,0.0,0.0,0.0,0.0,0.0,0.0,0.0,0.0,0.0,0.0,0.0,0.0,0.0,0.0,0.0,0.0,0.0,0.0,0.0,0.0,0.0,0.0,0.0,0.0,0.0,0.0,0.0,0.0,0.0,0.0,0.0,0.0,-4.168,-4.3262,-4.3125,-4.2558,0.0,0.0,-4.1797,-4.1055,-4.2598,0.0,0.0,0.0,0.0,0.0,0.0,0.0,0.0,0.0,0.0,0.0,0.0,0.0,0.0,0.0,0.0,0.0,0.0,0.0,0.0,0.0,0.0,0.0,0.0,0.0,0.0,0.0,0.0,0.0,0.0,0.0,0.0,0.0,0.0,0.0,0.0,0.0,0.0,0.0,0.0,0.0,0.0,0.0,0.0,0.0,0.0,0.0,0.0,0.0,0.0,0.0,0.0,0.0,0.0,0.0,-2.5398,-2.6827,-2.8604,-3.0074,-3.1183,-3.1476,-3.169,-3.1851,-3.0617,-2.9716,0.0,0.0,0.0,0.0,0.0,0.0,0.0,0.0,0.0,0.0,0.0,0.0,0.0,0.0,0.0,0.0,0.0,0.0,0.0,0.0,0.0,0.0,0.0,0.0,0.0,0.0,0.0,0.0,0.0,0.0,0.0,0.0,0.0,0.0,0.0,0.0,0.0,0.0,0.0,0.0,0.0,0.0,-4.3906,-4.4355,0.0,0.0,0.0,-4.3164,-4.2051,0.0,0.0,0.0,0.0,0.0,0.0,0.0,0.0,0.0,0.0,0.0,0.0,0.0,0.0,0.0,0.0,0.0,0.0,0.0,0.0,0.0,0.0,0.0,0.0,0.0,0.0,0.0,0.0,0.0,0.0,0.0,0.0,0.0,0.0,0.0,0.0,0.0,0.0,0.0,0.0,0.0,0.0,0.0,0.0,0.0,0.0,0.0,0.0,0.0,0.0,0.0,0.0,0.0,0.0,0.0,0.0,0.0,-2.672,-2.8684,-3.0154,-3.1076,-3.1263,-3.1436,-3.1637,-3.0247,0.0,0.0,0.0,0.0,0.0,0.0,0.0,0.0,0.0,0.0,0.0,0.0,0.0,0.0,0.0,0.0,0.0,0.0,0.0,0.0,0.0,0.0,0.0,0.0,0.0,0.0,0.0,-3.1211,0.0,0.0,0.0,0.0,0.0,0.0,0.0,0.0,0.0,0.0,0.0,0.0,0.0,0.0,-4.2988,-4.4512,-4.5449,-4.5801,0.0,0.0,-4.4414,-4.3125,-4.3555,-4.3379,0.0,0.0,0.0,0.0,0.0,0.0,0.0,0.0,0.0,0.0,0.0,0.0,0.0,0.0,0.0,0.0,0.0,0.0,0.0,0.0,0.0,0.0,0.0,0.0,0.0,0.0,0.0,0.0,0.0,0.0,0.0,0.0,0.0,0.0,0.0,0.0,0.0,0.0,0.0,0.0,0.0,0.0,0.0,0.0,0.0,0.0,0.0,0.0,0.0,0.0,0.0,0.0,0.0,0.0,0.0,-2.6413,-2.819,-2.9673,-3.0782,-3.1356,-3.165,-3.165,-3.0261,-2.9111,0.0,0.0,0.0,0.0,0.0,0.0,0.0,0.0,0.0,0.0,0.0,0.0,0.0,0.0,0.0,0.0,0.0,0.0,0.0,0.0,0.0,0.0,0.0,0.0,0.0,0.0,0.0,0.0,0.0,0.0,0.0,0.0,0.0,0.0,0.0,0.0,0.0,0.0,0.0,0.0,0.0,-4.3203,-4.5293,-4.6308,-4.6953,0.0,0.0,-4.5742,-4.4453,-4.5605,-4.543,-4.1777,0.0,0.0,0.0,0.0,0.0,0.0,0.0,0.0,0.0,0.0,0.0,0.0,0.0,0.0,0.0,0.0,0.0,0.0,0.0,0.0,0.0,0.0,0.0,0.0,0.0,0.0,0.0,0.0,0.0,0.0,0.0,0.0,0.0,0.0,0.0,0.0,0.0,0.0,0.0,0.0,0.0,0.0,0.0,0.0,0.0,0.0,0.0,0.0,0.0,0.0,0.0,0.0,0.0,-2.481,-2.6373,-2.8323,-2.9793,-3.0755,-3.1183,-3.149,-3.1664,-3.0421,-2.9285,0.0,0.0,0.0,0.0,0.0,0.0,0.0,0.0,0.0,0.0,0.0,0.0,0.0,0.0,0.0,0.0,0.0,0.0,0.0,0.0,0.0,0.0,0.0,0.0,0.0,0.0,0.0,0.0,-3.2637,-3.2832,-3.2578,0.0,0.0,0.0,0.0,0.0,0.0,0.0,0.0,0.0,0.0,-4.3516,-4.541,-4.6406,0.0,0.0,-4.6289,-4.5664,-4.4902,-4.4863,-4.4277,-4.2266,-4.1074,0.0,0.0,0.0,0.0,0.0,0.0,0.0,0.0,0.0,0.0,0.0,0.0,0.0,0.0,0.0,0.0,0.0,0.0,0.0,0.0,0.0,0.0,0.0,0.0,0.0,0.0,0.0,0.0,0.0,0.0,0.0,0.0,0.0,0.0,0.0,0.0,0.0,0.0,0.0,0.0,0.0,0.0,0.0,0.0,0.0,0.0,0.0,0.0,0.0,0.0,0.0,0.0,-2.493,-2.6373,-2.8257,-2.974,-3.0768,-3.1076,-3.137,-3.1623,-3.0702,-2.9726,0.0,0.0,0.0,0.0,0.0,0.0,0.0,0.0,0.0,0.0,0.0,0.0,0.0,0.0,0.0,0.0,0.0,0.0,0.0,0.0,0.0,0.0,0.0,0.0,0.0,0.0,0.0,0.0,-3.3066,-3.3262,-3.2832,0.0,0.0,0.0,0.0,0.0,0.0,0.0,0.0,0.0,0.0,-4.3711,-4.543,-4.6191,-4.6543,-4.6504,-4.5918,-4.5371,-4.5078,-4.4394,-4.3574,-4.2578,0.0,0.0,0.0,0.0,0.0,0.0,0.0,0.0,0.0,0.0,0.0,0.0,0.0,0.0,0.0,0.0,0.0,0.0,0.0,0.0,0.0,0.0,0.0,0.0,0.0,0.0,0.0,0.0,0.0,0.0,-2.2031,0.0,0.0,0.0,0.0,0.0,0.0,0.0,0.0,0.0,0.0,0.0,0.0,0.0,0.0,0.0,0.0,0.0,0.0,0.0,0.0,0.0,0.0,-2.493,-2.6386,-2.7883,-2.9325,-3.0728,-3.1076,-3.137,-3.1637,-3.1089,-3.0221,-2.9045,0.0,0.0,0.0,0.0,0.0,0.0,0.0,0.0,0.0,0.0,0.0,0.0,0.0,0.0,0.0,0.0,0.0,0.0,0.0,0.0,0.0,0.0,0.0,0.0,0.0,0.0,-3.3437,-3.3418,-3.3262,0.0,0.0,0.0,0.0,0.0,0.0,0.0,0.0,0.0,0.0,-4.1738,-4.3711,-4.541,-4.5683,-4.6016,-4.6758,-4.584,-4.5039,-4.5039,-4.4668,-4.3926,0.0,0.0,0.0,0.0,0.0,0.0,0.0,0.0,0.0,0.0,0.0,0.0,0.0,0.0,0.0,0.0,0.0,0.0,0.0,0.0,0.0,0.0,0.0,0.0,0.0,0.0,0.0,-2.5732,-2.5331,0.0,0.0,0.0,0.0,0.0,0.0,0.0,0.0,0.0,0.0,0.0,-2.9568,-3.026,0.0,0.0,0.0,0.0,0.0,0.0,0.0,0.0,0.0,0.0,0.0,0.0,-2.493,-2.6373,-2.7856,-2.9125,-3.0181,-3.0875,-3.1276,-3.137,-3.1183,-3.0354,-2.8791,0.0,0.0,0.0,0.0,0.0,0.0,0.0,0.0,0.0,0.0,0.0,0.0,0.0,0.0,0.0,0.0,0.0,0.0,0.0,0.0,0.0,0.0,0.0,0.0,0.0,-3.4434,0.0,0.0,0.0,0.0,0.0,0.0,0.0,0.0,0.0,0.0,0.0,-3.8516,-4.123,-4.2676,-4.3926,-4.5098,-4.5488,-4.5781,0.0,0.0,0.0,0.0,0.0,0.0,0.0,0.0,0.0,0.0,0.0,0.0,0.0,0.0,-4.2441,-4.0449,-3.9844,-3.9453,-3.873,0.0,0.0,0.0,0.0,0.0,0.0,0.0,0.0,0.0,0.0,0.0,0.0,0.0,0.0,0.0,0.0,-2.5798,0.0,0.0,0.0,0.0,0.0,0.0,0.0,0.0,-2.6516,-2.8743,-3.1394,-3.2574,-3.4386,0.0,-3.5369,-3.3026,0.0,0.0,0.0,0.0,0.0,0.0,0.0,0.0,-2.5472,-2.6692,-2.7909,-2.9085,-3.0034,-3.0635,-3.1022,-3.1209,-3.1129,-3.0394,-2.8965,-2.7848,-2.6928,0.0,0.0,0.0,0.0,0.0,0.0,0.0,0.0,0.0,0.0,0.0,0.0,0.0,0.0,0.0,0.0,0.0,0.0,0.0,0.0,0.0,0.0,0.0,-3.4687,0.0,0.0,0.0,0.0,0.0,0.0,0.0,0.0,0.0,-3.7754,-3.8769,-4.0332,-4.2578,-4.3476,-4.4258,-4.5137,0.0,0.0,0.0,0.0,0.0,0.0,0.0,-4.5234,-4.5078,-4.5312,-4.5605,-4.5879,-4.625,-4.6582,-4.6758,0.0,0.0,-4.2812,-4.2168,-4.1797,-4.0937,-4.123,-4.1582,-4.1445,-4.1758,-4.1894,0.0,0.0,0.0,0.0,0.0,0.0,0.0,0.0,-2.8217,-2.7909,0.0,-2.6747,0.0,0.0,0.0,0.0,0.0,-2.4716,0.0,0.0,-2.9064,-3.1542,-3.3409,-3.5287,-3.7144,-3.8605,-3.7105,-3.5949,-3.4793,-2.9639,0.0,0.0,0.0,0.0,0.0,0.0,-2.6586,-2.7469,-2.8184,-2.9179,-3.0261,-3.0354,-3.0648,-3.1196,-3.0969,-3.0434,-2.9566,-2.8684,-2.7821,-2.6996,-2.6808,0.0,0.0,0.0,0.0,0.0,0.0,0.0,0.0,0.0,0.0,0.0,0.0,0.0,0.0,0.0,0.0,0.0,0.0,0.0,0.0,-3.4492,0.0,0.0,0.0,0.0,0.0,0.0,0.0,0.0,0.0,0.0,-3.8867,-4.0879,-4.2754,-4.3633,0.0,0.0,0.0,0.0,-4.4609,-4.5039,-4.5449,-4.5605,-4.5215,-4.6152,-4.6797,-4.6406,0.0,0.0,-4.7656,-4.7324,-4.7461,-4.8652,-4.8496,-4.7461,-4.5019,-4.4199,-4.3594,-4.2773,-4.3242,-4.3594,-4.332,-4.3516,-4.3555,-3.1558,0.0,0.0,0.0,0.0,-2.8898,-2.9339,-2.9726,-2.9726,-2.9513,-2.9112,-2.8323,0.0,0.0,0.0,0.0,0.0,0.0,-2.7208,-2.9123,-3.0572,-3.3161,-3.6605,-3.7363,-3.8799,-4.0432,-3.931,-3.7203,-3.3888,-3.1629,-2.9585,-2.7803,0.0,0.0,0.0,0.0,-2.8017,-2.9355,-2.9129,-2.9179,-2.9726,-3.014,-3.0635,-3.1209,-3.1356,-3.1196,-3.0742,-2.9873,-2.9058,-2.8466,-2.7469,0.0,0.0,0.0,0.0,0.0,0.0,0.0,0.0,0.0,0.0,0.0,0.0,0.0,0.0,0.0,0.0,0.0,0.0,0.0,-3.5351,-3.5566,-3.5762,0.0,0.0,0.0,0.0,0.0,0.0,0.0,0.0,0.0,-4.2598,-4.2539,-4.2988,0.0,0.0,-4.4941,-4.5176,-4.5527,-4.5801,-4.5918,-4.6562,0.0,0.0,-4.7168,-4.7363,-4.7226,-4.793,-4.8691,-4.9336,-4.9336,-4.9375,-4.9746,-4.9433,-4.8789,-4.7832,-4.6973,-4.6191,-4.5449,-4.541,-4.5527,-4.543,-4.5488,-4.5391,-3.5675,-3.2071,-3.06,-2.9793,-2.9766,-3.0047,-3.0448,-3.0889,-3.1009,-3.0889,-3.0581,-2.9927,-2.8991,-2.7829,-2.6827,0.0,0.0,0.0,-2.8543,-3.0824,-3.232,-3.4783,-3.7914,-3.9123,-4.0091,-4.1152,-3.9681,-3.7778,-3.5295,-3.3158,-3.1565,-3.0514,0.0,0.0,-3.0795,-2.9747,-2.9888,-3.1003,-2.9898,-2.9419,-2.982,-3.0287,-3.0648,-3.0875,-3.1276,-3.1718,-3.2505,-3.1199,-3.0461,-3.0769,-2.8964,-2.7762,0.0,0.0,0.0,0.0,0.0,0.0,0.0,0.0,0.0,0.0,0.0,-3.3965,0.0,0.0,0.0,0.0,-3.4492,-3.5234,-3.6191,-3.6582,0.0,0.0,0.0,0.0,0.0,0.0,0.0,-4.1875,-4.3027,-4.4141,-4.5234,-4.457,-4.4414,-4.5625,-4.5644,-4.5586,-4.5762,0.0,-4.6543,-4.6562,-4.7285,-4.7773,-4.7617,-4.8027,-4.8359,-4.8359,-4.8926,-4.9453,-4.9805,-4.9922,-5.0039,-5.0273,-4.9941,-4.9492,-4.9414,-4.8691,-4.7754,-4.6777,-4.668,-4.6719,-4.6387,-4.6426,-4.6387,-4.0142,-3.6807,-3.2589,-3.0899,-3.0955,-3.1223,-3.1503,-3.1784,-3.2038,-3.1971,-3.169,-3.137,-3.0581,-2.9419,-2.8337,0.0,-2.8203,-2.8217,-2.9509,-3.1813,-3.4093,-3.6208,-3.8322,-4.0292,-4.125,-4.1211,-3.8919,-3.7775,-3.7667,-3.4131,-3.2242,-3.2243,-3.0854,-3.1576,-3.4057,-3.2678,-3.2267,-3.2876,-3.086,-2.986,-3.0341,-3.0621,-3.0621,-3.0341,-3.0862,-3.2094,-3.4126,-3.2407,-3.2169,-3.3556,-3.1179,-2.9091,-2.7735,0.0,0.0,0.0,0.0,0.0,0.0,0.0,0.0,0.0,0.0,0.0,0.0,0.0,0.0,0.0,-3.5586,0.0,-3.6875,-3.7656,0.0,0.0,0.0,-3.9785,-4.0625,-4.1797,-4.3047,-4.4355,0.0,0.0,-4.6914,-4.6601,-4.6484,-4.6973,-4.6601,-4.6465,-4.6875,-4.6894,-4.6953,-4.7031,-4.7695,-4.8066,-4.7851,-4.8633,-4.9316,-4.9394,-4.9863,-4.9941,-4.9746,-4.957,-4.9883,-5.0625,-5.0098,-4.9629,-5.0058,-4.9394,-4.8516,-4.7285,-4.7266,-4.7246,-4.6582,-4.6601,-4.6582,-4.4095,-4.2537,-3.7501,-3.4148,-3.2144,-3.2211,-3.2398,-3.2652,-3.2505,-3.2278,-3.1971,-3.145,-3.0581,-2.9472,-2.9192,-2.8978,-2.8831,-2.8818,-3.0994,-3.4629,-3.521,-3.7543,-4.1292,-4.1791,-4.1953,-4.1503,-3.9326,-3.7258,-3.519,-3.278,-3.2499,-3.4212,-3.4049,-3.4425,-3.5244,-3.4633,-3.497,-3.5999,-3.2641,-3.0662,-3.0368,-3.0421,-3.0327,-3.0034,-3.0368,-3.1485,-3.3457,-3.3176,-3.3676,-3.5221,-3.2859,-3.1753,-3.2501,-3.0505,0.0,0.0,0.0,0.0,0.0,0.0,0.0,0.0,0.0,-3.4551,-3.4551,0.0,-3.5566,0.0,-3.6309,-3.7578,-3.8984,-3.959,0.0,0.0,-4.1348,-4.1875,-4.2402,-4.3027,-4.3906,-4.5215,-4.5547,-4.623,-4.7715,-4.6973,-4.6699,-4.7715,-4.6973,-4.6445,-4.6855,-4.6933,-4.7168,-4.7754,-4.8066,-4.8301,-4.8516,-4.8789,-4.9141,-4.9473,-4.9629,-4.9863,-5.0391,-4.9961,-4.9805,-5.0566,-5.0117,-4.9629,-4.9668,-4.9492,-4.9023,-4.8105,-4.748,-4.7031,-4.6816,-4.6621,-4.6406,-4.5652,-4.4839,-4.0607,-3.7296,-3.4661,-3.3375,-3.2906,-3.3146,-3.2866,-3.2652,-3.2452,-3.1877,-3.1183,-3.0461,-3.0181,-2.998,-2.982,-2.9686,-3.1859,-3.5804,-3.5968,-3.8399,-4.2261,-4.2422,-4.2305,-4.1911,-3.8744,-3.6362,-3.4686,-3.1751,-3.1015,-3.2358,-3.4822,-3.6142,-3.6622,-3.7419,-3.837,-3.9265,-3.5197,-3.2139,-3.0194,-3.0154,-3.0133,-2.9893,-3.0506,-3.2146,-3.4548,-3.4355,-3.513,-3.6811,-3.471,-3.34,-3.352,-3.2227,-3.1579,0.0,0.0,0.0,0.0,0.0,0.0,0.0,0.0,0.0,0.0,0.0,-3.7109,0.0,-3.8496,-3.9648,-4.1172,-4.1523,-4.1914,-4.2578,-4.3027,-4.3476,-4.3906,-4.4648,-4.5488,-4.6406,-4.6855,-4.7441,-4.834,-4.7715,-4.7324,-4.7871,-4.7148,-4.6738,-4.7148,-4.7363,-4.7617,-4.7891,-4.8242,-4.8574,-4.8828,-4.8848,-4.8945,-4.918,-4.9394,-4.9648,-4.9883,-4.9551,-4.9394,-4.9785,-4.9394,-4.9023,-4.918,-4.9062,-4.875,-4.8281,-4.7519,-4.707,-4.7168,-4.6738,-4.6348,-4.6572,-4.5979,-4.3087,-4.0432,-3.8066,-3.4914,-3.3611,-3.3387,-3.3066,-3.2906,-3.2839,-3.2291,-3.1904,-3.1637,-3.1102,-3.0849,-3.0822,-3.0541,-3.2405,-3.5816,-3.6371,-3.8572,-4.2172,-4.2514,-4.2456,-4.1837,-3.7892,-3.5672,-3.5157,-3.1038,-2.9206,-2.974,-3.4549,-3.7341,-3.8315,-4.0464,-4.1257,-4.0981,-3.6766,-3.3196,-3.0047,-2.9913,-2.977,-2.9768,-3.0789,-3.2925,-3.5935,-3.558,-3.6467,-3.8504,-3.6812,-3.5095,-3.3684,-3.4142,-3.3914,0.0,-3.4139,0.0,0.0,0.0,0.0,0.0,0.0,0.0,0.0,-3.7519,-3.8945,-4.0625,-4.1113,-4.1855,-4.3144,-4.3301,-4.3496,-4.3926,-4.4414,-4.4844,-4.5195,-4.623,-4.707,-4.7461,-4.8144,-4.8633,-4.8711,-4.8398,-4.7969,-4.7715,-4.7246,-4.707,-4.748,-4.7773,-4.7851,-4.7656,-4.8281,-4.8652,-4.8633,-4.8711,-4.8769,-4.8808,-4.9199,-4.9375,-4.9082,-4.9004,-4.8945,-4.8887,-4.8711,-4.8516,-4.8691,-4.8457,-4.8281,-4.8125,-4.7461,-4.7051,-4.7266,-4.6836,-4.6465,-4.9127,-4.8535,-4.5925,-4.4339,-4.3279,-3.8869,-3.5536,-3.3374,-3.2853,-3.2492,-3.2251,-3.1904,-3.173,-3.1637,-3.1303,-3.1142,-3.1129,-3.0835,-3.2071,-3.4575,-3.6034,-3.8135,-4.1056,-4.3151,-4.2602,-4.0125,-3.8152,-3.5596,-3.2479,-3.0079,-3.0059,-3.191,-3.5013,-3.7912,-4.0785,0.0,0.0,0.0,-3.3128,-3.1824,-3.0635,-2.9927,-2.9568,-2.9727,-3.0381,0.0,-3.4867,-3.6169,-3.7841,-3.9926,-3.8707,0.0,0.0,0.0,0.0,0.0,0.0,0.0,0.0,0.0,0.0,0.0,-3.9473,-3.9219,-3.8242,-3.9277,-4.0605,-4.1914,-4.2148,-4.2715,-4.4023,-4.4453,-4.4824,-4.5273,-4.5976,-4.6348,-4.6133,-4.6582,-4.6973,-4.7051,-4.7207,-4.7578,-4.8203,-4.7969,-4.7812,-4.793,-4.7402,-4.7148,-4.75,-4.7344,-4.7402,-4.7949,-4.8281,-4.8203,-4.7871,-4.8164,-4.8457,-4.8418,-4.9023,-4.9414,-4.9355,-4.9316,-4.9219,-4.8906,-4.9082,-4.8867,-4.8066,-4.8301,-4.8476,-4.7832,-4.7305,-4.6953,-4.7031,-4.666,-4.6328,-5.0234,0.0,-4.8006,-4.6352,0.0,-4.2307,-3.9026,-3.5111,-3.3361,-3.2305,-3.1877,-3.173,-3.1677,-3.165,-3.1356,-3.1223,-3.1223,-3.1076,-3.2181,-3.4156,-3.5249,-3.7623,-4.116,-4.2419,-4.2026,-4.0395,-3.8305,-3.5777,-3.2699,-3.0336,-3.0594,-3.33,-3.5713,-3.8683,-4.1912,-4.3607,-4.1559,-3.5817,-3.4248,-3.2362,-3.0381,-2.978,-2.9447,-2.9521,0.0,0.0,0.0,0.0,0.0,0.0,0.0,0.0,0.0,0.0,0.0,-4.0163,-3.9353,-3.8999,-3.9232,-3.9726,-4.0059,-4.0508,-4.1504,-4.1543,-4.0273,-4.0976,-4.2012,-4.3262,-4.3594,-4.416,-4.5215,-4.5527,-4.5742,-4.5976,-4.6367,-4.6445,-4.6133,-4.6562,-4.6836,-4.6738,-4.7187,-4.7676,-4.7851,-4.793,-4.7773,-4.7598,-4.7226,-4.6953,-4.6953,-4.6953,-4.7305,-4.832,-4.832,-4.8223,-4.8262,-4.8574,-4.8652,-4.8418,-4.8574,-4.8828,-4.8867,-4.8516,-4.8223,-4.8203,-4.8262,-4.8086,-4.8047,-4.8262,-4.8398,-4.7988,-4.7715,-4.748,-4.7285,-4.6758,-4.6367,-5.0203,-5.0215,-4.9433,-4.7908,-4.5938,-4.5234,-4.1947,-3.7055,0.0,0.0,0.0,-3.1934,-3.2273,-3.2933,-3.1826,-3.1531,-3.1851,-3.149,-3.226,-3.3817,-3.4389,-3.668,-4.0158,-4.0684,-4.0613,-3.9931,-3.7691,-3.5398,-3.2983,-3.0725,-3.1109,-3.3932,-3.6355,-3.9423,-4.2682,-4.3054,-4.2114,-3.9903,-3.6631,-3.3656,-3.0643,-2.981,-2.938,-2.9289,-3.0156,-3.2158,-3.5229,-3.6679,-3.8689,-4.1133,-4.1771,-4.2144,-4.2048,-4.1817,-4.1785,-4.1998,-4.1405,-4.0976,-4.0996,-4.1367,-4.1699,-4.1836,-4.3223,-4.3535,-4.2344,-4.2637,-4.3359,-4.4531,-4.4941,-4.5449,-4.623,-4.6308,-4.6308,-4.6308,-4.6367,-4.625,-4.5918,-4.6445,-4.6777,-4.6504,-4.7246,-4.7851,-4.7519,-4.7891,-4.7969,-4.7363,-4.7266,-4.6953,-4.6601,-4.6836,-4.7422,-4.8281,-4.8379,-4.8437,-4.8691,-4.9043,-4.9062,-4.8359,-4.8223,-4.8183,-4.8008,-4.7519,-4.7207,-4.7461,-4.7207,-4.7383,-4.7851,-4.8008,-4.8086,-4.8086,-4.8086,-4.7988,-4.7637,-4.7031,-4.668,-4.8562,-5.0683,-5.0195,-4.9791,-4.9204,-4.6955,-4.2867,-3.7267,-3.3948,-3.3478,-3.5017,-3.2968,-3.4305,-3.7727,-3.3724,-3.2952,-3.4534,-3.2514,-3.1773,0.0,-3.3871,-3.4998,-3.5684,-3.7826,-3.7501,-3.5064,-3.512,-3.3558,-3.0465,-3.0455,-3.1638,-3.3751,-3.6467,-4.0526,-4.5083,-4.4115,-4.3018,-4.2264,-3.736,-3.4186,-3.2896,-3.0668,-2.938,-2.933,-3.0367,-3.2369,-3.5246,-3.7176,-3.9246,-4.1675,-4.2818,-4.3234,-4.2942,-4.3156,-4.3137,-4.3008,-4.2812,-4.2715,-4.2715,-4.3125,-4.3691,-4.4433,-4.5058,-4.5019,-4.4141,-4.4414,-4.4902,-4.5449,-4.5566,-4.5781,-4.623,-4.6328,-4.6328,-4.6328,-4.6621,-4.666,-4.623,-4.6601,-4.6738,-4.6348,-4.6758,-4.7129,-4.7148,-4.7695,-4.8086,-4.8008,-4.7715,-4.7656,-4.7012,-4.7207,-4.7519,-4.7812,-4.8359,-4.8574,-4.8516,-4.8672,-4.875,-4.8301,-4.8203,-4.8105,-4.7812,-4.7598,-4.7383,-4.7109,-4.7285,-4.7402,-4.7305,-4.7422,-4.7695,-4.7773,-4.7793,-4.7734,-4.7656,-4.7461,-4.7402,-4.8033,-4.9142,-4.9934,-5.0312,-5.0278,-4.7258,-4.4377,-4.1298,-3.8302,-3.6576,-3.6101,-3.645,-3.768,-3.9386,-3.7305,-3.5915,-3.5592,-3.4305,-3.296,-3.184,-3.2633,-3.3844,-3.5099,-3.619,-3.6036,-3.4681,-3.4591,-3.3292,-3.0826,-3.1763,-3.3768,-3.6304,-4.0384,-4.3746,-4.6094,-4.5388,-4.4725,-4.4329,-3.943,-3.5887,-3.3841,-3.2645,-3.1133,-2.9677,-3.0137,-3.228,-3.6385,-3.7401,-3.976,-4.3845,-4.4402,-4.4785,-4.4824,-4.4805,-4.459,-4.416,-4.4141,-4.4023,-4.3808,-4.4414,-4.5156,-4.5976,-4.623,-4.6308,-4.6152,-4.5879,-4.5801,-4.6016,-4.6211,-4.6523,-4.6933,-4.6777,-4.6641,-4.6641,-4.6621,-4.6426,-4.6094,-4.6328,-4.6426,-4.6113,-4.6543,-4.6933,-4.6933,-4.7266,-4.7519,-4.75,-4.7344,-4.7012,-4.666,-4.6953,-4.7402,-4.7851,-4.8262,-4.8496,-4.8555,-4.8926,-4.8906,-4.834,-4.8203,-4.8125,-4.791,-4.7773,-4.7519,-4.7344,-4.7461,-4.7598,-4.7558,-4.7773,-4.7891,-4.7949,-4.8144,-4.8183,-4.8008,-4.793,-4.7851,-4.8306,-4.9018,-4.9953,-5.0547,-5.0414,-4.7795,-4.6097,-4.4903,-4.3362,-4.0941,-3.8799,-3.9838,-4.0882,-4.1728,-4.0579,-3.8756,-3.6915,-3.5922,-3.4118,-3.1867,-3.1677,-3.2772,-3.4406,-3.4347,-3.4304,-3.4246,-3.3978,-3.2761,-3.1421,-3.311,-3.6099,-3.9745,-4.4352,-4.6582,-4.6601,-4.6582,-4.6387,-4.5803,-4.2225,-3.8524,-3.4956,-3.429,-3.2742,-3.0119,-3.0047,-3.2491,-3.7299,-3.7832,-4.0316,-4.5415,-4.5996,-4.6172,-4.6289,-4.6094,-4.5683,-4.5137,-4.5117,-4.5019,-4.4766,-4.5293,-4.6035,-4.6855,-4.7012,-4.7207,-4.748,-4.7168,-4.6777,-4.668,-4.6875,-4.7207,-4.7441,-4.7285,-4.707,-4.7051,-4.6797,-4.6484,-4.6094,-4.6269,-4.6289,-4.5996,-4.6406,-4.6777,-4.6797,-4.6875,-4.7012,-4.707,-4.6719,-4.6465,-4.6484,-4.668,-4.709,-4.7695,-4.8066,-4.832,-4.8691,-4.8945,-4.8867,-4.8262,-4.8203,-4.8125,-4.8027,-4.7812,-4.7676,-4.7598,-4.7558,-4.7734,-4.8086,-4.8183,-4.8223,-4.832,-4.8574,-4.8691,-4.8437,-4.8125,-4.791,-4.9956,-5.1904,-5.1484,-5.0879,-5.0254,-4.9928,-4.8064,-4.6097,-4.7234,-4.6654,-4.4033,-4.1832,-4.3005,-4.597,-4.2615,-4.032,-3.9184,-3.6899,-3.4508,-3.2056,-3.1677,-3.1853,-3.238,-3.196,-3.1624,-3.1838,-3.177,-3.1448,-3.1114,-3.3828,-3.7712,-4.2566,-4.5934,-4.7402,-4.7422,-4.7422,-4.7207,-4.6816,-4.6074,-4.2923,-3.7474,-3.5397,-3.2959,-2.994,-3.0434,-3.3038,-3.7887,-3.8678,-4.1226,-4.5744,-4.6953,-4.7051,-4.6445,-4.6621,-4.6269,-4.5137,-4.5391,-4.5586,-4.5566,-4.5625,-4.6055,-4.6836,-4.7285,-4.7539,-4.7637,-4.8223,-4.8262,-4.7676,-4.75,-4.7578,-4.7578,-4.7558,-4.7519,-4.7519,-4.7441,-4.7285,-4.6894,-4.6836,-4.6719,-4.6289,-4.6406,-4.6387,-4.6523,-4.6758,-4.7051,-4.7266,-4.6973,-4.6719,-4.6719,-4.6543,-4.6543,-4.707,-4.7656,-4.8144,-4.8301,-4.8281,-4.8379,-4.8242,-4.8223,-4.8125,-4.7949,-4.7988,-4.8047,-4.7754,-4.7695,-4.7871,-4.8105,-4.8223,-4.8359,-4.8613,-4.8769,-4.8828,-4.8711,-4.8183,-4.7578,-4.9877,-5.1033,-5.1653,-5.1172,-5.0215,-4.9902,-4.8949,-4.7759,-4.8555,-4.8273,-4.7288,-4.5964,-4.6445,-4.7787,-4.5852,-4.4082,-4.2075,-4.0913,-3.8901,-3.6528,-3.6173,-3.6066,-3.5866,-3.4289,-3.3758,-3.3742,-3.2312,-3.1436,-3.2038,-3.5013,-3.943,-4.4322,-4.5997,-4.6582,-4.6797,-4.6836,-4.6738,-4.6562,-4.6387,-4.4404,-4.0896,-3.9515,-3.7013,-3.3597,-3.4501,-3.6183,-3.8547,-4.0292,-4.2909,-4.6288,-4.7012,-4.7031,-4.6699,-4.6836,-4.6348,-4.5176,-4.5195,-4.541,-4.5664,-4.5898,-4.6406,-4.7266,-4.748,-4.7773,-4.8301,-4.8672,-4.8691,-4.8418,-4.834,-4.834,-4.8301,-4.8105,-4.7949,-4.793,-4.7734,-4.7519,-4.7344,-4.7305,-4.7226,-4.707,-4.6836,-4.6777,-4.6973,-4.6973,-4.6914,-4.6875,-4.666,-4.6601,-4.6543,-4.6406,-4.6387,-4.6582,-4.709,-4.7637,-4.8027,-4.8203,-4.8301,-4.8496,-4.8594,-4.8437,-4.8086,-4.8301,-4.8457,-4.8027,-4.8105,-4.8281,-4.8555,-4.8594,-4.8672,-4.8848,-4.8808,-4.873,-4.8223,-4.7832,-4.7344,-5.0937,-5.0865,-5.1608,-5.123,-5.0156,-4.9707,-4.9277,-4.8887,-4.8848,-4.8848,-4.8848,-4.8848,-4.8613,-4.8262,-4.832,-4.6808,-4.4342,-4.3851,-4.2189,-4.0007,-3.929,-3.9142,-3.8942,-3.7486,-3.6139,-3.5583,-3.4012,-3.3345,-3.3944,-3.6537,-4.0896,-4.5241,-4.6016,-4.6172,-4.6445,-4.6465,-4.6406,-4.6308,-4.6308,-4.5392,-4.3867,-4.3449,-4.0946,-3.6782,-3.7595,-3.9008,-4.0203,-4.1779,-4.3967,-4.6892,-4.7109,-4.7051,-4.6933,-4.6933,-4.6406,-4.5371,-4.5215,-4.5351,-4.5664,-4.6074,-4.6621,-4.7305,-4.75,-4.7891,-4.8516,-4.8789,-4.8926,-4.9004,-4.8945,-4.8828,-4.8808,-4.8574,-4.8398,-4.8359,-4.8105,-4.791,-4.7773,-4.7754,-4.7695,-4.7578,-4.7266,-4.7207,-4.7441,-4.7305,-4.7012,-4.6641,-4.6523,-4.6406,-4.6328,-4.6308,-4.6308,-4.6308,-4.6582,-4.7031,-4.7715,-4.793,-4.8183,-4.8437,-4.8555,-4.8613,-4.8242,-4.8476,-4.8691,-4.8242,-4.8555,-4.8711,-4.875,-4.8808,-4.8808,-4.8789,-4.8856,-4.9005,-4.9472,-4.8454,-4.7702,-5.3566,-5.3002,-5.1992,-5.0976,-5.0156,-4.9707,-4.9258,-4.8848,-4.8848,-4.8848,-4.8848,-4.8848,-4.8613,-4.8281,-4.8613,-4.7246,-4.4964,-4.4688,-4.3342,-4.0764,-4.0209,-3.9673,-3.9488,-3.9488,-3.8222,-3.6677,-3.6321,-3.7019,-3.8764,-3.9125,-4.1687,-4.6481,-4.6777,-4.6816,-4.6836,-4.6777,-4.666,-4.6289,-4.623,-4.6094,-4.6094,-4.6056,-4.3634,-3.9406,-3.8613,-4.0027,-4.2441,-4.282,-4.4059,-4.75,-4.7461,-4.7324,-4.6973,-4.6914,-4.6484,-4.5742,-4.5625,-4.5644,-4.5742,-4.6094,-4.6562,-4.6992,-4.7441,-4.7793,-4.832,-4.8711,-4.9062,-4.9433,-4.916,-4.8945,-4.8945,-4.8848,-4.8769,-4.8769,-4.8789,-4.8555,-4.8223,-4.8183,-4.7988,-4.7734,-4.7598,-4.7558,-4.7578,-4.7578,-4.7324,-4.7031,-4.6894,-4.6797,-4.6523,-4.6387,-4.6387,-4.6367,-4.6426,-4.6523,-4.6953,-4.7363,-4.7598,-4.7891,-4.832,-4.8535,-4.8301,-4.8144,-4.8281,-4.834,-4.8262,-4.8379,-4.8711,-4.8808,-4.875,-4.8758,-4.863,-4.8952,-5.0224,-4.8691,-4.8365,-5.3437,-5.248,-5.1738,-5.0957,-5.0156,-4.9707,-4.9277,-4.8867,-4.8848,-4.8848,-4.8848,-4.8848,-4.8769,-4.8633,-4.8789,-4.8245,-4.6903,-4.6884,-4.6404,-4.528,-4.491,-4.4725,-4.4543,-4.323,-4.2047,-4.1153,-3.9952,-4.033,-4.2238,-4.2031,-4.3597,-4.6594,-4.6777,-4.6523,-4.6484,-4.6269,-4.6035,-4.5898,-4.5644,-4.5605,-4.5879,-4.5625,-4.4703,-4.3338,-4.3209,-4.2913,-4.2459,-4.3783,-4.5258,-4.6738,-4.6758,-4.6699,-4.6523,-4.6269,-4.6016,-4.5723,-4.5683,-4.5801,-4.6074,-4.6465,-4.7012,-4.7676,-4.7891,-4.8164,-4.8594,-4.9023,-4.9355,-4.9492,-4.9687,-4.9687,-4.957,-4.9199,-4.8848,-4.8848,-4.8848,-4.8789,-4.8672,-4.8613,-4.8555,-4.8398,-4.8164,-4.7891,-4.7695,-4.7598,-4.7519,-4.7383,-4.7344,-4.7266,-4.7168,-4.7129,-4.6973,-4.6816,-4.6933,-4.707,-4.6875,-4.7031,-4.7266,-4.7637,-4.7949,-4.7832,-4.7656,-4.793,-4.8105,-4.791,-4.7832,-4.8125,-4.8496,-4.8437,-4.8418,-4.8287,-4.8176,-4.944,-5.0848,-5.0318,-5.0782,-5.2891,-5.207,-5.1465,-5.0898,-5.0351,-4.9766,-4.9355,-4.9082,-4.9062,-4.8984,-4.8906,-4.9004,-4.9004,-4.8867,-4.8848,-4.8711,-4.8437,-4.8418,-4.8418,-4.8379,-4.7969,-4.7793,-4.7593,-4.6083,-4.4893,-4.3945,-4.18,-4.18,-4.4113,-4.3613,-4.4758,-4.732,-4.6836,-4.6504,-4.6445,-4.6074,-4.5879,-4.582,-4.5586,-4.5605,-4.582,-4.5586,-4.5488,-4.5644,-4.5683,-4.501,-4.3496,-4.4837,-4.5937,-4.6387,-4.6387,-4.6367,-4.6465,-4.623,-4.6016,-4.5918,-4.6016,-4.6133,-4.6348,-4.6816,-4.7383,-4.7949,-4.8281,-4.8555,-4.8867,-4.9394,-4.9746,-4.9941,-5.0039,-5.0215,-5.0176,-4.959,-4.9082,-4.9043,-4.8945,-4.8867,-4.8848,-4.8848,-4.8848,-4.8789,-4.8594,-4.8301,-4.8066,-4.8027,-4.7949,-4.7812,-4.7773,-4.7754,-4.7617,-4.7441,-4.7285,-4.6992,-4.6953,-4.6894,-4.6738,-4.6699,-4.6914,-4.7266,-4.7637,-4.7441,-4.7246,-4.7578,-4.7734,-4.75,-4.7617,-4.7969,-4.8105,-4.8027,-4.7832,-4.7758,-4.8965,-5.036,-5.1466,-5.2703,-5.3337,-5.2129,-5.1933,-5.1172,-5.084,-5.0644,-4.9961,-4.957,-4.9492,-4.9473,-4.9238,-4.8945,-4.9258,-4.918,-4.8926,-4.8848,-4.8848,-4.8808,-4.8789,-4.8789,-4.875,-4.8398,-4.8203,-4.8203,-4.8021,-4.6701,-4.4833,-4.1799,-4.2003,-4.4575,-4.4344,-4.5287,-4.7121,-4.7246,-4.6953,-4.6914,-4.6465,-4.625,-4.6172,-4.6074,-4.6152,-4.6289,-4.6133,-4.5918,-4.5723,-4.5683,-4.5859,-4.6056,-4.5879,-4.6055,-4.6738,-4.6543,-4.6523,-4.6875,-4.6894,-4.6738,-4.6484,-4.6699,-4.6719,-4.6562,-4.7207,-4.7695,-4.8027,-4.8476,-4.8945,-4.9141,-4.9726,-5.0312,-5.0547,-5.0469,-5.0391,-5.0625,-5.0039,-4.9492,-4.9473,-4.9121,-4.8867,-4.8848,-4.8848,-4.8848,-4.8848,-4.8789,-4.8848,-4.8828,-4.8711,-4.8555,-4.8301,-4.8203,-4.8086,-4.7754,-4.7441,-4.707,-4.6875,-4.6816,-4.6699,-4.6504,-4.6348,-4.6582,-4.6855,-4.7226,-4.7324,-4.6894,-4.6973,-4.7246,-4.7148,-4.7461,-4.7773,-4.7558,-4.748,-4.7383,-4.7524,-4.9281,-5.1039,-5.2337,-5.3738,-5.5229,-5.2168,-5.1621,-5.1367,-5.1055,-5.0801,-5.0508,-5.0098,-4.9551,-4.9531,-4.9277,-4.8945,-4.9004,-4.8984,-4.8887,-4.8848,-4.8848,-4.8848,-4.8848,-4.8848,-4.8828,-4.8711,-4.8652,-4.8652,-4.8652,-4.8265,-4.7488,-4.6614,-4.6596,-4.7208,-4.7201,-4.7771,-4.8359,-4.8008,-4.75,-4.6973,-4.6523,-4.6191,-4.5859,-4.5566,-4.5566,-4.5801,-4.5605,-4.5508,-4.5664,-4.5683,-4.5879,-4.625,-4.5898,-4.6094,-4.6894,-4.6797,-4.6933,-4.7285,-4.7383,-4.7305,-4.7207,-4.7285,-4.7656,-4.8047,-4.8281,-4.8711,-4.9219,-4.9629,-4.9746,-4.9805,-5.0273,-5.0664,-5.084,-5.0918,-5.1113,-5.1074,-5.0469,-4.9883,-4.9551,-4.9121,-4.8848,-4.8848,-4.8848,-4.8848,-4.8848,-4.8848,-4.8848,-4.8848,-4.8848,-4.8789,-4.8672,-4.8633,-4.8476,-4.8105,-4.7851,-4.7519,-4.707,-4.6836,-4.6562,-4.6387,-4.6328,-4.6465,-4.666,-4.6933,-4.707,-4.666,-4.6621,-4.6836,-4.7109,-4.7402,-4.7422,-4.7187,-4.6973,-4.6914,-4.7949,-4.9651,-5.1482,-5.3225,-5.5019,-5.6965,-5.2305,-5.1699,-5.168,-5.1426,-5.1016,-5.0879,-5.0508,-5.0,-4.9824,-4.9512,-4.916,-4.9121,-4.9004,-4.8887,-4.8848,-4.8848,-4.8848,-4.8848,-4.8848,-4.8848,-4.8848,-4.8926,-4.9082,-4.9101,-4.8984,-4.8828,-4.8691,-4.8711,-4.8848,-4.8711,-4.8691,-4.875,-4.8418,-4.7969,-4.7402,-4.6992,-4.6621,-4.6367,-4.6152,-4.6113,-4.6269,-4.6113,-4.6035,-4.6133,-4.6133,-4.6191,-4.6308,-4.6172,-4.6465,-4.709,-4.7441,-4.7715,-4.7812,-4.7812,-4.7891,-4.8008,-4.7969,-4.8183,-4.8965,-4.9062,-4.9394,-5.0039,-5.0312,-5.041,-5.0488,-5.0781,-5.1016,-5.1094,-5.125,-5.1445,-5.1308,-5.0664,-5.0098,-4.9805,-4.9219,-4.8887,-4.8848,-4.8848,-4.8848,-4.8848,-4.8848,-4.8848,-4.8848,-4.8848,-4.8848,-4.8848,-4.8848,-4.8828,-4.8496,-4.8301,-4.7793,-4.7324,-4.7012,-4.6719,-4.6367,-4.6328,-4.6387,-4.6523,-4.668,-4.6641,-4.6406,-4.6699,-4.6953,-4.7285,-4.7598,-4.7598,-4.7383,-4.6855,-4.6797,-4.8433,-4.9784,-5.1892,-5.3874,-5.7132,-5.9094,-5.2519,-5.2109,-5.209,-5.1797,-5.1387,-5.1035,-5.082,-5.0703,-5.0391,-4.9961,-4.9629,-4.9551,-4.9355,-4.9043,-4.9082,-4.9082,-4.8945,-4.8945,-4.8965,-4.8945,-4.8926,-4.9043,-4.9414,-4.9433,-4.9277,-4.8945,-4.8594,-4.8574,-4.8828,-4.8555,-4.8437,-4.8769,-4.8496,-4.8223,-4.8027,-4.7773,-4.7519,-4.7383,-4.7441,-4.7422,-4.7461,-4.7461,-4.7305,-4.6933,-4.6914,-4.6758,-4.6484,-4.6719,-4.7129,-4.7637,-4.8301,-4.8516,-4.832,-4.8262,-4.8496,-4.8828,-4.8516,-4.8867,-4.9414,-4.9668,-4.9863,-5.0332,-5.0723,-5.084,-5.0898,-5.1211,-5.1426,-5.1367,-5.1406,-5.162,-5.1656,-5.0855,-5.0365,-5.0338,-4.9463,-4.8906,-4.8906,-4.8887,-4.8887,-4.8926,-4.8906,-4.8848,-4.8848,-4.8848,-4.8848,-4.8848,-4.8848,-4.8808,-4.8633,-4.834,-4.8027,-4.7617,-4.7168,-4.6875,-4.6543,-4.6328,-4.6406,-4.6641,-4.6758,-4.6719,-4.668,-4.7012,-4.7168,-4.748,-4.7637,-4.7637,-4.748,-4.6973,-4.6797,-4.7562,-4.9452,-5.1958,-5.474,-5.7879,-6.0072,-5.3047,-5.2109,-5.209,-5.1836,-5.1445,-5.1308,-5.1094,-5.082,-5.0703,-5.041,-5.0078,-5.0,-4.9941,-4.9824,-4.9805,-4.9824,-4.9707,-4.9473,-4.9355,-4.9297,-4.8984,-4.9121,-4.9453,-4.9531,-4.9473,-4.9316,-4.918,-4.9062,-4.8867,-4.875,-4.875,-4.8848,-4.873,-4.8496,-4.8223,-4.8105,-4.7871,-4.7617,-4.7598,-4.7617,-4.7617,-4.7617,-4.7539,-4.7441,-4.7402,-4.7187,-4.6855,-4.7168,-4.7598,-4.8027,-4.8555,-4.8828,-4.8691,-4.8945,-4.918,-4.9316,-4.9551,-4.9844,-5.0293,-5.043,-5.0644,-5.1074,-5.1367,-5.1601,-5.1308,-5.166,-5.1719,-5.1543,-5.1426,-5.2142,-5.3134,-5.1748,-5.0862,-5.1433,-5.0458,-4.9354,-4.9346,-4.9062,-4.8965,-4.9238,-4.9043,-4.8887,-4.8848,-4.8848,-4.8848,-4.8848,-4.8828,-4.8769,-4.8594,-4.8437,-4.8164,-4.7676,-4.7246,-4.7012,-4.6738,-4.6465,-4.6465,-4.6777,-4.6973,-4.7129,-4.7266,-4.7617,-4.7656,-4.7715,-4.7637,-4.7617,-4.748,-4.7148,-4.7246,-4.7285,-5.0123,-5.2954,-5.5093,-5.7808,-5.9909,-5.375,-5.2871,-5.2695,-5.2363,-5.1953,-5.1777,-5.1562,-5.1328,-5.1133,-5.084,-5.0508,-5.043,-5.0351,-5.0176,-5.0176,-5.0176,-5.0117,-4.9726,-4.9531,-4.9433,-4.9062,-4.9023,-4.9316,-4.9687,-4.9883,-4.9551,-4.9726,-4.9531,-4.9219,-4.9141,-4.9043,-4.8887,-4.8848,-4.873,-4.8535,-4.8476,-4.8379,-4.8164,-4.8105,-4.8105,-4.8125,-4.8125,-4.7988,-4.791,-4.7832,-4.7695,-4.7539,-4.7715,-4.7969,-4.8242,-4.8594,-4.8848,-4.8887,-4.9277,-4.959,-4.9785,-5.0058,-5.041,-5.0898,-5.0918,-5.1016,-5.1348,-5.1699,-5.166,-5.1504,-5.168,-5.166,-5.1484,-5.2023,-5.2821,-5.285,-5.2034,-5.2394,-5.3707,-5.2998,-5.1817,-5.0863,-4.9723,-4.9169,-4.9101,-4.9043,-4.8848,-4.8848,-4.8848,-4.8848,-4.8848,-4.8848,-4.873,-4.8594,-4.8476,-4.8867,-4.8773,-4.8315,-4.8213,-4.8109,-4.8003,-4.7579,-4.7701,-4.7461,-4.7578,-4.7773,-4.8105,-4.8027,-4.791,-4.7715,-4.7598,-4.7558,-4.748,-4.7402,-4.8473,-5.1329,-5.3295,-5.5111,-5.7619,-5.9569,-5.4512,-5.3984,-5.3594,-5.3144,-5.2656,-5.2305,-5.2129,-5.2051,-5.168,-5.1308,-5.1016,-5.0898,-5.0703,-5.0312,-5.0469,-5.0351,-5.0332,-5.0,-4.9726,-4.959,-4.9355,-4.9258,-4.9316,-5.0098,-5.0215,-4.9883,-5.0098,-4.9941,-4.9648,-4.9551,-4.9316,-4.9043,-4.8926,-4.8906,-4.8906,-4.8926,-4.8945,-4.8984,-4.8887,-4.8848,-4.8808,-4.875,-4.8555,-4.832,-4.8144,-4.8203,-4.8183,-4.8223,-4.8242,-4.8379,-4.873,-4.8945,-4.9023,-4.9375,-4.9824,-5.0195,-5.0391,-5.0742,-5.1211,-5.1094,-5.1035,-5.1387,-5.1504,-5.1465,-5.1484,-5.1562,-5.1601,-5.1445,-5.308,-5.2599,-5.1868,-5.2456,-5.4762,-5.6154,-5.6486,-5.5711,-5.3451,-5.0864,-4.9275,-4.8906,-4.8906,-4.8848,-4.8848,-4.8848,-4.8848,-4.8848,-4.8848,-4.8808,-4.873,-4.8691,-4.9793,-5.095,-5.0476,-4.963,-4.9671,-4.9729,-4.9281,-4.8884,-4.8472,-4.8223,-4.8242,-4.8398,-4.832,-4.8183,-4.7969,-4.793,-4.8008,-4.7871,-4.7637,-4.8713,-5.088,-5.243,-5.3836,-5.7159,-5.9563,-5.5039,-5.4023,-5.3926,-5.3418,-5.2773,-5.2617,-5.2578,-5.2539,-5.2129,-5.1914,-5.1738,-5.1465,-5.1269,-5.1152,-5.1133,-5.1172,-5.1035,-5.0644,-5.0371,-5.0078,-5.0332,-5.0156,-4.998,-5.0293,-5.0391,-5.043,-5.0586,-5.043,-5.0078,-4.9707,-4.9492,-4.9355,-4.9023,-4.9043,-4.9355,-4.9355,-4.957,-4.9766,-4.957,-4.9375,-4.9297,-4.9043,-4.8848,-4.8672,-4.8398,-4.8418,-4.8574,-4.8379,-4.8555,-4.9062,-4.9336,-4.9433,-4.9551,-5.0078,-5.0488,-5.0683,-5.0976,-5.123,-5.1367,-5.1348,-5.1308,-5.1426,-5.1699,-5.1797,-5.1484,-5.1758,-5.1738,-5.1523,-5.1696,-5.1976,-5.2208,-5.6604,-5.8206,-5.8288,-5.9098,-5.9655,-5.8149,-5.4667,-5.182,-4.9981,-4.9228,-4.8848,-4.8848,-4.8848,-4.8848,-4.8848,-4.8848,-4.8848,-4.8848,-4.8848,-5.0156,-5.1715,-5.1391,-5.0693,-5.1724,-5.1445,-5.0325,-4.9433,-4.8852,-4.8359,-4.8398,-4.8516,-4.8359,-4.8262,-4.8183,-4.8164,-4.8008,-4.7988,-4.7695,-4.9051,-5.0317,-5.1527,-5.3342,-5.6531,-5.876,-5.543,-5.4629,-5.4414,-5.3945,-5.3359,-5.3105,-5.3008,-5.2969,-5.2793,-5.2558,-5.2422,-5.2305,-5.2129,-5.1758,-5.1719,-5.1641,-5.1367,-5.0996,-5.0566,-5.0293,-5.041,-5.0469,-5.0527,-5.0488,-5.0625,-5.082,-5.1016,-5.0762,-5.0254,-4.9941,-4.9746,-4.9492,-4.9082,-4.9258,-4.9687,-4.9648,-4.9746,-5.0039,-4.998,-4.9824,-4.9766,-4.9414,-4.9023,-4.8887,-4.8633,-4.8652,-4.8789,-4.8887,-4.9082,-4.9512,-4.9902,-5.0137,-5.0156,-5.0547,-5.0859,-5.1113,-5.1269,-5.1426,-5.1426,-5.1445,-5.1426,-5.1445,-5.1836,-5.1758,-5.166,-5.1836,-5.1973,-5.1894,-5.2467,-5.3316,-5.5441,-5.8053,-6.0463,-6.1676,-6.2148,-6.2396,-6.0679,-5.7241,-5.3835,-5.1737,-5.0742,-4.9951,-4.9564,-4.9564,-4.9032,-4.9216,-4.9032,-4.9032,-4.8848,-4.9032,-5.0276,-5.128,-5.1517,-5.1932,-5.3461,-5.3196,-5.1317,-5.0052,-4.8733,-4.8272,-4.7988,-4.8144,-4.8301,-4.8125,-4.791,-4.7793,-4.7676,-4.7695,-4.7832,-4.8527,-4.9491,-5.0879,-5.2428,-5.48,-5.6897,-5.5781,-5.5371,-5.5019,-5.4609,-5.418,-5.3769,-5.3594,-5.3574,-5.3398,-5.3086,-5.2851,-5.3105,-5.2519,-5.2168,-5.1933,-5.1758,-5.1523,-5.1133,-5.0801,-5.0742,-5.0605,-5.0723,-5.084,-5.0898,-5.0918,-5.0957,-5.1211,-5.0957,-5.0469,-5.0176,-4.9902,-4.9531,-4.9199,-4.9414,-4.9902,-4.9941,-5.0039,-5.043,-5.0351,-5.0273,-5.0195,-4.9844,-4.9433,-4.9082,-4.8848,-4.8887,-4.9043,-4.9258,-4.957,-4.9746,-5.041,-5.084,-5.1074,-5.1035,-5.1074,-5.1445,-5.1504,-5.1523,-5.1445,-5.1445,-5.1445,-5.1445,-5.1738,-5.1777,-5.1601,-5.1699,-5.1836,-5.2284,-5.2852,-5.4879,-5.9231,-6.0077,-6.1693,-6.3669,-6.4872,-6.448,-6.2437,-5.9587,-5.7128,-5.3894,-5.3157,-5.2596,-5.1569,-5.1145,-5.0276,-4.9564,-4.94,-4.9216,-4.9032,-4.9275,-5.0377,-5.1923,-5.233,-5.2153,-5.3548,-5.2741,-5.1252,-5.0582,-4.9045,-4.8989,-4.8772,-5.027,-5.0592,-4.8114,-4.7519,-4.7441,-4.7402,-4.7422,-4.7676,-4.8066,-4.8547,-4.9432,-5.0963,-5.2973,-5.4691,-5.623,-5.582,-5.5762,-5.5469,-5.5039,-5.4629,-5.4394,-5.4336,-5.3633,-5.334,-5.3183,-5.2598,-5.2324,-5.2051,-5.168,-5.1699,-5.1797,-5.1465,-5.1387,-5.1465,-5.1289,-5.1211,-5.123,-5.125,-5.1269,-5.1328,-5.1406,-5.1133,-5.0683,-5.0351,-5.0039,-4.9629,-4.9473,-4.9746,-5.0117,-5.043,-5.0644,-5.0898,-5.0859,-5.0781,-5.0625,-5.0293,-4.9824,-4.9394,-4.9082,-4.9062,-4.9297,-4.9492,-4.9844,-5.0508,-5.0723,-5.1348,-5.1894,-5.1914,-5.1758,-5.168,-5.1738,-5.1699,-5.1562,-5.1445,-5.1445,-5.1445,-5.1582,-5.1601,-5.1504,-5.1523,-5.166,-5.1777,-5.2067,-5.3304,-5.5799,-5.857,-6.0534,-6.268,-6.4803,-6.5614,-6.4701,-6.3449,-6.1365,-5.7526,-5.6596,-5.5446,-5.4207,-5.3145,-5.2724,-5.1847,-5.1145,-5.0439,-4.9748,-4.9723,-5.027,-5.1868,-5.3493,-5.3312,-5.3347,-5.1754,-5.04,-5.0502,-4.999,-5.0701,-5.1323,-5.3385,-5.3035,-4.9658,-4.78,-4.7622,-4.7603,-4.7226,-4.7383,-4.7695,-4.7754,-4.7973,-4.9445,-5.091,-5.2562,-5.6328,-5.5937,-5.5937,-5.5566,-5.5,-5.4785,-5.4551,-5.4258,-5.3652,-5.3359,-5.3183,-5.2715,-5.2402,-5.2344,-5.2226,-5.2129,-5.1953,-5.1641,-5.1582,-5.166,-5.1523,-5.1445,-5.1445,-5.1445,-5.1445,-5.1426,-5.1406,-5.1211,-5.084,-5.0625,-5.0234,-4.998,-4.9863,-4.998,-5.0215,-5.0566,-5.0898,-5.1113,-5.1289,-5.1328,-5.1113,-5.0703,-5.0215,-4.9629,-4.9336,-4.9219,-4.916,-4.9453,-4.9805,-5.0351,-5.0683,-5.125,-5.1836,-5.2285,-5.2402,-5.2305,-5.2031,-5.1816,-5.1699,-5.1601,-5.1445,-5.1465,-5.1601,-5.1758,-5.1758,-5.1777,-5.166,-5.1777,-5.3629,-5.4875,-5.7175,-5.9019,-6.1733,-6.3929,-6.5421,-6.5965,-6.6086,-6.5886,-6.3767,-6.1185,-5.9679,-5.8044,-5.6151,-5.5446,-5.5071,-5.4301,-5.3259,-5.2027,-5.0803,-5.0538,-5.0615,-5.1708,-5.3625,-5.502,-5.471,-5.3491,-5.1776,-5.1295,-5.1595,-5.2304,-5.312,-5.4893,-5.3276,-4.9887,-4.8932,-4.9535,-4.7485,-4.7129,-4.7246,-4.7324,-4.748,-4.7718,-4.8038,-4.9033,-5.0952,-5.6387,-5.6074,-5.6074,-5.5625,-5.498,-5.4844,-5.4512,-5.4023,-5.3672,-5.3457,-5.332,-5.3008,-5.2832,-5.2793,-5.2598,-5.2363,-5.2051,-5.1621,-5.1523,-5.1601,-5.1484,-5.1445,-5.1445,-5.1445,-5.1445,-5.1445,-5.1426,-5.1211,-5.0879,-5.0762,-5.0547,-5.0293,-5.0215,-5.0293,-5.043,-5.0801,-5.0879,-5.1152,-5.1523,-5.1719,-5.1426,-5.0996,-5.0469,-4.9726,-4.957,-4.9336,-4.918,-4.9355,-4.9746,-5.0195,-5.0586,-5.1016,-5.1465,-5.207,-5.2676,-5.2949,-5.2207,-5.2012,-5.1973,-5.168,-5.1484,-5.1641,-5.1797,-5.1894,-5.1953,-5.1894,-5.1973,-5.2247,-5.3502,-5.5842,-5.7488,-6.0159,-6.2731,-6.4822,-6.5745,-6.6463,-6.6789,-6.6764,-6.6463,-6.4432,-6.2739,-6.1106,-5.9444,-5.8702,-5.8687,-5.7101,-5.6036,-5.3593,-5.2429,-5.1189,-5.1291,-5.1827,-5.3364,-5.5954,-5.6655,-5.6652,-5.5013,-5.3717,-5.4322,-5.5053,-5.5321,-5.6036,-5.3851,-5.2643,-5.3256,-5.3408,-5.0208,-4.7031,-4.7012,-4.709,-4.7285,-4.782,-4.8682,-4.9107,-5.0393,-5.6562,-5.6504,-5.6504,-5.623,-5.5723,-5.5332,-5.4746,-5.4062,-5.3926,-5.3711,-5.3359,-5.3281,-5.3203,-5.3047,-5.2441,-5.2168,-5.1973,-5.166,-5.1582,-5.1758,-5.1562,-5.1445,-5.1445,-5.1445,-5.1445,-5.1445,-5.1445,-5.1191,-5.0957,-5.0879,-5.0586,-5.0332,-5.0547,-5.0664,-5.0508,-5.0996,-5.1348,-5.1367,-5.1465,-5.1504,-5.1387,-5.1016,-5.0547,-5.0078,-4.9726,-4.9453,-4.9297,-4.9394,-4.9668,-5.0098,-5.0547,-5.0976,-5.1367,-5.1484,-5.2031,-5.25,-5.2637,-5.2558,-5.2461,-5.1933,-5.1621,-5.1777,-5.1738,-5.1562,-5.1719,-5.2051,-5.2305,-5.2578,-5.3232,-5.4431,-5.6571,-5.8457,-6.0982,-6.3505,-6.5341,-6.6466,-6.7367,-6.6915,-6.6689,-6.6513,-6.4383,-6.4034,-6.3274,-6.2781,-6.217,-6.0556,-5.8617,-5.6165,-5.3878,-5.2827,-5.2653,-5.343,-5.3996,-5.6276,-5.8464,-5.8451,-5.7965,-5.6441,-5.6983,-5.7692,-5.7975,-5.8068,-5.8184,-5.7384,-5.763,-5.5587,-5.1639,-4.8788,-4.7484,-4.7091,-4.7702,-4.8662,-4.9853,-5.0157,-5.0695,-5.6367,-5.6562,-5.6328,-5.5976,-5.5547,-5.5137,-5.4609,-5.4062,-5.375,-5.3535,-5.332,-5.3086,-5.2988,-5.2851,-5.2324,-5.209,-5.1992,-5.1621,-5.1523,-5.168,-5.1523,-5.1445,-5.1445,-5.1445,-5.1445,-5.1445,-5.1426,-5.1387,-5.1172,-5.1074,-5.0859,-5.0391,-5.0742,-5.0683,-5.0488,-5.1035,-5.1172,-5.1191,-5.1289,-5.1426,-5.1328,-5.1016,-5.0488,-4.9863,-4.9629,-4.9433,-4.9219,-4.916,-4.9375,-4.9746,-5.0019,-5.041,-5.0957,-5.1328,-5.1738,-5.2246,-5.2344,-5.2441,-5.2578,-5.209,-5.1992,-5.1914,-5.1758,-5.1582,-5.1836,-5.2363,-5.2558,-5.2344,-5.2344,-5.3426,-5.5124,-5.6461,-5.9262,-6.1889,-6.4174,-6.5887,-6.674,-6.6865,-6.6564,-6.6438,-6.6312,-6.5685,-6.4931,-6.3811,-6.3078,-6.2194,-6.046,-5.8213,-5.6013,-5.4202,-5.4667,-5.5512,-5.5901,-5.6758,-5.8993,-6.0305,-6.0354,-5.9455,-5.974,-6.0262,-6.0424,-6.0562,-6.0326,-5.9316,-5.8166,-5.5518,-5.2209,-5.0767,-4.963,-4.8763,-4.8113,-4.9804,-5.1488,-5.2402,-5.3269,-5.623,-5.6387,-5.5957,-5.5527,-5.5137,-5.4805,-5.4355,-5.3828,-5.3516,-5.3301,-5.3125,-5.2851,-5.2676,-5.25,-5.2226,-5.2012,-5.1894,-5.1582,-5.1465,-5.1445,-5.1445,-5.1445,-5.1445,-5.1445,-5.1445,-5.1445,-5.1445,-5.1406,-5.1406,-5.1367,-5.1074,-5.0527,-5.1094,-5.0937,-5.0566,-5.0879,-5.1308,-5.1113,-5.1172,-5.1289,-5.1348,-5.1152,-5.0508,-5.0,-4.9629,-4.9433,-4.8945,-4.8887,-4.9101,-4.9277,-4.9707,-5.0156,-5.0625,-5.1152,-5.1523,-5.1914,-5.2031,-5.2246,-5.2363,-5.2207,-5.2168,-5.2109,-5.2051,-5.2031,-5.2441,-5.3047,-5.3223,-5.2578,-5.2558,-5.321,-5.4279,-5.4901,-5.7322,-6.0041,-6.2462,-6.4318,-6.601,-6.6666,-6.7041,-6.6915,-6.6714,-6.6187,-6.5283,-6.4002,-6.341,-6.3369,-6.2214,-6.0363,-5.8274,-5.6131,-5.6663,-5.7656,-5.7975,-5.8547,-6.0525,-6.2033,-6.2144,-6.1994,-6.2119,-6.2195,-6.1871,-6.1658,-6.1446,-6.0196,-5.9133,-5.7666,-5.5676,-5.3755,-5.1821,-5.163,-5.1439,-5.1939,-5.3027,-5.4288,-5.5243,-5.6308,-5.5937,-5.5527,-5.5117,-5.4726,-5.4687,-5.418,-5.3476,-5.3379,-5.3125,-5.2832,-5.2695,-5.2461,-5.2207,-5.207,-5.1836,-5.1523,-5.1445,-5.1484,-5.1484,-5.1445,-5.1465,-5.1465,-5.1445,-5.1445,-5.1445,-5.1445,-5.1445,-5.1445,-5.1426,-5.1387,-5.1387,-5.1367,-5.1348,-5.1211,-5.1191,-5.1406,-5.123,-5.1172,-5.1133,-5.1289,-5.123,-5.0879,-5.0273,-5.0039,-4.9746,-4.8926,-4.8867,-4.8887,-4.9023,-4.959,-5.0019,-5.0391,-5.0957,-5.1367,-5.1601,-5.1836,-5.2012,-5.2051,-5.2148,-5.2285,-5.248,-5.2598,-5.2558,-5.2793,-5.3105,-5.3223,-5.2988,-5.2695,-5.3034,-5.3722,-5.4576,-5.6613,-5.9591,-6.2244,-6.4392,-6.6145,-6.7488,-6.7668,-6.7568,-6.7116,-6.6614,-6.6086,-6.4906,-6.4279,-6.4212,-6.3494,-6.1782,-6.0163,-5.8342,-5.8923,-5.9587,-6.0238,-6.1181,-6.277,-6.3274,-6.2722,-6.2496,-6.2496,-6.2596,-6.2509,-6.2433,-6.212,-6.1957,-6.108,-6.0043,-5.9045,-5.7042,-5.5484,-5.4871,-5.4781,-5.502,-5.6105,-5.7785,-5.8017,-5.5703,-5.5488,-5.4805,-5.459,-5.4648,-5.4101,-5.3672,-5.334,-5.3086,-5.2891,-5.2676,-5.2441,-5.2246,-5.2051,-5.1797,-5.1777,-5.1816,-5.1836,-5.1816,-5.1836,-5.1836,-5.168,-5.1562,-5.1445,-5.1445,-5.1445,-5.1445,-5.1445,-5.1445,-5.1445,-5.1445,-5.1426,-5.1445,-5.123,-5.1191,-5.1308,-5.1406,-5.1406,-5.125,-5.1211,-5.0976,-5.1035,-5.0762,-5.0254,-4.9844,-4.9668,-4.9277,-4.8984,-4.8906,-4.9023,-4.9512,-4.9844,-5.0156,-5.0742,-5.1133,-5.1367,-5.1621,-5.1719,-5.1836,-5.1914,-5.2051,-5.1992,-5.2324,-5.2734,-5.2812,-5.2637,-5.2578,-5.248,-5.26,-5.2837,-5.4361,-5.5112,-5.6628,-5.9963,-6.2594,-6.4498,-6.6079,-6.7379,-6.8018,-6.7693,-6.7392,-6.7015,-6.6513,-6.5961,-6.5459,-6.5057,-6.4212,-6.3185,-6.1667,-6.0679,-6.1066,-6.1066,-6.1514,-6.2153,-6.3744,-6.3626,-6.3149,-6.2998,-6.2873,-6.2822,-6.2822,-6.2822,-6.2534,-6.2797,-6.2873,-6.1928,-6.0948,-5.9868,-5.8569,-5.7152,-5.7182,-5.7881,-5.9389,-6.0949,-6.0329,-5.543,-5.5234,-5.4531,-5.4316,-5.4375,-5.3672,-5.3359,-5.3262,-5.2754,-5.2422,-5.2324,-5.2012,-5.1875,-5.1816,-5.1797,-5.1777,-5.2051,-5.2168,-5.2148,-5.2109,-5.2012,-5.1816,-5.1562,-5.1445,-5.1445,-5.1445,-5.1445,-5.1445,-5.1445,-5.1445,-5.1445,-5.1445,-5.1426,-5.125,-5.1172,-5.1133,-5.1308,-5.1406,-5.1269,-5.125,-5.0976,-5.1016,-5.084,-5.0449,-5.0156,-4.9922,-4.9668,-4.9375,-4.9121,-4.918,-4.9414,-4.9668,-5.0019,-5.0391,-5.0801,-5.1133,-5.1367,-5.1465,-5.168,-5.1953,-5.2187,-5.2363,-5.2812,-5.2891,-5.2598,-5.2422,-5.2637,-5.2345,-5.2422,-5.3417,-5.5367,-5.591,-5.725,-6.0361,-6.231,-6.4224,-6.568,-6.7052,-6.7641,-6.7744,-6.7467,-6.7116,-6.684,-6.6312,-6.5835,-6.5509,-6.5283,-6.4318,-6.327,-6.2641,-6.2762,-6.2665,-6.2617,-6.3274,-6.4069,-6.3661,-6.3324,-6.3274,-6.3099,-6.2873,-6.2822,-6.2822,-6.2873,-6.2898,-6.2998,-6.3174,-6.2645,-6.1516,-6.0286,-5.8898,-5.9284,-5.9941,-6.0523,-6.1521,-6.1231,-5.5644,-5.5273,-5.4805,-5.4414,-5.4043,-5.3555,-5.334,-5.3183,-5.2441,-5.1894,-5.1621,-5.1504,-5.1504,-5.1582,-5.1816,-5.2051,-5.2246,-5.2519,-5.2519,-5.2246,-5.2187,-5.1875,-5.1582,-5.1445,-5.1445,-5.1445,-5.1445,-5.1445,-5.1445,-5.1445,-5.1445,-5.1445,-5.1426,-5.1406,-5.1367,-5.1016,-5.1055,-5.1308,-5.1055,-5.1211,-5.1367,-5.1426,-5.1191,-5.0976,-5.0644,-5.0391,-5.0137,-4.9746,-4.9531,-4.9551,-4.9648,-4.9805,-4.9883,-5.0254,-5.0625,-5.0937,-5.1269,-5.1582,-5.1992,-5.2422,-5.2676,-5.2871,-5.3164,-5.3398,-5.3301,-5.3144,-5.2773,-5.2326,-5.3435,-5.471,-5.6017,-5.7175,-5.8714,-6.1233,-6.323,-6.4535,-6.6219,-6.7274,-6.7965,-6.8196,-6.7568,-6.7041,-6.6865,-6.6589,-6.6112,-6.5886,-6.5936,-6.5364,-6.4324,-6.4055,-6.3987,-6.3666,-6.3394,-6.3583,-6.3961,-6.3852,-6.355,-6.3475,-6.3274,-6.2973,-6.2822,-6.2822,-6.2873,-6.2973,-6.3199,-6.345,-6.34,-6.3085,-6.1992,-6.1011,-6.1383,-6.1932,-6.2133,-6.1969,-6.1466,-5.543,-5.5234,-5.4551,-5.416,-5.3984,-5.3555,-5.3203,-5.2793,-5.207,-5.1582,-5.1465,-5.1445,-5.1445,-5.1562,-5.1875,-5.2226,-5.2539,-5.293,-5.291,-5.2539,-5.248,-5.2012,-5.166,-5.1445,-5.1445,-5.1445,-5.1445,-5.1445,-5.1445,-5.1445,-5.1445,-5.1445,-5.1445,-5.1445,-5.1406,-5.125,-5.1328,-5.1465,-5.1543,-5.1738,-5.1855,-5.1836,-5.1758,-5.1562,-5.1113,-5.0762,-5.0586,-5.0176,-4.998,-4.998,-5.0078,-5.0234,-5.0312,-5.0664,-5.0976,-5.1172,-5.1426,-5.1465,-5.1816,-5.2187,-5.2578,-5.2851,-5.3183,-5.3418,-5.3008,-5.2656,-5.2344,-5.2306,-5.2987,-5.4627,-5.6989,-5.7894,-5.9954,-6.4125,-6.6314,-6.6859,-6.7787,-6.8415,-6.8974,-6.8748,-6.8296,-6.8271,-6.8145,-6.7216,-6.6589,-6.6363,-6.6413,-6.5785,-6.4888,-6.4813,-6.4743,-6.4243,-6.3894,-6.3861,-6.3827,-6.355,-6.34,-6.3324,-6.3149,-6.2898,-6.2822,-6.2973,-6.3174,-6.3425,-6.3576,-6.3726,-6.3802,-6.3827,-6.3601,-6.3235,-6.2923,-6.2496,-6.2195,-6.1818,-6.1341,-5.5312,-5.5215,-5.4375,-5.4023,-5.3965,-5.3555,-5.3105,-5.2656,-5.2129,-5.1875,-5.1855,-5.1758,-5.168,-5.1758,-5.1953,-5.2305,-5.2734,-5.3144,-5.3301,-5.291,-5.2754,-5.2285,-5.1836,-5.1484,-5.1445,-5.1445,-5.1445,-5.1445,-5.1445,-5.1445,-5.1445,-5.1445,-5.1445,-5.1445,-5.1426,-5.1406,-5.1406,-5.1523,-5.1719,-5.1992,-5.2051,-5.2051,-5.207,-5.1836,-5.1484,-5.1016,-5.0898,-5.0683,-5.041,-5.0469,-5.0547,-5.0723,-5.0859,-5.0918,-5.1191,-5.1308,-5.1758,-5.1894,-5.2344,-5.2578,-5.2871,-5.2773,-5.3125,-5.3105,-5.2793,-5.2558,-5.2187,-5.211,-5.2284,-5.4735,-5.759,-5.8697,-6.1562,-6.5742,-6.6866,-6.7392,-6.7993,-6.8597,-6.8899,-6.8748,-6.8823,-6.9024,-6.8949,-6.8095,-6.7091,-6.699,-6.6865,-6.6036,-6.5233,-6.5082,-6.4831,-6.4254,-6.3902,-6.3726,-6.35,-6.3249,-6.3149,-6.3149,-6.3099,-6.3048,-6.3274,-6.3475,-6.3676,-6.3902,-6.4203,-6.4404,-6.4429,-6.4354,-6.3877,-6.3375,-6.2873,-6.2446,-6.2069,-6.1843,-6.1617,-5.5273,-5.5156,-5.4375,-5.4023,-5.3945,-5.3594,-5.3164,-5.2754,-5.2695,-5.2656,-5.2656,-5.2207,-5.2109,-5.2109,-5.2148,-5.2422,-5.2773,-5.3203,-5.3223,-5.3105,-5.2754,-5.2324,-5.1933,-5.1601,-5.1465,-5.1445,-5.1484,-5.1543,-5.1465,-5.1445,-5.1445,-5.1484,-5.1484,-5.1562,-5.1601,-5.1523,-5.1484,-5.1543,-5.207,-5.2207,-5.2148,-5.2226,-5.2207,-5.2031,-5.168,-5.1426,-5.125,-5.1016,-5.0918,-5.0801,-5.0625,-5.0703,-5.0664,-5.0488,-5.0859,-5.1406,-5.2226,-5.2598,-5.2949,-5.3105,-5.3223,-5.3066,-5.3125,-5.3047,-5.2969,-5.2812,-5.2461,-5.2679,-5.3007,-5.562,-5.7885,-6.0204,-6.2339,-6.4524,-6.6017,-6.6766,-6.7593,-6.802,-6.8321,-6.8447,-6.8622,-6.8648,-6.8321,-6.7668,-6.7216,-6.7015,-6.6664,-6.586,-6.5132,-6.4731,-6.4379,-6.3651,-6.34,-6.3375,-6.3224,-6.3224,-6.345,-6.3601,-6.3525,-6.35,-6.3751,-6.3952,-6.4078,-6.4329,-6.4881,-6.5157,-6.5358,-6.4781,-6.3852,-6.3375,-6.3149,-6.2546,-6.2195,-6.2471,-6.237,-5.4863,-5.4805,-5.4258,-5.4023,-5.4004,-5.3887,-5.3574,-5.3164,-5.2871,-5.2715,-5.2695,-5.2598,-5.2539,-5.2539,-5.2851,-5.3008,-5.3144,-5.3242,-5.3086,-5.2871,-5.2539,-5.2051,-5.1719,-5.1523,-5.1445,-5.1543,-5.1641,-5.166,-5.1484,-5.1445,-5.1641,-5.1836,-5.1543,-5.1738,-5.1836,-5.1719,-5.1562,-5.166,-5.2324,-5.2402,-5.2402,-5.2539,-5.2441,-5.2187,-5.1855,-5.1641,-5.1406,-5.1269,-5.1269,-5.1523,-5.1543,-5.1719,-5.207,-5.1777,-5.1777,-5.1836,-5.2187,-5.2422,-5.2812,-5.2891,-5.3008,-5.3105,-5.2871,-5.3125,-5.3223,-5.3183,-5.2773,-5.2916,-5.2971,-5.4663,-5.6875,-5.9132,-6.1695,-6.3595,-6.5123,-6.6739,-6.7367,-6.7769,-6.807,-6.8422,-6.8572,-6.8497,-6.8095,-6.7467,-6.7066,-6.689,-6.6488,-6.576,-6.5157,-6.4806,-6.4203,-6.35,-6.345,-6.3601,-6.3576,-6.3576,-6.3852,-6.4053,-6.4002,-6.4002,-6.4228,-6.4404,-6.4454,-6.4831,-6.5459,-6.5986,-6.6438,-6.5584,-6.4505,-6.4053,-6.3751,-6.2998,-6.2471,-6.2747,-6.2923,-5.4687,-5.4609,-5.4219,-5.4023,-5.4023,-5.4023,-5.3867,-5.3594,-5.334,-5.3242,-5.3203,-5.3047,-5.2969,-5.2949,-5.3027,-5.3047,-5.3047,-5.3027,-5.293,-5.2715,-5.2246,-5.2031,-5.1738,-5.1504,-5.1445,-5.1562,-5.1621,-5.1621,-5.1484,-5.1445,-5.1601,-5.1719,-5.1504,-5.1758,-5.1914,-5.1797,-5.1641,-5.1816,-5.2148,-5.248,-5.2637,-5.2676,-5.2461,-5.2324,-5.1973,-5.1562,-5.1445,-5.1348,-5.1445,-5.1758,-5.1816,-5.2012,-5.2324,-5.2168,-5.2051,-5.2051,-5.2109,-5.2363,-5.2637,-5.2539,-5.2754,-5.2871,-5.2656,-5.2832,-5.291,-5.2871,-5.2617,-5.2522,-5.2542,-5.3106,-5.5324,-5.7557,-6.0022,-6.2671,-6.4592,-6.6516,-6.7141,-6.7568,-6.7995,-6.8396,-6.8522,-6.8497,-6.807,-6.7392,-6.7066,-6.7166,-6.694,-6.6287,-6.566,-6.5183,-6.4479,-6.3701,-6.3827,-6.4028,-6.4002,-6.4078,-6.4279,-6.453,-6.458,-6.463,-6.4756,-6.5082,-6.5358,-6.5685,-6.6086,-6.6639,-6.7166,-6.6287,-6.5333,-6.4831,-6.4178,-6.3425,-6.2973,-6.3048,-6.3174,-5.4629,-5.459,-5.4199,-5.4023,-5.4023,-5.4023,-5.4023,-5.4023,-5.3945,-5.4004,-5.3887,-5.3574,-5.3418,-5.3379,-5.3242,-5.3086,-5.3027,-5.2949,-5.2812,-5.2656,-5.2129,-5.1875,-5.1758,-5.1641,-5.1465,-5.1445,-5.1523,-5.1699,-5.1543,-5.1484,-5.1465,-5.1465,-5.1445,-5.1641,-5.1894,-5.1836,-5.1719,-5.1758,-5.1933,-5.2129,-5.2363,-5.2344,-5.2226,-5.2285,-5.1738,-5.1133,-5.1269,-5.1211,-5.1055,-5.1348,-5.1582,-5.1797,-5.1973,-5.2109,-5.209,-5.209,-5.209,-5.2422,-5.2598,-5.2558,-5.2656,-5.2773,-5.2754,-5.291,-5.3008,-5.293,-5.2734,-5.2324,-5.2286,-5.2561,-5.4259,-5.6248,-5.8603,-6.109,-6.3384,-6.5445,-6.6714,-6.7191,-6.7643,-6.7919,-6.7869,-6.7894,-6.7945,-6.7267,-6.6689,-6.7141,-6.7066,-6.6438,-6.6036,-6.5484,-6.4931,-6.4128,-6.4329,-6.458,-6.4781,-6.4831,-6.4831,-6.4957,-6.5183,-6.5233,-6.5358,-6.581,-6.6363,-6.6614,-6.689,-6.7342,-6.7593,-6.6764,-6.5961,-6.5183,-6.453,-6.3802,-6.355,-6.3651,-6.35,-5.418,-5.418,-5.4062,-5.4023,-5.4023,-5.4023,-5.4023,-5.4023,-5.4023,-5.4023,-5.4004,-5.3906,-5.3848,-5.3769,-5.3672,-5.3574,-5.3496,-5.3008,-5.2773,-5.2441,-5.1992,-5.1738,-5.1621,-5.1523,-5.1445,-5.1562,-5.1699,-5.1777,-5.1738,-5.1621,-5.1582,-5.1816,-5.166,-5.1621,-5.207,-5.1953,-5.166,-5.1738,-5.1699,-5.1719,-5.1816,-5.2246,-5.2422,-5.209,-5.1484,-5.1445,-5.1484,-5.1348,-5.1523,-5.1836,-5.1914,-5.1992,-5.207,-5.207,-5.207,-5.209,-5.207,-5.2441,-5.2715,-5.2715,-5.2812,-5.3066,-5.3203,-5.332,-5.332,-5.3144,-5.2832,-5.2363,-5.2286,-5.258,-5.3415,-5.524,-5.7076,-5.9726,-6.2374,-6.4197,-6.624,-6.6865,-6.7317,-6.7367,-6.7292,-6.7367,-6.7518,-6.7166,-6.6614,-6.6413,-6.6413,-6.6137,-6.5936,-6.5559,-6.5534,-6.4982,-6.4957,-6.5183,-6.5409,-6.5534,-6.5509,-6.5835,-6.6187,-6.6137,-6.5986,-6.6538,-6.7116,-6.7392,-6.7693,-6.8095,-6.8095,-6.7417,-6.6589,-6.586,-6.5208,-6.463,-6.458,-6.468,-6.4254,-5.4023,-5.4023,-5.4023,-5.4023,-5.4023,-5.4023,-5.4023,-5.4023,-5.4023,-5.4023,-5.4023,-5.4023,-5.4023,-5.4023,-5.4023,-5.3887,-5.373,-5.3262,-5.2754,-5.2324,-5.2031,-5.1699,-5.1523,-5.1445,-5.1445,-5.1523,-5.1445,-5.1484,-5.166,-5.1426,-5.1308,-5.168,-5.1543,-5.166,-5.2109,-5.168,-5.1543,-5.1738,-5.1504,-5.1426,-5.1406,-5.1797,-5.2129,-5.1777,-5.1582,-5.1523,-5.1465,-5.1308,-5.1406,-5.166,-5.1738,-5.1738,-5.1758,-5.1758,-5.1777,-5.1836,-5.1992,-5.2285,-5.2617,-5.2832,-5.2851,-5.2988,-5.3125,-5.3047,-5.2461,-5.2324,-5.2871,-5.25,-5.2461,-5.2778,-5.3329,-5.4841,-5.5914,-5.7907,-6.1368,-6.411,-6.5917,-6.7166,-6.7693,-6.807,-6.7919,-6.7744,-6.7643,-6.694,-6.6488,-6.6488,-6.6363,-6.6036,-6.581,-6.571,-6.5685,-6.566,-6.5559,-6.5634,-6.581,-6.5986,-6.6137,-6.6564,-6.7015,-6.6965,-6.6865,-6.7392,-6.7844,-6.802,-6.8296,-6.8698,-6.8522,-6.7894,-6.7543,-6.699,-6.6287,-6.5584,-6.5609,-6.5584,-6.5082,-5.4023,-5.4023,-5.4023,-5.4023,-5.4023,-5.4023,-5.4023,-5.4023,-5.4023,-5.4023,-5.4023,-5.4023,-5.4023,-5.4023,-5.4004,-5.375,-5.3516,-5.334,-5.2851,-5.25,-5.2168,-5.1875,-5.1641,-5.1484,-5.1387,-5.123,-5.1074,-5.1094,-5.1172,-5.0996,-5.1055,-5.1308,-5.1445,-5.1504,-5.1445,-5.1426,-5.1465,-5.1387,-5.1269,-5.1308,-5.1328,-5.1367,-5.1582,-5.1543,-5.1328,-5.1074,-5.1172,-5.1211,-5.1172,-5.1289,-5.1504,-5.1426,-5.1445,-5.1445,-5.1406,-5.1484,-5.1719,-5.1973,-5.2207,-5.2461,-5.2422,-5.2422,-5.2578,-5.2441,-5.1914,-5.207,-5.2617,-5.2695,-5.2656,-5.2698,-5.3252,-5.3782,-5.4862,-5.676,-6.0364,-6.3827,-6.5538,-6.7216,-6.7693,-6.8221,-6.8045,-6.7819,-6.7367,-6.6664,-6.6488,-6.6513,-6.6388,-6.6061,-6.5835,-6.5835,-6.581,-6.5886,-6.5886,-6.6011,-6.6212,-6.6438,-6.6639,-6.689,-6.7267,-6.7467,-6.7693,-6.797,-6.8246,-6.8497,-6.8823,-6.9074,-6.8899,-6.8371,-6.8095,-6.7769,-6.7015,-6.6262,-6.6488,-6.6338,-6.5835,-5.4023,-5.4023,-5.4023,-5.4023,-5.4023,-5.4023,-5.4023,-5.4023,-5.4023,-5.4023,-5.4023,-5.4023,-5.4023,-5.4023,-5.4023,-5.3906,-5.3789,-5.3574,-5.3398,-5.3125,-5.2422,-5.2109,-5.1836,-5.1504,-5.123,-5.1035,-5.084,-5.0683,-5.0801,-5.0801,-5.084,-5.0957,-5.1719,-5.1738,-5.1445,-5.1406,-5.1328,-5.1191,-5.1035,-5.1016,-5.0976,-5.1035,-5.1191,-5.1172,-5.1094,-5.1152,-5.1269,-5.1348,-5.1367,-5.1406,-5.1406,-5.125,-5.1191,-5.123,-5.125,-5.123,-5.1465,-5.1816,-5.207,-5.2285,-5.2285,-5.2441,-5.2598,-5.2558,-5.2246,-5.2246,-5.2539,-5.2441,-5.2305,-5.1973,-5.2266,-5.2325,-5.3121,-5.5998,-5.9428,-6.2731,-6.527,-6.6242,-6.6815,-6.699,-6.694,-6.684,-6.6739,-6.6262,-6.6061,-6.6086,-6.6112,-6.581,-6.571,-6.581,-6.5911,-6.6011,-6.6112,-6.6463,-6.6689,-6.6915,-6.7141,-6.7317,-6.7543,-6.7844,-6.8095,-6.8296,-6.8547,-6.8823,-6.8999,-6.92,-6.8949,-6.8673,-6.8346,-6.7945,-6.7342,-6.6915,-6.7141,-6.7015,-6.6413]}]]